[[{"header":{"parameterUnit":"m.s-1","parameterCategory":1,"la1":31.0,"la2":29.5877,"lo1":-88.7671,"lo2":-86.6584,"dy":0.0162,"dx":0.0185,"nx":115,"ny":88,"refTime":"2025-07-06T12:00:00:Z","depth":0,"parameterNumber":2,"parameterNumberName":"U-component_of_WINDS"},"data":[0.0,0.0,0.0,0.0,0.0,0.0,0.0,0.0,0.0,0.0,0.0,0.0,0.0,0.0,0.0,0.0,0.0,0.0,0.0,0.0,0.0,0.0,0.0,0.0,0.0,0.0,0.0,0.0,0.0,0.0,0.0,0.0,0.0,0.0,0.0,0.0,0.0,0.0,0.0,0.0,0.0,0.0,0.0,0.0,0.0,0.0,0.0,0.0,0.0,0.0,0.0,0.0,0.0,0.0,0.0,0.0,0.0,0.0,0.0,0.0,0.0,0.0,0.0,0.0,0.0,0.0,0.0,0.0,0.0,0.0,0.0,0.0,0.0,0.0,0.0,0.0,0.0,0.0,0.0,0.0,0.0,0.0,0.0,0.0,0.0,0.0,0.0,0.0,0.0,0.0,0.0,0.0,0.0,0.0,0.0,0.0,0.0,0.0,0.0,0.0,0.0,0.0,0.0,0.0,0.0,0.0,0.0,0.0,0.0,0.0,0.0,0.0,0.0,0.0,0.0,0.0,0.0,0.0,0.0,0.0,0.0,0.0,0.0,0.0,0.0,0.0,0.0,0.0,0.0,0.0,0.0,0.0,0.0,0.0,0.0,0.0,0.0,0.0,0.0,0.0,0.0,0.0,0.0,0.0,0.0,0.0,0.0,0.0,0.0,0.0,0.0,0.0,0.0,0.0,0.0,0.0,0.0,0.0,0.0,0.0,0.0,0.0,0.0,0.0,0.0,0.0,0.0,0.0,0.0,0.0,0.0,0.0,0.0,0.0,0.0,0.0,0.0,0.0,0.0,0.0,0.0,0.0,0.0,0.0,0.0,0.0,0.0,0.0,0.0,0.0,0.0,0.0,0.0,0.0,0.0,0.0,0.0,0.0,0.0,0.0,0.0,0.0,0.0,0.0,0.0,0.0,0.0,0.0,0.0,0.0,0.0,0.0,0.0,0.0,0.0,0.0,0.0,0.0,0.0,0.0,0.0,0.0,0.0,0.0,0.0,0.0,0.0,0.0,0.0,0.0,0.0,0.0,0.0,0.0,0.0,0.0,0.0,0.0,0.0,0.0,0.0,0.0,0.0,0.0,0.0,0.0,0.0,0.0,0.0,0.0,0.0,0.0,0.0,0.0,0.0,0.0,0.0,0.0,0.0,0.0,0.0,0.0,0.0,0.0,0.0,0.0,0.0,0.0,0.0,0.0,0.0,0.0,0.0,0.0,0.0,0.0,0.0,0.0,0.0,0.0,0.0,0.0,0.0,0.0,0.0,0.0,0.0,0.0,0.0,0.0,0.0,0.0,0.0,0.0,0.0,0.0,0.0,0.0,0.0,0.0,0.0,0.0,0.0,0.0,0.0,0.0,0.0,0.0,0.0,0.0,0.0,0.0,0.0,0.0,0.0,0.0,0.0,0.0,0.0,0.0,0.0,0.0,0.0,0.0,0.0,0.0,0.0,0.0,0.0,0.0,0.0,0.0,0.0,0.0,0.0,0.0,0.0,0.0,0.0,0.0,0.0,0.0,0.0,0.0,0.0,0.0,0.0,0.0,0.0,0.0,0.0,0.0,0.0,0.0,0.0,0.0,0.0,0.0,0.0,0.0,0.0,0.0,0.0,0.0,0.0,0.0,0.0,0.0,0.0,0.0,0.0,0.0,0.0,0.0,0.0,0.0,0.0,0.0,0.0,0.0,0.0,0.0,0.0,0.0,0.0,0.0,0.0,0.0,0.0,0.0,0.0,0.0,0.0,0.0,0.0,0.0,0.0,0.0,0.0,0.0,0.0,0.0,0.0,0.0,0.0,0.0,0.0,0.0,0.0,0.0,0.0,0.0,0.0,0.0,0.0,0.0,0.0,0.0,0.0,0.0,0.0,0.0,0.0,0.0,0.0,0.0,0.0,0.0,0.0,0.0,0.0,0.0,0.0,0.0,0.0,0.0,0.0,0.0,0.0,0.0,0.0,0.0,0.0,0.0,0.0,0.0,0.0,0.0,0.0,0.0,0.0,0.0,0.0,0.0,0.0,0.0,0.0,0.0,0.0,0.0,0.0,0.0,0.0,0.0,0.0,0.0,0.0,0.0,0.0,0.0,0.0,0.0,0.0,0.0,0.0,0.0,0.0,0.0,0.0,0.0,0.0,0.0,0.0,0.0,0.0,0.0,0.0,0.0,0.0,0.0,0.0,0.0,0.0,0.0,0.0,0.0,0.0,0.0,0.0,0.0,0.0,0.0,0.0,0.0,0.0,0.0,0.0,0.0,0.0,0.0,0.0,0.0,0.0,0.0,0.0,0.0,0.0,0.0,0.0,0.0,0.0,0.0,0.0,0.0,0.0,0.0,0.0,0.0,0.0,0.0,0.0,0.0,0.0,0.0,0.0,0.0,0.0,0.0,0.0,0.0,0.0,0.0,0.0,0.0,0.0,0.0,0.0,0.0,0.0,0.0,0.0,0.0,0.0,0.0,0.0,0.0,0.0,0.0,0.0,0.0,0.0,0.0,0.0,0.0,0.0,0.0,0.0,0.0,0.0,0.0,0.0,0.0,0.0,0.0,0.0,0.0,0.0,0.0,0.0,0.0,0.0,0.0,0.0,0.0,0.0,0.0,0.0,0.0,0.0,0.0,0.0,0.0,0.0,0.0,0.0,0.0,0.0,0.0,0.0,0.0,0.0,0.0,0.0,0.0,0.0,0.0,0.0,0.0,0.0,0.0,0.0,0.0,0.0,0.0,0.0,0.0,0.0,0.0,0.0,0.0,0.0,0.0,0.0,0.0,0.0,0.0,0.0,0.0,0.0,0.0,0.0,0.0,0.0,0.0,0.0,0.0,0.0,0.0,0.0,0.0,0.0,0.0,0.0,0.0,0.0,0.0,0.0,0.0,0.0,0.0,0.0,0.0,0.0,0.0,0.0,0.0,0.0,0.0,0.0,0.0,0.0,0.0,0.0,0.0,0.0,0.0,0.0,0.0,0.0,0.0,0.0,0.0,0.0,0.0,0.0,0.0,0.0,0.0,0.0,0.0,0.0,0.0,0.0,0.0,0.0,0.0,0.0,0.0,0.0,0.0,0.0,0.0,0.0,0.0,0.0,0.0,0.0,0.0,0.0,0.0,0.0,0.0,0.0,0.0,0.0,0.0,0.0,0.0,0.0,0.0,0.0,0.0,0.0,0.0,0.0,0.0,0.0,0.0,0.0,0.0,0.0,0.0,0.0,0.0,0.0,0.0,0.0,0.0,0.0,0.0,0.0,0.0,0.0,0.0,0.0,0.0,0.0,0.0,0.0,0.0,0.0,0.0,0.0,0.0,0.0,0.0,0.0,0.0,0.0,0.0,0.0,0.0,0.0,0.0,0.0,0.0,0.0,0.0,0.0,0.0,0.0,0.0,0.0,0.0,0.0,0.0,0.0,0.0,0.0,0.0,0.0,0.0,0.0,0.0,0.0,0.0,0.0,0.0,0.0,0.0,0.0,0.0,0.0,0.0,0.0,0.0,0.0,0.0,0.0,0.0,0.0,0.0,0.0,0.0,0.0,0.0,0.0,0.0,0.0,0.0,0.0,0.0,0.0,0.0,0.0,0.0,0.0,0.0,0.0,0.0,0.0,0.0,0.0,0.0,0.0,0.0,0.0,0.0,0.0,0.0,0.0,0.0,0.0,0.0,0.0,0.0,0.0,0.0,0.0,0.0,0.0,0.0,0.0,0.0,0.0,0.0,0.0,0.0,0.0,0.0,0.0,0.0,0.0,0.0,0.0,0.0,0.0,0.0,0.0,0.0,0.0,0.0,0.0,0.0,0.0,0.0,0.0,0.0,0.0,0.0,0.0,0.0,0.0,0.0,0.0,0.0,0.0,0.0,0.0,0.0,0.0,0.0,0.0,0.0,0.0,0.0,0.0,0.0,0.0,0.0,0.0,0.0,0.0,0.0,0.0,0.0,0.0,0.0,0.0,0.0,0.0,0.0,0.0,0.0,0.0,0.0,0.0,0.0,0.0,0.0,0.0,0.0,0.0,0.0,0.0,0.0,0.0,0.0,0.0,0.0,0.0,0.0,0.0,0.0,0.0,0.0,0.0,0.0,0.0,0.0,0.0,0.0,0.0,0.0,0.0,0.0,0.0,0.0,0.0,0.0,0.0,0.0,0.0,0.0,0.0,0.0,0.0,0.0,0.0,0.0,0.0,0.0,0.0,0.0,0.0,0.0,0.0,0.0,0.0,0.0,0.0,0.0,0.0,0.0,0.0,0.0,0.0,0.0,0.0,0.0,0.0,0.0,0.0,0.0,0.0,0.0,-1.6935,0.0,0.0,0.0,0.0,0.0,0.0,0.0,0.0,0.0,0.0,0.0,0.0,0.0,0.0,0.0,0.0,0.0,0.0,0.0,0.0,0.0,0.0,0.0,0.0,0.0,0.0,0.0,0.0,0.0,0.0,0.0,0.0,0.0,0.0,0.0,0.0,0.0,0.0,0.0,0.0,0.0,0.0,0.0,0.0,0.0,0.0,0.0,0.0,0.0,0.0,0.0,0.0,0.0,0.0,0.0,0.0,0.0,0.0,0.0,0.0,0.0,0.0,0.0,0.0,0.0,0.0,0.0,0.0,0.0,0.0,0.0,0.0,0.0,0.0,0.0,0.0,0.0,0.0,0.0,0.0,0.0,0.0,0.0,0.0,0.0,0.0,0.0,0.0,0.0,0.0,0.0,0.0,0.0,0.0,0.0,0.0,0.0,0.0,0.0,0.0,0.0,0.0,0.0,0.0,0.0,0.0,0.0,0.0,0.0,0.0,-2.0746,-2.1473,-2.0474,-1.9452,-1.8482,0.0,0.0,0.0,0.0,0.0,0.0,0.0,0.0,0.0,0.0,0.0,0.0,0.0,0.0,0.0,0.0,0.0,0.0,0.0,0.0,0.0,0.0,0.0,0.0,0.0,0.0,0.0,0.0,0.0,0.0,0.0,0.0,0.0,0.0,0.0,0.0,0.0,0.0,0.0,0.0,0.0,0.0,0.0,0.0,0.0,0.0,0.0,0.0,0.0,0.0,0.0,0.0,0.0,0.0,0.0,0.0,0.0,0.0,0.0,0.0,0.0,0.0,0.0,0.0,0.0,0.0,0.0,0.0,0.0,0.0,0.0,0.0,0.0,0.0,0.0,0.0,0.0,0.0,0.0,0.0,0.0,0.0,0.0,0.0,0.0,0.0,0.0,0.0,0.0,0.0,0.0,0.0,0.0,0.0,0.0,0.0,0.0,0.0,0.0,0.0,0.0,0.0,0.0,0.0,0.0,0.0,0.0,0.0,0.0,0.0,0.0,0.0,-2.2129,-2.1163,-1.9803,0.0,0.0,0.0,0.0,0.0,0.0,0.0,0.0,0.0,0.0,0.0,0.0,0.0,0.0,0.0,0.0,0.0,0.0,0.0,0.0,0.0,0.0,0.0,0.0,0.0,0.0,0.0,0.0,0.0,0.0,0.0,0.0,0.0,0.0,0.0,0.0,0.0,0.0,0.0,0.0,0.0,0.0,0.0,0.0,0.0,0.0,0.0,0.0,0.0,0.0,0.0,0.0,0.0,0.0,0.0,0.0,0.0,0.0,0.0,0.0,0.0,0.0,0.0,0.0,0.0,0.0,0.0,0.0,0.0,0.0,0.0,0.0,0.0,0.0,0.0,0.0,0.0,0.0,0.0,0.0,0.0,0.0,0.0,0.0,0.0,0.0,0.0,0.0,0.0,0.0,0.0,0.0,0.0,0.0,0.0,0.0,0.0,0.0,0.0,0.0,0.0,0.0,0.0,0.0,0.0,0.0,0.0,0.0,0.0,0.0,-2.2727,-2.4285,-2.39,0.0,-2.0219,0.0,0.0,0.0,0.0,0.0,0.0,0.0,0.0,0.0,0.0,0.0,0.0,0.0,0.0,0.0,0.0,0.0,0.0,0.0,0.0,0.0,0.0,0.0,0.0,0.0,0.0,0.0,0.0,0.0,0.0,0.0,0.0,0.0,0.0,0.0,0.0,0.0,0.0,0.0,0.0,0.0,0.0,0.0,0.0,0.0,0.0,0.0,0.0,0.0,0.0,0.0,0.0,0.0,0.0,0.0,0.0,0.0,0.0,0.0,0.0,0.0,0.0,0.0,0.0,0.0,0.0,0.0,0.0,0.0,0.0,0.0,0.0,0.0,0.0,0.0,0.0,0.0,0.0,0.0,0.0,0.0,0.0,0.0,0.0,0.0,0.0,0.0,0.0,0.0,0.0,0.0,0.0,0.0,0.0,0.0,0.0,0.0,0.0,0.0,0.0,0.0,0.0,0.0,0.0,0.0,0.0,0.0,0.0,0.0,0.0,-2.3923,-2.4909,-2.366,-2.2554,0.0,0.0,0.0,0.0,0.0,0.0,0.0,0.0,0.0,0.0,0.0,0.0,0.0,0.0,0.0,0.0,0.0,0.0,0.0,0.0,0.0,0.0,0.0,0.0,0.0,0.0,0.0,0.0,0.0,0.0,0.0,0.0,0.0,0.0,0.0,0.0,0.0,0.0,0.0,0.0,0.0,0.0,0.0,0.0,0.0,0.0,0.0,0.0,0.0,0.0,0.0,0.0,0.0,0.0,0.0,0.0,0.0,0.0,0.0,0.0,0.0,0.0,0.0,0.0,0.0,0.0,0.0,0.0,0.0,0.0,0.0,0.0,0.0,0.0,0.0,0.0,0.0,0.0,0.0,0.0,0.0,0.0,0.0,0.0,0.0,0.0,0.0,0.0,0.0,0.0,0.0,0.0,0.0,0.0,0.0,0.0,0.0,0.0,0.0,0.0,0.0,0.0,0.0,0.0,0.0,0.0,0.0,0.0,0.0,0.0,-2.4247,-2.4925,-2.5535,-2.4198,-2.3205,-2.2924,0.0,0.0,0.0,0.0,0.0,0.0,0.0,0.0,0.0,0.0,0.0,0.0,0.0,0.0,0.0,0.0,0.0,0.0,0.0,0.0,0.0,0.0,0.0,0.0,0.0,0.0,0.0,0.0,0.0,0.0,0.0,0.0,0.0,0.0,0.0,0.0,0.0,0.0,0.0,0.0,0.0,0.0,0.0,0.0,0.0,0.0,0.0,0.0,0.0,0.0,0.0,0.0,0.0,0.0,0.0,0.0,0.0,0.0,0.0,0.0,0.0,0.0,0.0,0.0,0.0,0.0,0.0,0.0,0.0,0.0,0.0,0.0,0.0,0.0,0.0,0.0,0.0,0.0,0.0,0.0,0.0,0.0,0.0,0.0,0.0,0.0,0.0,0.0,0.0,0.0,0.0,0.0,0.0,0.0,0.0,0.0,0.0,0.0,0.0,0.0,0.0,0.0,0.0,0.0,0.0,0.0,0.0,0.0,-2.5077,-2.517,-2.5655,-2.6695,-2.6452,-2.5244,0.0,0.0,0.0,0.0,0.0,0.0,0.0,0.0,0.0,0.0,0.0,0.0,0.0,0.0,0.0,0.0,0.0,0.0,0.0,0.0,0.0,0.0,0.0,0.0,0.0,0.0,0.0,0.0,0.0,0.0,0.0,0.0,0.0,0.0,0.0,0.0,0.0,0.0,0.0,0.0,0.0,0.0,0.0,0.0,0.0,0.0,0.0,0.0,0.0,0.0,0.0,0.0,0.0,0.0,0.0,0.0,0.0,0.0,0.0,0.0,0.0,0.0,0.0,0.0,0.0,0.0,0.0,0.0,0.0,0.0,0.0,0.0,0.0,0.0,0.0,0.0,0.0,0.0,0.0,0.0,0.0,0.0,0.0,0.0,0.0,0.0,0.0,0.0,0.0,0.0,0.0,0.0,0.0,0.0,0.0,0.0,0.0,0.0,0.0,0.0,0.0,0.0,0.0,0.0,0.0,0.0,0.0,0.0,0.0,-2.5047,-2.5772,-2.6572,-2.7271,-2.5423,-2.408,0.0,0.0,0.0,0.0,0.0,0.0,0.0,0.0,0.0,0.0,0.0,0.0,0.0,0.0,0.0,0.0,0.0,0.0,0.0,0.0,0.0,0.0,0.0,0.0,0.0,0.0,0.0,0.0,0.0,0.0,0.0,0.0,0.0,0.0,0.0,0.0,0.0,0.0,0.0,0.0,0.0,0.0,0.0,0.0,0.0,0.0,0.0,0.0,0.0,0.0,0.0,0.0,0.0,0.0,0.0,0.0,0.0,0.0,0.0,0.0,0.0,0.0,0.0,0.0,0.0,0.0,0.0,0.0,0.0,0.0,0.0,0.0,0.0,0.0,0.0,0.0,0.0,0.0,0.0,0.0,0.0,0.0,0.0,0.0,0.0,0.0,0.0,0.0,0.0,0.0,0.0,0.0,0.0,0.0,0.0,0.0,0.0,0.0,0.0,0.0,0.0,0.0,0.0,0.0,0.0,0.0,0.0,0.0,0.0,-2.5892,0.0,-2.7589,-2.788,-2.5616,-2.4146,0.0,0.0,0.0,0.0,0.0,0.0,0.0,0.0,0.0,0.0,0.0,0.0,0.0,0.0,0.0,0.0,0.0,0.0,0.0,0.0,0.0,0.0,0.0,0.0,0.0,0.0,0.0,0.0,0.0,0.0,0.0,0.0,0.0,0.0,0.0,0.0,0.0,0.0,0.0,0.0,0.0,0.0,0.0,0.0,0.0,0.0,0.0,0.0,0.0,0.0,0.0,0.0,0.0,0.0,0.0,0.0,0.0,0.0,0.0,0.0,0.0,0.0,0.0,0.0,0.0,0.0,0.0,0.0,0.0,0.0,0.0,0.0,0.0,0.0,0.0,0.0,0.0,0.0,0.0,0.0,0.0,0.0,0.0,0.0,0.0,0.0,0.0,0.0,0.0,0.0,0.0,0.0,0.0,0.0,0.0,0.0,0.0,0.0,0.0,0.0,0.0,0.0,0.0,0.0,0.0,0.0,0.0,0.0,-2.5342,-2.768,-2.8387,-2.8637,-2.8595,-2.7258,-2.5659,0.0,0.0,0.0,0.0,0.0,0.0,0.0,0.0,0.0,0.0,0.0,0.0,0.0,0.0,0.0,0.0,0.0,0.0,0.0,0.0,0.0,0.0,0.0,0.0,0.0,0.0,0.0,0.0,0.0,0.0,0.0,0.0,0.0,0.0,0.0,0.0,0.0,0.0,0.0,0.0,0.0,0.0,0.0,0.0,0.0,0.0,0.0,0.0,0.0,0.0,0.0,0.0,0.0,0.0,0.0,0.0,0.0,0.0,0.0,0.0,0.0,0.0,0.0,0.0,0.0,0.0,0.0,0.0,0.0,0.0,0.0,0.0,0.0,0.0,0.0,0.0,0.0,0.0,0.0,0.0,0.0,0.0,0.0,0.0,0.0,0.0,0.0,0.0,0.0,0.0,0.0,0.0,0.0,0.0,0.0,0.0,0.0,0.0,0.0,0.0,0.0,0.0,0.0,0.0,0.0,0.0,0.0,0.0,0.0,-2.772,-2.8747,-2.9312,-2.9217,-2.7612,-2.5973,0.0,0.0,0.0,0.0,0.0,0.0,0.0,0.0,0.0,0.0,0.0,0.0,0.0,0.0,0.0,0.0,0.0,0.0,0.0,0.0,0.0,0.0,0.0,0.0,0.0,0.0,0.0,0.0,0.0,0.0,0.0,0.0,0.0,0.0,0.0,0.0,0.0,0.0,0.0,0.0,0.0,0.0,0.0,0.0,0.0,0.0,0.0,0.0,0.0,0.0,0.0,0.0,0.0,0.0,0.0,0.0,0.0,0.0,0.0,0.0,0.0,0.0,0.0,0.0,0.0,0.0,0.0,0.0,0.0,0.0,0.0,0.0,0.0,0.0,0.0,0.0,0.0,0.0,0.0,0.0,0.0,0.0,0.0,0.0,0.0,0.0,0.0,0.0,0.0,0.0,0.0,0.0,0.0,0.0,0.0,0.0,0.0,0.0,0.0,0.0,0.0,0.0,0.0,0.0,0.0,0.0,0.0,0.0,0.0,-2.8419,-2.96,-3.0152,-2.9937,-2.8329,-2.6787,-2.5269,0.0,0.0,0.0,0.0,0.0,0.0,0.0,0.0,0.0,0.0,0.0,0.0,0.0,0.0,0.0,0.0,0.0,0.0,0.0,0.0,0.0,0.0,0.0,0.0,0.0,0.0,0.0,0.0,0.0,0.0,0.0,0.0,0.0,0.0,0.0,0.0,0.0,0.0,0.0,0.0,0.0,0.0,0.0,0.0,0.0,0.0,0.0,0.0,0.0,0.0,0.0,0.0,0.0,0.0,0.0,0.0,0.0,0.0,0.0,0.0,0.0,0.0,0.0,0.0,0.0,0.0,0.0,0.0,0.0,0.0,0.0,0.0,0.0,0.0,0.0,0.0,0.0,0.0,0.0,0.0,0.0,0.0,0.0,0.0,0.0,0.0,0.0,0.0,0.0,0.0,0.0,0.0,0.0,0.0,0.0,0.0,0.0,0.0,0.0,0.0,0.0,0.0,0.0,0.0,0.0,0.0,0.0,0.0,-2.9427,-3.0749,-3.1071,-3.0483,-2.9386,-2.7979,0.0,0.0,0.0,0.0,0.0,0.0,0.0,0.0,0.0,0.0,0.0,0.0,0.0,0.0,0.0,0.0,0.0,0.0,0.0,0.0,0.0,0.0,0.0,0.0,0.0,0.0,0.0,0.0,0.0,0.0,0.0,0.0,0.0,0.0,0.0,0.0,0.0,0.0,0.0,0.0,0.0,0.0,0.0,0.0,0.0,0.0,0.0,0.0,0.0,0.0,0.0,0.0,0.0,0.0,0.0,0.0,0.0,0.0,0.0,0.0,0.0,0.0,0.0,0.0,0.0,0.0,0.0,0.0,0.0,0.0,0.0,0.0,0.0,0.0,0.0,0.0,0.0,0.0,0.0,0.0,0.0,0.0,0.0,0.0,0.0,0.0,0.0,0.0,0.0,0.0,0.0,0.0,0.0,0.0,0.0,0.0,0.0,0.0,0.0,0.0,0.0,0.0,0.0,0.0,0.0,0.0,0.0,0.0,0.0,-2.9939,-3.0433,-3.0838,-3.1105,-3.0385,-2.9258,0.0,0.0,0.0,0.0,0.0,0.0,0.0,0.0,0.0,0.0,0.0,0.0,0.0,0.0,0.0,0.0,0.0,0.0,0.0,0.0,0.0,0.0,0.0,0.0,0.0,0.0,0.0,0.0,0.0,0.0,0.0,0.0,0.0,0.0,0.0,0.0,0.0,0.0,0.0,0.0,0.0,0.0,0.0,0.0,0.0,0.0,0.0,0.0,0.0,0.0,0.0,0.0,0.0,0.0,0.0,0.0,0.0,0.0,0.0,0.0,0.0,0.0,0.0,0.0,0.0,0.0,0.0,0.0,0.0,0.0,0.0,0.0,0.0,0.0,0.0,0.0,0.0,0.0,0.0,0.0,0.0,0.0,0.0,0.0,0.0,0.0,0.0,0.0,0.0,0.0,0.0,0.0,0.0,0.0,0.0,0.0,0.0,0.0,0.0,0.0,0.0,0.0,0.0,0.0,0.0,0.0,0.0,0.0,-2.949,-2.9706,-3.031,-3.0752,-3.0881,-3.0284,-2.9404,0.0,0.0,0.0,0.0,0.0,0.0,0.0,0.0,0.0,0.0,0.0,0.0,0.0,0.0,0.0,0.0,0.0,0.0,0.0,0.0,0.0,0.0,0.0,0.0,0.0,0.0,0.0,0.0,0.0,0.0,0.0,0.0,0.0,0.0,0.0,0.0,0.0,0.0,0.0,0.0,0.0,0.0,0.0,0.0,0.0,0.0,0.0,0.0,0.0,0.0,0.0,0.0,0.0,0.0,0.0,0.0,0.0,0.0,0.0,0.0,0.0,0.0,0.0,0.0,0.0,0.0,0.0,0.0,0.0,0.0,0.0,0.0,0.0,0.0,0.0,0.0,0.0,0.0,0.0,0.0,0.0,0.0,0.0,0.0,0.0,0.0,0.0,0.0,0.0,0.0,0.0,0.0,0.0,0.0,0.0,0.0,0.0,0.0,0.0,0.0,0.0,0.0,0.0,0.0,0.0,0.0,0.0,0.0,-2.9323,-2.9198,-3.0291,-3.0638,-3.007,-2.9681,-2.9035,0.0,0.0,0.0,0.0,0.0,0.0,0.0,0.0,0.0,0.0,0.0,0.0,0.0,0.0,0.0,0.0,0.0,0.0,0.0,0.0,0.0,0.0,0.0,0.0,0.0,0.0,0.0,0.0,0.0,0.0,0.0,0.0,0.0,0.0,0.0,0.0,0.0,0.0,0.0,0.0,0.0,0.0,0.0,0.0,0.0,0.0,0.0,0.0,0.0,0.0,0.0,0.0,0.0,0.0,0.0,0.0,0.0,0.0,0.0,0.0,0.0,0.0,0.0,0.0,0.0,0.0,0.0,0.0,0.0,0.0,0.0,0.0,0.0,0.0,0.0,0.0,0.0,0.0,0.0,0.0,0.0,0.0,0.0,0.0,0.0,0.0,0.0,0.0,0.0,0.0,0.0,0.0,0.0,0.0,0.0,0.0,0.0,0.0,0.0,0.0,0.0,0.0,0.0,0.0,0.0,0.0,0.0,0.0,-2.9324,-2.9633,-2.9543,-2.9577,-2.9691,-2.9785,-2.9503,0.0,0.0,0.0,0.0,0.0,0.0,0.0,0.0,0.0,0.0,0.0,0.0,0.0,0.0,0.0,0.0,0.0,0.0,0.0,0.0,0.0,0.0,0.0,0.0,0.0,0.0,0.0,0.0,0.0,0.0,0.0,0.0,0.0,0.0,0.0,0.0,0.0,0.0,0.0,0.0,0.0,0.0,0.0,0.0,0.0,0.0,0.0,0.0,-2.619,0.0,0.0,0.0,0.0,0.0,0.0,0.0,0.0,0.0,0.0,0.0,0.0,0.0,0.0,0.0,0.0,0.0,0.0,0.0,0.0,0.0,0.0,0.0,0.0,0.0,0.0,0.0,0.0,0.0,0.0,0.0,0.0,0.0,0.0,0.0,0.0,0.0,0.0,0.0,0.0,0.0,0.0,0.0,0.0,0.0,0.0,0.0,0.0,0.0,0.0,0.0,0.0,0.0,0.0,0.0,0.0,0.0,0.0,0.0,-2.9106,-2.975,-2.9348,-2.9241,-2.9601,-2.9406,-2.9069,0.0,0.0,0.0,0.0,0.0,0.0,0.0,0.0,0.0,0.0,0.0,0.0,0.0,0.0,0.0,0.0,0.0,0.0,0.0,0.0,0.0,0.0,0.0,0.0,0.0,0.0,0.0,0.0,0.0,0.0,0.0,0.0,0.0,0.0,0.0,0.0,0.0,0.0,0.0,0.0,0.0,0.0,0.0,0.0,0.0,0.0,0.0,0.0,0.0,0.0,0.0,0.0,0.0,0.0,0.0,0.0,0.0,0.0,0.0,0.0,0.0,0.0,0.0,0.0,0.0,0.0,0.0,0.0,0.0,0.0,0.0,0.0,0.0,0.0,0.0,0.0,0.0,0.0,0.0,0.0,0.0,0.0,0.0,0.0,0.0,0.0,0.0,0.0,0.0,0.0,0.0,0.0,0.0,0.0,0.0,0.0,0.0,0.0,0.0,0.0,0.0,0.0,0.0,0.0,0.0,0.0,0.0,-2.8171,-2.8949,-2.9705,-2.9348,-2.9287,-2.9524,-2.8919,-2.8334,-2.7775,0.0,0.0,0.0,0.0,0.0,0.0,0.0,0.0,0.0,0.0,0.0,0.0,0.0,0.0,0.0,0.0,0.0,0.0,0.0,0.0,0.0,0.0,0.0,0.0,0.0,0.0,0.0,0.0,0.0,0.0,0.0,0.0,0.0,0.0,0.0,0.0,0.0,0.0,-2.3683,-2.543,0.0,0.0,0.0,0.0,0.0,0.0,0.0,0.0,-2.7777,0.0,0.0,0.0,0.0,0.0,0.0,0.0,0.0,0.0,0.0,0.0,0.0,0.0,0.0,0.0,0.0,0.0,0.0,0.0,0.0,0.0,0.0,0.0,0.0,0.0,0.0,0.0,0.0,0.0,0.0,0.0,0.0,0.0,0.0,0.0,0.0,0.0,0.0,0.0,0.0,0.0,0.0,0.0,0.0,0.0,0.0,0.0,0.0,0.0,0.0,0.0,0.0,0.0,0.0,0.0,0.0,-2.7748,-2.8726,-2.9323,-2.9435,-2.9496,-2.9435,-2.9255,-2.8415,-2.7825,-2.7625,0.0,0.0,0.0,0.0,0.0,0.0,0.0,0.0,0.0,0.0,0.0,0.0,0.0,0.0,0.0,0.0,0.0,0.0,0.0,0.0,0.0,0.0,0.0,0.0,0.0,0.0,0.0,0.0,0.0,0.0,0.0,0.0,0.0,0.0,0.0,0.0,0.0,0.0,0.0,-2.6922,-2.781,0.0,0.0,0.0,0.0,0.0,0.0,0.0,0.0,-2.7847,0.0,0.0,0.0,0.0,0.0,0.0,0.0,0.0,0.0,0.0,0.0,0.0,0.0,0.0,0.0,0.0,0.0,0.0,0.0,0.0,0.0,0.0,0.0,0.0,0.0,0.0,0.0,0.0,0.0,0.0,0.0,0.0,0.0,0.0,0.0,0.0,0.0,0.0,0.0,0.0,0.0,0.0,0.0,0.0,0.0,0.0,0.0,0.0,0.0,0.0,0.0,0.0,0.0,0.0,0.0,-2.7457,-2.8221,-2.8968,-2.9451,-2.9012,-2.8919,-2.9178,-2.8271,-2.7725,0.0,0.0,0.0,0.0,0.0,0.0,0.0,0.0,0.0,0.0,0.0,0.0,0.0,0.0,0.0,0.0,0.0,0.0,0.0,0.0,0.0,0.0,0.0,0.0,0.0,0.0,0.0,0.0,0.0,0.0,0.0,0.0,0.0,0.0,0.0,0.0,0.0,0.0,0.0,0.0,-2.752,-2.8354,-2.871,0.0,0.0,0.0,0.0,0.0,0.0,-2.8806,-2.8645,0.0,0.0,0.0,0.0,0.0,0.0,0.0,0.0,0.0,0.0,0.0,0.0,0.0,0.0,0.0,0.0,0.0,0.0,0.0,0.0,0.0,0.0,0.0,0.0,0.0,0.0,0.0,0.0,0.0,0.0,0.0,0.0,0.0,0.0,0.0,0.0,0.0,0.0,0.0,0.0,0.0,0.0,0.0,0.0,0.0,0.0,0.0,0.0,0.0,0.0,0.0,0.0,0.0,0.0,0.0,-2.6957,-2.7674,-2.8497,-2.9257,-2.8542,-2.8383,-2.8965,-2.8174,-2.7725,0.0,0.0,0.0,0.0,0.0,0.0,0.0,0.0,0.0,0.0,0.0,0.0,0.0,0.0,0.0,0.0,0.0,0.0,0.0,0.0,0.0,0.0,0.0,0.0,0.0,0.0,0.0,0.0,0.0,0.0,0.0,0.0,0.0,0.0,0.0,0.0,0.0,0.0,0.0,0.0,0.0,-2.8847,-2.894,-2.8925,0.0,0.0,0.0,0.0,-2.975,-2.9343,0.0,0.0,0.0,0.0,0.0,0.0,0.0,0.0,0.0,0.0,0.0,0.0,0.0,0.0,0.0,0.0,0.0,0.0,0.0,0.0,0.0,0.0,0.0,0.0,0.0,0.0,0.0,0.0,0.0,0.0,0.0,0.0,0.0,0.0,0.0,0.0,0.0,0.0,0.0,0.0,0.0,0.0,0.0,0.0,0.0,0.0,0.0,0.0,0.0,0.0,0.0,0.0,0.0,0.0,0.0,0.0,-2.6691,-2.7703,-2.832,-2.8449,-2.8415,-2.8415,-2.8384,-2.7894,-2.7625,0.0,0.0,0.0,0.0,0.0,0.0,0.0,0.0,0.0,0.0,0.0,0.0,0.0,0.0,0.0,0.0,0.0,0.0,0.0,0.0,0.0,0.0,0.0,0.0,0.0,0.0,0.0,0.0,0.0,0.0,0.0,0.0,0.0,0.0,0.0,0.0,0.0,0.0,0.0,0.0,0.0,-2.9501,-2.9427,-2.945,-2.9484,0.0,0.0,-3.0237,-2.9848,-2.9627,0.0,0.0,0.0,0.0,0.0,0.0,0.0,0.0,0.0,0.0,0.0,0.0,0.0,0.0,0.0,0.0,0.0,0.0,0.0,0.0,0.0,0.0,0.0,0.0,0.0,0.0,0.0,0.0,0.0,0.0,0.0,0.0,0.0,0.0,0.0,0.0,0.0,0.0,0.0,0.0,0.0,0.0,0.0,0.0,0.0,0.0,0.0,0.0,0.0,0.0,0.0,0.0,0.0,0.0,0.0,-2.7287,-2.6632,-2.7473,-2.8106,-2.84,-2.814,-2.8091,-2.8288,-2.753,-2.71,0.0,0.0,0.0,0.0,0.0,0.0,0.0,0.0,0.0,0.0,0.0,0.0,0.0,0.0,0.0,0.0,0.0,0.0,0.0,0.0,0.0,0.0,0.0,0.0,0.0,0.0,0.0,0.0,0.0,0.0,0.0,0.0,0.0,0.0,0.0,0.0,0.0,0.0,0.0,0.0,0.0,0.0,-2.9915,-2.9971,0.0,0.0,0.0,-2.9659,-2.9185,0.0,0.0,0.0,0.0,0.0,0.0,0.0,0.0,0.0,0.0,0.0,0.0,0.0,0.0,0.0,0.0,0.0,0.0,0.0,0.0,0.0,0.0,0.0,0.0,0.0,0.0,0.0,0.0,0.0,0.0,0.0,0.0,0.0,0.0,0.0,0.0,0.0,0.0,0.0,0.0,0.0,0.0,0.0,0.0,0.0,0.0,0.0,0.0,0.0,0.0,0.0,0.0,0.0,0.0,0.0,0.0,0.0,-2.6439,-2.7164,-2.781,-2.8222,-2.781,-2.7745,-2.8125,-2.7225,0.0,0.0,0.0,0.0,0.0,0.0,0.0,0.0,0.0,0.0,0.0,0.0,0.0,0.0,0.0,0.0,0.0,0.0,0.0,0.0,0.0,0.0,0.0,0.0,0.0,0.0,0.0,-1.9466,0.0,0.0,0.0,0.0,0.0,0.0,0.0,0.0,0.0,0.0,0.0,0.0,0.0,0.0,-2.9666,-2.984,-2.995,-2.9861,0.0,0.0,-2.9114,-2.8659,-2.8592,-2.8771,0.0,0.0,0.0,0.0,0.0,0.0,0.0,0.0,0.0,0.0,0.0,0.0,0.0,0.0,0.0,0.0,0.0,0.0,0.0,0.0,0.0,0.0,0.0,0.0,0.0,0.0,0.0,0.0,0.0,0.0,0.0,0.0,0.0,0.0,0.0,0.0,0.0,0.0,0.0,0.0,0.0,0.0,0.0,0.0,0.0,0.0,0.0,0.0,0.0,0.0,0.0,0.0,0.0,0.0,-2.703,-2.5953,-2.7015,-2.7625,-2.766,-2.7625,-2.7625,-2.7625,-2.7034,-2.6683,0.0,0.0,0.0,0.0,0.0,0.0,0.0,0.0,0.0,0.0,0.0,0.0,0.0,0.0,0.0,0.0,0.0,0.0,0.0,0.0,0.0,0.0,0.0,0.0,0.0,0.0,0.0,0.0,0.0,0.0,0.0,0.0,0.0,0.0,0.0,0.0,0.0,0.0,0.0,0.0,0.0,-2.9355,-2.8794,-2.9088,-2.919,0.0,-2.8991,-2.9114,-2.8696,-2.8592,-2.8622,-2.8667,0.0,0.0,0.0,0.0,0.0,0.0,0.0,0.0,0.0,0.0,0.0,0.0,0.0,0.0,0.0,0.0,0.0,0.0,0.0,0.0,0.0,0.0,0.0,0.0,0.0,0.0,0.0,0.0,0.0,0.0,0.0,0.0,0.0,0.0,0.0,0.0,0.0,0.0,0.0,0.0,0.0,0.0,0.0,0.0,0.0,0.0,0.0,0.0,0.0,0.0,0.0,0.0,0.0,-2.698,-2.5691,-2.695,-2.756,-2.756,-2.756,-2.7408,-2.7049,-2.6443,-2.6014,0.0,0.0,0.0,0.0,0.0,0.0,0.0,0.0,0.0,0.0,0.0,0.0,0.0,0.0,0.0,0.0,0.0,0.0,0.0,0.0,0.0,0.0,0.0,0.0,0.0,0.0,0.0,0.0,-2.2052,-2.2382,-2.3127,0.0,0.0,0.0,0.0,0.0,0.0,0.0,0.0,0.0,0.0,-2.9432,-2.9082,-2.9215,0.0,0.0,-2.8976,-2.9011,-2.8126,-2.8308,-2.8457,-2.8038,-2.8338,0.0,0.0,0.0,0.0,0.0,0.0,0.0,0.0,0.0,0.0,0.0,0.0,0.0,0.0,0.0,0.0,0.0,0.0,0.0,0.0,0.0,0.0,0.0,0.0,0.0,0.0,0.0,0.0,0.0,0.0,0.0,0.0,0.0,0.0,0.0,0.0,0.0,0.0,0.0,0.0,0.0,0.0,0.0,0.0,0.0,0.0,0.0,0.0,0.0,0.0,0.0,0.0,-2.7021,-2.5914,-2.7055,-2.7524,-2.7306,-2.7306,-2.7049,-2.6443,-2.5851,-2.537,0.0,0.0,0.0,0.0,0.0,0.0,0.0,0.0,0.0,0.0,0.0,0.0,0.0,0.0,0.0,0.0,0.0,0.0,0.0,0.0,0.0,0.0,0.0,0.0,0.0,0.0,0.0,0.0,-2.2573,-2.277,-2.3458,0.0,0.0,0.0,0.0,0.0,0.0,0.0,0.0,0.0,0.0,-2.9079,-2.8763,-2.8758,-2.8672,-2.8329,-2.8752,-2.8809,-2.8,-2.8271,-2.8379,-2.7906,0.0,0.0,0.0,0.0,0.0,0.0,0.0,0.0,0.0,0.0,0.0,0.0,0.0,0.0,0.0,0.0,0.0,0.0,0.0,0.0,0.0,0.0,0.0,0.0,0.0,0.0,0.0,0.0,0.0,0.0,-2.3289,0.0,0.0,0.0,0.0,0.0,0.0,0.0,0.0,0.0,0.0,0.0,0.0,0.0,0.0,0.0,0.0,0.0,0.0,0.0,0.0,0.0,0.0,-2.7215,-2.6587,-2.7215,-2.7306,-2.6736,-2.6721,-2.6457,-2.5837,-2.5328,-2.5005,-2.4948,0.0,0.0,0.0,0.0,0.0,0.0,0.0,0.0,0.0,0.0,0.0,0.0,0.0,0.0,0.0,0.0,0.0,0.0,0.0,0.0,0.0,0.0,0.0,0.0,0.0,0.0,-2.304,-2.3113,-2.3185,0.0,0.0,0.0,0.0,0.0,0.0,0.0,0.0,0.0,0.0,-2.8231,-2.8114,-2.7586,-2.7569,-2.7685,-2.7649,-2.8188,-2.8607,-2.8525,-2.8422,-2.8297,0.0,0.0,0.0,0.0,0.0,0.0,0.0,0.0,0.0,0.0,0.0,0.0,0.0,0.0,0.0,0.0,0.0,0.0,0.0,0.0,0.0,0.0,0.0,0.0,0.0,0.0,0.0,-2.5027,-2.47,0.0,0.0,0.0,0.0,0.0,0.0,0.0,0.0,0.0,0.0,0.0,-2.6676,-2.7324,0.0,0.0,0.0,0.0,0.0,0.0,0.0,0.0,0.0,0.0,0.0,0.0,-2.622,-2.6044,-2.6255,-2.6336,-2.6122,-2.6122,-2.5851,-2.5272,-2.5118,-2.4509,-2.3551,0.0,0.0,0.0,0.0,0.0,0.0,0.0,0.0,0.0,0.0,0.0,0.0,0.0,0.0,0.0,0.0,0.0,0.0,0.0,0.0,0.0,0.0,0.0,0.0,0.0,-2.3125,0.0,0.0,0.0,0.0,0.0,0.0,0.0,0.0,0.0,0.0,0.0,-2.8684,-2.7576,-2.8261,-2.8591,-2.7956,-2.7565,-2.7461,0.0,0.0,0.0,0.0,0.0,0.0,0.0,0.0,0.0,0.0,0.0,0.0,0.0,0.0,-2.9292,-2.8724,-2.9016,-2.9281,-2.9267,0.0,0.0,0.0,0.0,0.0,0.0,0.0,0.0,0.0,0.0,0.0,0.0,0.0,0.0,-2.5615,0.0,-2.5262,0.0,0.0,0.0,0.0,0.0,0.0,0.0,0.0,-2.6713,-2.6959,-2.697,-2.7407,-2.7584,0.0,-2.7578,-2.7552,0.0,0.0,0.0,0.0,0.0,0.0,0.0,0.0,-2.5744,-2.5721,-2.5788,-2.5687,-2.5522,-2.5522,-2.5258,-2.4721,-2.4465,-2.3859,-2.2822,-2.2395,-2.1982,0.0,0.0,0.0,0.0,0.0,0.0,0.0,0.0,0.0,0.0,0.0,0.0,0.0,0.0,0.0,0.0,0.0,0.0,0.0,0.0,0.0,0.0,0.0,-2.275,0.0,0.0,0.0,0.0,0.0,0.0,0.0,0.0,0.0,-2.8012,-2.8778,-2.8727,-2.7449,-2.8039,-2.8397,-2.7795,0.0,0.0,0.0,0.0,0.0,0.0,0.0,-2.8393,-2.7366,-2.7837,-2.8173,-2.7541,-2.8402,-2.9117,-2.8895,0.0,0.0,-2.9111,-2.9387,-2.9652,-2.9665,-3.0329,-3.0751,-3.0352,-3.0722,-3.0954,0.0,0.0,0.0,0.0,0.0,0.0,0.0,0.0,-2.5952,-2.589,0.0,-2.585,0.0,0.0,0.0,0.0,0.0,-2.6425,0.0,0.0,-2.7262,-2.7469,-2.751,-2.751,-2.7523,-2.7469,-2.7497,-2.7524,-2.7602,-2.7594,0.0,0.0,0.0,0.0,0.0,0.0,-2.5755,-2.5769,-2.5728,-2.5481,-2.5005,-2.4948,-2.4677,-2.4054,-2.3412,-2.2955,-2.2676,-2.162,-2.1148,-2.1506,-2.0435,0.0,0.0,0.0,0.0,0.0,0.0,0.0,0.0,0.0,0.0,0.0,0.0,0.0,0.0,0.0,0.0,0.0,0.0,0.0,0.0,-2.129,0.0,0.0,0.0,0.0,0.0,0.0,0.0,0.0,0.0,0.0,-2.7656,-2.8729,-2.9056,-2.7786,0.0,0.0,0.0,0.0,-2.6188,-2.6307,-2.6777,-2.712,-2.7116,-2.7467,-2.7696,-2.7644,0.0,0.0,-2.6546,-2.7795,-2.8674,-2.821,-2.9001,-2.9754,-2.9716,-2.9768,-2.9806,-2.9806,-2.9806,-2.9767,-2.9844,-3.0316,-3.0856,-2.8872,0.0,0.0,0.0,0.0,-2.7637,-2.743,-2.7287,-2.7092,-2.6804,-2.6438,-2.6438,0.0,0.0,0.0,0.0,0.0,0.0,-2.7288,-2.7288,-2.7458,-2.7469,-2.7469,-2.7469,-2.7469,-2.7469,-2.7469,-2.7498,-2.7538,-2.7561,-2.702,-2.6022,0.0,0.0,0.0,0.0,-2.4764,-2.5189,-2.4821,-2.4505,-2.4332,-2.4345,-2.3956,-2.3207,-2.2543,-2.1854,-2.1066,-2.0699,-2.0508,-2.0526,-1.977,0.0,0.0,0.0,0.0,0.0,0.0,0.0,0.0,0.0,0.0,0.0,0.0,0.0,0.0,0.0,0.0,0.0,0.0,0.0,-2.2016,-2.1724,-2.1858,0.0,0.0,0.0,0.0,0.0,0.0,0.0,0.0,0.0,-2.6873,-2.7577,-2.7973,0.0,0.0,-2.7166,-2.7495,-2.6284,-2.551,-2.5894,-2.5741,0.0,0.0,-2.6634,-2.7066,-2.6909,-2.6645,-2.6578,-2.6979,-2.7444,-2.7833,-2.8047,-2.8687,-2.9176,-2.9202,-2.9515,-2.9754,-2.9779,-2.9779,-2.9779,-2.9779,-3.0011,-3.0139,-2.8474,-2.8775,-2.8671,-2.8522,-2.8444,-2.8197,-2.8,-2.7868,-2.731,-2.6915,-2.6526,-2.626,-2.581,-2.5291,-2.555,0.0,0.0,0.0,-2.7323,-2.7108,-2.739,-2.7469,-2.7469,-2.7469,-2.7469,-2.7469,-2.7469,-2.7469,-2.7469,-2.7469,-2.7008,-2.6136,0.0,0.0,-2.494,-2.4563,-2.4486,-2.4607,-2.4287,-2.3982,-2.3734,-2.3365,-2.298,-2.247,-2.1741,-2.1037,-2.0333,-2.0085,-1.9835,-1.9715,-1.9152,-1.894,0.0,0.0,0.0,0.0,0.0,0.0,0.0,0.0,0.0,0.0,0.0,-1.9634,-1.9365,0.0,0.0,0.0,-2.0012,-2.0717,-2.1867,-2.1496,0.0,0.0,0.0,0.0,0.0,0.0,0.0,-2.7695,-2.7682,-2.7318,-2.6634,-2.685,-2.7113,-2.7157,-2.6656,-2.6445,-2.6903,0.0,-2.4748,-2.5088,-2.4832,-2.463,-2.4922,-2.5588,-2.6116,-2.616,-2.6382,-2.6634,-2.6879,-2.713,-2.7406,-2.7745,-2.8235,-2.8612,-2.8599,-2.9063,-2.9553,-2.9741,-2.9779,-2.9779,-2.9779,-2.9779,-2.9729,-2.7637,-2.7691,-2.8211,-2.8546,-2.8587,-2.821,-2.8013,-2.7934,-2.6837,-2.6346,-2.6277,-2.5581,-2.5023,-2.4474,-2.5154,0.0,-2.5382,-2.6688,-2.6985,-2.6346,-2.704,-2.739,-2.739,-2.739,-2.739,-2.739,-2.739,-2.739,-2.7323,-2.7323,-2.7037,-2.6557,-2.6544,-2.6035,-2.5027,-2.4909,-2.4575,-2.4008,-2.3923,-2.3603,-2.3027,-2.2249,-2.1815,-2.1753,-2.091,-2.0398,-2.0204,-1.9584,-1.9218,-1.9121,-1.8661,-1.8609,-1.8971,0.0,0.0,0.0,0.0,0.0,0.0,0.0,0.0,0.0,0.0,0.0,0.0,0.0,0.0,0.0,-2.041,0.0,-2.0648,-2.1165,0.0,0.0,0.0,-2.3837,-2.5088,-2.6127,-2.6807,-2.7117,0.0,0.0,-2.6521,-2.6383,-2.644,-2.6402,-2.59,-2.5597,-2.566,-2.4668,-2.3974,-2.4027,-2.4016,-2.3929,-2.4104,-2.4582,-2.5111,-2.5561,-2.6038,-2.6377,-2.6421,-2.6702,-2.711,-2.6921,-2.7429,-2.7802,-2.7802,-2.8176,-2.8786,-2.9272,-2.9589,-2.9691,-2.9591,-2.9566,-2.9415,-2.704,-2.702,-2.7223,-2.7846,-2.8522,-2.7934,-2.7443,-2.7136,-2.6346,-2.5861,-2.5581,-2.5382,-2.524,-2.5119,-2.5247,-2.532,-2.53,-2.5652,-2.5721,-2.5581,-2.5721,-2.6139,-2.662,-2.6701,-2.662,-2.662,-2.6701,-2.6346,-2.5861,-2.5791,-2.5591,-2.5142,-2.5117,-2.5046,-2.4988,-2.4073,-2.3479,-2.3339,-2.2859,-2.2421,-2.2175,-2.1514,-2.1008,-2.0707,-1.9966,-1.9528,-1.9386,-1.9264,-1.9142,-1.9131,-1.8961,-1.8796,-1.8547,-1.8444,0.0,0.0,0.0,0.0,0.0,0.0,0.0,0.0,0.0,-2.0503,-1.982,0.0,-2.0803,0.0,-2.041,-2.1063,-2.2767,-2.2375,0.0,0.0,-2.4086,-2.443,-2.4689,-2.5409,-2.5832,-2.5554,-2.5675,-2.5742,-2.5608,-2.5594,-2.5644,-2.5795,-2.5347,-2.5039,-2.5088,-2.4093,-2.3301,-2.3356,-2.3384,-2.3502,-2.3929,-2.4456,-2.4906,-2.5511,-2.5711,-2.5735,-2.5591,-2.5691,-2.5551,-2.5063,-2.5318,-2.571,-2.5757,-2.6182,-2.6523,-2.6789,-2.7968,-2.9001,-2.8612,-2.8524,-2.8473,-2.6089,-2.6082,-2.6222,-2.6529,-2.6985,-2.6876,-2.6744,-2.6458,-2.5545,-2.4992,-2.4707,-2.4443,-2.4299,-2.4299,-2.4647,-2.4576,-2.4299,-2.5016,-2.5075,-2.4791,-2.5158,-2.5511,-2.5918,-2.5931,-2.605,-2.6193,-2.6037,-2.5469,-2.4598,-2.4821,-2.4743,-2.428,-2.3972,-2.3965,-2.4091,-2.3443,-2.3095,-2.3088,-2.2113,-2.1502,-2.1451,-2.0624,-2.0053,-1.9835,-1.9462,-1.9208,-1.9131,-1.9131,-1.9131,-1.9131,-1.9131,-1.8911,-1.8449,-1.8439,-1.8327,0.0,0.0,0.0,0.0,0.0,0.0,0.0,0.0,0.0,0.0,0.0,-2.1321,-2.1062,-2.1228,-2.1803,-2.3019,-2.2807,-2.286,-2.3413,-2.3816,-2.4028,-2.4149,-2.4726,-2.5057,-2.5033,-2.4975,-2.4927,-2.479,-2.4578,-2.4376,-2.4261,-2.3808,-2.3772,-2.4351,-2.3659,-2.3125,-2.3125,-2.3125,-2.3226,-2.3577,-2.3816,-2.407,-2.4365,-2.4518,-2.4578,-2.446,-2.4637,-2.4636,-2.4204,-2.4349,-2.463,-2.4641,-2.5044,-2.5396,-2.5321,-2.6139,-2.7124,-2.7496,-2.7545,-2.7508,-2.5044,-2.5037,-2.5123,-2.4976,-2.4732,-2.5413,-2.5746,-2.5738,-2.4517,-2.3975,-2.3902,-2.3276,-2.3001,-2.3075,-2.3694,-2.3621,-2.3075,-2.4371,-2.4636,-2.4047,-2.4719,-2.5087,-2.5158,-2.5158,-2.5348,-2.5645,-2.5276,-2.4471,-2.3362,-2.3961,-2.3919,-2.3448,-2.2953,-2.2703,-2.2695,-2.2643,-2.2582,-2.2665,-2.1376,-2.07,-2.0711,-1.9802,-1.9274,-1.9285,-1.9142,-1.9131,-1.9142,-1.905,-1.9014,-1.9024,-1.893,-1.8793,-1.846,-1.836,-1.8237,0.0,-1.7879,0.0,0.0,0.0,0.0,0.0,0.0,0.0,0.0,-2.1766,-2.1838,-2.189,-2.2211,-2.2449,-2.2573,-2.2894,-2.2967,-2.2646,-2.2936,-2.3307,-2.3612,-2.3972,-2.436,-2.4555,-2.4585,-2.4391,-2.3929,-2.3484,-2.3097,-2.2649,-2.2356,-2.2445,-2.3317,-2.3121,-2.275,-2.2823,-2.2823,-2.2714,-2.2788,-2.2797,-2.2795,-2.2874,-2.3073,-2.3155,-2.3177,-2.3461,-2.3709,-2.3693,-2.357,-2.3688,-2.3806,-2.4215,-2.434,-2.3841,-2.426,-2.5021,-2.6083,-2.6464,-2.6416,-2.4275,-2.3914,-2.4002,-2.3865,-2.3509,-2.3427,-2.3639,-2.4166,-2.3826,-2.3508,-2.3213,-2.3065,-2.3001,-2.3001,-2.3139,-2.3139,-2.3001,-2.3287,-2.335,-2.3213,-2.3361,-2.3779,-2.4337,-2.4337,-2.4151,-2.3874,-2.3828,-2.3119,-2.1996,-2.211,-2.1945,-2.1453,-2.1152,-2.1107,-2.1243,0.0,0.0,0.0,-2.0064,-1.9802,-1.9605,-1.9407,-1.9274,-1.9142,-1.9131,0.0,-1.9085,-1.8793,-1.8636,-1.8566,-1.8318,0.0,0.0,0.0,0.0,0.0,0.0,0.0,0.0,0.0,0.0,0.0,-1.9535,-1.9628,-2.1079,-2.159,-2.1952,-2.2315,-2.2118,-2.2252,-2.2977,-2.2791,-2.2739,-2.3029,-2.3132,-2.3078,-2.2788,-2.2877,-2.2751,-2.2442,-2.2379,-2.2489,-2.2644,-2.2518,-2.2391,-2.2023,-2.197,-2.1804,-2.1649,-2.1584,-2.1502,-2.1502,-2.1565,-2.1502,-2.1502,-2.1544,-2.1638,-2.195,-2.2147,-2.2093,-2.2009,-2.2015,-2.1985,-2.1795,-2.1671,-2.1882,-2.2146,-2.2326,-2.2519,-2.2252,-2.2391,-2.2843,-2.4311,-2.4615,-2.4591,-2.3484,0.0,-2.3022,-2.2684,0.0,-2.2286,-2.2297,-2.2354,-2.2778,-2.2941,-2.3001,-2.3001,-2.3001,-2.3001,-2.3001,-2.3001,-2.3001,-2.3001,-2.3001,-2.3001,-2.3001,-2.308,-2.3212,-2.3212,-2.3059,-2.2784,-2.2576,-2.1915,-2.0928,-2.1051,-2.0845,-2.0445,-2.0234,-2.0171,-2.0194,-1.9386,-1.9198,-1.9747,-1.9539,-1.9417,-1.9285,-1.8865,-1.8596,-1.8586,0.0,0.0,0.0,0.0,0.0,0.0,0.0,0.0,0.0,0.0,0.0,-1.725,-1.7106,-1.7166,-1.761,-1.7473,-1.7909,-1.9149,-1.9091,-1.9437,-2.0681,-2.164,-2.2149,-2.2159,-2.2149,-2.2335,-2.2791,-2.2832,-2.2842,-2.2853,-2.2853,-2.2666,-2.2242,-2.2159,-2.2066,-2.1838,-2.1546,-2.1447,-2.1649,-2.1182,-2.0919,-2.0882,-2.0643,-2.0435,-2.0227,-2.0677,-2.1071,-2.1071,-2.1071,-2.1071,-2.106,-2.0805,-2.0669,-2.0927,-2.0897,-2.0815,-2.0743,-2.0909,-2.0931,-2.0814,-2.0948,-2.1207,-2.1414,-2.1642,-2.1807,-2.1807,-2.1807,-2.2025,-2.282,-2.3254,-2.3559,-2.286,-2.2726,-2.2297,-2.1737,-2.1192,-2.1541,-2.1374,-2.1005,0.0,0.0,0.0,-2.2957,-2.3001,-2.3001,-2.3001,-2.3001,-2.3001,-2.3001,-2.3001,-2.299,-2.2914,-2.2673,-2.2324,-2.2226,-2.2046,-2.1871,-2.1574,-2.0997,-2.0087,-2.0328,-2.0266,-1.9834,-1.9681,-1.9473,-1.9264,-1.8442,-1.8385,-1.9065,-1.8998,-1.8865,-1.8865,-1.8172,-1.7833,-1.7833,-1.7207,-1.7055,-1.7387,-1.7252,-1.7397,-1.7782,-1.7658,-1.7447,-1.7195,-1.722,-1.7045,-1.6706,-1.673,-1.673,-1.673,-1.673,-1.6968,-1.7683,-1.8709,-1.959,-2.0226,-2.135,-2.1812,-2.1599,-2.1916,-2.221,-2.2309,-2.2628,-2.2721,-2.2329,-2.2298,-2.2066,-2.1717,-2.1665,-2.1645,-2.1607,-2.1148,-2.0767,-2.0699,-2.0022,-1.9451,-1.9545,-1.938,-1.9075,-1.9198,-2.0031,-2.0613,-2.0613,-2.056,-2.0677,-2.0677,-2.0291,-1.9977,-1.9944,-1.9857,-1.9692,-1.9754,-1.9944,-2.0182,-2.0286,-2.0627,-2.0845,-2.099,-2.1342,-2.1662,-2.1683,-2.1756,-2.1776,-2.178,-2.2274,-2.2767,-2.2665,-2.2247,-2.1925,-2.1537,-2.1158,-2.0907,-2.0863,-2.0937,-2.1898,-2.2357,-2.2444,-2.2826,-2.3001,-2.3001,-2.3001,-2.3001,-2.3001,-2.3001,-2.3001,0.0,-2.2586,-2.2379,-2.2302,-2.1887,-2.1509,-2.1081,-2.1027,-2.0641,-1.9986,-1.9965,-1.9866,-1.9615,-1.9407,-1.8931,-1.824,-1.7482,-1.7139,-1.7276,-1.7276,-1.7207,-1.7207,-1.7139,-1.707,-1.707,-1.6941,-1.7055,-1.7378,-1.6756,-1.6719,-1.7312,-1.6748,-1.6532,-1.6782,-1.6806,-1.6764,-1.673,-1.673,-1.673,-1.673,-1.673,-1.673,-1.6968,-1.839,-1.9344,-1.9423,-1.9627,-2.0039,-2.0615,-2.0771,-2.1033,-2.1527,-2.1686,-2.1572,-2.1403,-2.1383,-2.1343,-2.1205,-2.1205,-2.1064,-2.0722,-2.0686,-2.0229,-1.9596,-1.9374,-1.9101,-1.9012,-1.8936,-1.8942,-1.9075,-1.9264,-1.9396,-1.9396,-1.9396,-1.9396,-1.9528,-1.933,-1.933,-1.9264,-1.926,-1.9287,-1.9287,-1.9303,-1.9489,-1.9789,-2.0045,-2.0151,-2.0452,-2.0897,-2.1155,-2.1228,-2.1466,-2.1611,-2.13,-2.1636,-2.1993,-2.2371,-2.2185,-2.1851,-2.1537,-2.1158,-2.0593,-2.0391,-2.0533,-2.1221,-2.168,-2.1964,-2.2411,-2.2641,-2.2663,-2.2892,-2.3001,-2.3001,-2.3001,-2.3001,-2.2968,-2.2531,-2.2182,-2.1898,-2.1428,-2.0948,-2.0489,-2.0401,-2.0017,-1.933,-1.9044,-1.871,-1.8287,-1.8094,-1.7765,-1.7345,-1.6655,-1.6315,-1.6306,-1.6724,-1.6941,-1.6862,-1.6524,-1.6315,-1.6315,-1.5895,-1.5871,-1.6173,-1.5896,-1.5922,-1.6423,-1.6252,-1.6277,-1.6436,-1.6635,-1.673,-1.673,-1.673,-1.673,-1.673,-1.673,-1.673,-1.673,-1.7448,-1.7836,-1.7747,-1.87,-1.9423,-1.9816,-1.9825,-1.9904,-2.006,-2.006,-1.9982,-1.9825,-1.9816,-1.9816,-1.9816,-1.9816,-1.9656,-1.9345,-1.9324,-1.919,-1.8711,-1.8646,-1.8733,-1.8637,-1.8617,-1.8684,-1.8741,-1.8741,-1.8808,-1.9075,-1.9131,-1.9131,-1.9065,-1.9131,-1.9131,-1.9131,-1.9131,-1.9131,-1.9131,-1.9131,-1.9168,-1.9354,-1.964,-1.9879,-2.0058,-2.0431,-2.0679,-2.0762,-2.0813,-2.0865,-2.0772,-2.104,-2.1336,-2.2197,-2.2185,-2.1851,-2.1463,-2.1031,-2.0399,-2.0085,-2.0118,-2.0555,-2.0915,-2.1319,-2.1876,-2.2215,-2.2346,-2.2684,-2.2892,-2.299,-2.2852,-2.2713,-2.2572,-2.1983,-2.151,-2.1048,-2.0576,-2.0079,-1.9637,-1.9528,-1.911,-1.8422,-1.8085,-1.7677,-1.7111,-1.6784,-1.6655,-1.6664,-1.5903,-1.5551,-1.5551,-1.6105,-1.6376,-1.6376,-1.5833,-1.5551,-1.548,-1.4919,-1.4808,-1.5157,-1.511,-1.5253,-1.565,-1.5936,-1.6126,-1.6214,-1.6547,-1.673,-1.673,-1.673,-1.673,-1.673,-1.673,-1.673,-1.673,-1.673,-1.6648,-1.6558,-1.7747,-1.87,-1.8859,-1.885,-1.8771,-1.8859,-1.878,-1.8691,-1.8532,-1.8443,-1.8532,-1.8452,-1.8443,-1.825,-1.7973,-1.7956,-1.7908,-1.7636,-1.7631,-1.7725,-1.7784,-1.7988,-1.7988,-1.7998,-1.7988,-1.8114,-1.8385,-1.8731,-1.8942,-1.9008,-1.8931,-1.9008,-1.9008,-1.8998,-1.8998,-1.8998,-1.9065,-1.9131,-1.9137,-1.9354,-1.9609,-1.9634,-1.9895,-2.0082,-2.0002,-2.0135,-2.0247,-2.0224,-2.0189,-2.072,-2.2197,-2.2123,-2.1851,-2.1273,-2.0646,-2.027,-2.0085,-2.0085,-2.014,-2.0162,-2.0347,-2.1254,-2.1887,-2.2291,-2.2357,-2.2608,-2.2894,-2.2402,-2.203,-2.1597,-2.0524,-1.9798,-1.9453,-1.8995,-1.8549,-1.8297,-1.824,-1.7949,-1.7307,-1.717,-1.7051,-1.6862,-1.6245,-1.5895,-1.5833,-1.5125,-1.4705,-1.4705,-1.4784,-1.4776,-1.4776,-1.4784,-1.4705,-1.4705,-1.4641,-1.4808,-1.5141,-1.4863,-1.499,-1.561,-1.5697,-1.5872,-1.6182,-1.654,-1.673,-1.673,-1.673,-1.673,-1.673,-1.673,-1.6656,-1.673,-1.6656,-1.6566,-1.6394,-1.6558,-1.6952,-1.7342,-1.7496,-1.7747,-1.8212,-1.8301,-1.8141,-1.7908,-1.7908,-1.8078,-1.7997,-1.8078,-1.7802,-1.7071,-1.6985,-1.6759,-1.6199,-1.6132,-1.6167,-1.6428,-1.6576,-1.6724,-1.6655,-1.6655,-1.6655,-1.6862,-1.7628,-1.8472,-1.8607,-1.8674,-1.8472,-1.8674,-1.8741,-1.8664,-1.8586,-1.8721,-1.9065,-1.8596,-1.8906,-1.892,-1.9069,-1.9353,-1.9313,-1.8923,-1.9231,-1.9917,-1.9629,-1.9206,-1.9535,-2.2197,-2.2185,-2.1862,-2.1273,-2.0646,-2.027,-1.9944,-1.9649,-1.9649,-1.9452,-1.9229,-1.9594,-2.0435,-2.1483,-2.2051,-2.2193,-2.2061,-2.205,-2.1699,-2.0935,-2.0183,-1.9585,-1.9163,-1.8506,-1.8104,-1.7969,-1.7668,-1.7101,-1.6489,-1.5869,-1.5604,-1.5542,-1.5196,-1.5133,-1.5062,-1.4776,-1.4569,-1.4569,-1.4569,-1.4569,-1.4569,-1.4569,-1.4569,-1.4569,-1.4569,-1.4624,-1.4839,-1.472,-1.4776,-1.5054,-1.5268,-1.5539,-1.588,-1.623,-1.6516,-1.6706,-1.6566,-1.6484,-1.6335,-1.6335,-1.6335,-1.6335,-1.6327,-1.6237,-1.5982,-1.5982,-1.6064,-1.6139,-1.6386,-1.6632,-1.678,-1.678,-1.6706,-1.6476,-1.6476,-1.6476,-1.6476,-1.6476,-1.621,-1.5654,-1.5819,-1.5839,-1.5297,-1.5463,-1.5675,-1.5807,-1.5877,-1.5886,-1.5956,-1.5956,-1.5956,-1.6026,-1.6515,-1.6941,-1.7276,-1.7285,-1.7285,-1.7285,-1.7354,-1.7345,-1.7413,-1.7345,-1.7404,-1.7472,-1.755,-1.755,-1.7364,-1.7499,-1.753,-1.7455,-1.7474,-1.7844,-1.7862,-1.7661,-1.8119,-2.2197,-2.2123,-2.1588,-2.0944,-2.0366,-1.9857,-1.9452,-1.91,-1.91,-1.8834,-1.8499,-1.8499,-1.9153,-2.0279,-2.1236,-2.1428,-2.1229,-2.1429,-2.109,-2.0202,-1.9614,-1.9046,-1.8527,-1.785,-1.7491,-1.7345,-1.6775,-1.6219,-1.5596,-1.4982,-1.4569,-1.4569,-1.4569,-1.4569,-1.4569,-1.4569,-1.4569,-1.4569,-1.4569,-1.4569,-1.4569,-1.4569,-1.4569,-1.4569,-1.4569,-1.4569,-1.4569,-1.4569,-1.4569,-1.4577,-1.4982,-1.5292,-1.5539,-1.596,-1.6365,-1.6601,-1.6476,-1.6319,-1.6087,-1.6095,-1.6095,-1.6095,-1.6095,-1.6004,-1.5733,-1.565,-1.5575,-1.5506,-1.568,-1.5839,-1.5665,-1.5658,-1.5582,-1.5431,-1.5431,-1.5431,-1.5431,-1.5431,-1.53,-1.4778,-1.5154,-1.5165,-1.4634,-1.4761,-1.4966,-1.5037,-1.5037,-1.5117,-1.5117,-1.5046,-1.5046,-1.5117,-1.5117,-1.5471,-1.6018,-1.6228,-1.6158,-1.6228,-1.6298,-1.6367,-1.6228,-1.6228,-1.6306,-1.6862,-1.6446,-1.6376,-1.6655,-1.6524,-1.6245,-1.6167,-1.5991,-1.5988,-1.6401,-1.6353,-1.6512,-2.2197,-2.2049,-2.0858,-2.0215,-1.9781,-1.8977,-1.8576,-1.8566,-1.8566,-1.8509,-1.8432,-1.8432,-1.8519,-1.8697,-1.9545,-2.0171,-2.0521,-2.0428,-1.9975,-1.912,-1.8517,-1.7779,-1.6963,-1.656,-1.6263,-1.6035,-1.5613,-1.5125,-1.4705,-1.4633,-1.4569,-1.4569,-1.4569,-1.4569,-1.4569,-1.4569,-1.4569,-1.4569,-1.4569,-1.4569,-1.4569,-1.4569,-1.4561,-1.4569,-1.4569,-1.4569,-1.4569,-1.4569,-1.4569,-1.4569,-1.4893,-1.5107,-1.5276,-1.5779,-1.6139,-1.6257,-1.6312,-1.6229,-1.5997,-1.5922,-1.5922,-1.6004,-1.5831,-1.5914,-1.5477,-1.5394,-1.5318,-1.534,-1.5173,-1.5249,-1.522,-1.5274,-1.5387,-1.5394,-1.5394,-1.5379,-1.5416,-1.5379,-1.5277,-1.4977,-1.4925,-1.4702,-1.4162,-1.3756,-1.3842,-1.3812,-1.3725,-1.371,-1.3848,-1.3702,-1.3775,-1.3768,-1.384,-1.4194,-1.5587,-1.5596,-1.5666,-1.5666,-1.5525,-1.5869,-1.6,-1.6149,-1.6158,-1.6167,-1.5886,-1.5886,-1.6167,-1.6088,-1.5869,-1.5455,-1.4697,-1.4631,-1.5178,-1.5506,-1.5639,-2.2197,-2.2061,-2.0858,-2.0204,-2.002,-1.8967,-1.8307,-1.7969,-1.7969,-1.7774,-1.7501,-1.751,-1.751,-1.7539,-1.809,-1.8802,-1.9477,-2.0005,-1.9706,-1.8901,-1.857,-1.7915,-1.692,-1.6571,-1.6002,-1.5434,-1.4991,-1.4713,-1.4641,-1.4569,-1.4569,-1.4569,-1.4569,-1.4569,-1.4569,-1.4569,-1.4569,-1.4569,-1.4569,-1.4569,-1.4569,-1.4569,-1.4418,-1.4122,-1.4418,-1.4569,-1.4569,-1.4274,-1.4049,-1.4049,-1.3895,-1.3925,-1.4275,-1.4626,-1.4587,-1.4266,-1.4203,-1.4112,-1.3951,-1.3951,-1.3951,-1.3951,-1.3951,-1.3951,-1.3776,-1.3776,-1.3782,-1.3704,-1.3704,-1.3639,-1.3732,-1.4447,-1.5116,-1.5094,-1.494,-1.4918,-1.5065,-1.5116,-1.5065,-1.4852,-1.4779,-1.445,-1.4128,-1.3879,-1.3814,-1.3784,-1.3623,-1.3521,-1.3492,-1.3492,-1.3492,-1.3492,-1.3492,-1.371,-1.4194,-1.4338,-1.4346,-1.4338,-1.4338,-1.4402,-1.4466,-1.4609,-1.4617,-1.476,-1.476,-1.4832,-1.4824,-1.4824,-1.4681,-1.4537,-1.3783,-1.3893,-1.4144,-1.459,-1.4487,-2.14,-2.1135,-2.0139,-1.9617,-1.9344,-1.8432,-1.7765,-1.7442,-1.7442,-1.7235,-1.6978,-1.6908,-1.6908,-1.6972,-1.7321,-1.784,-1.8467,-1.9203,-1.9079,-1.8357,-1.8306,-1.7782,-1.6952,-1.6547,-1.6102,-1.5568,-1.5001,-1.4688,-1.4577,-1.4569,-1.4569,-1.4569,-1.4569,-1.4569,-1.4569,-1.4569,-1.4569,-1.4561,-1.4418,-1.4346,-1.4346,-1.4129,-1.3912,-1.3622,-1.384,-1.4057,-1.4057,-1.3695,-1.355,-1.3484,-1.3205,-1.3327,-1.385,-1.3851,-1.369,-1.3256,-1.3099,-1.293,-1.276,-1.2674,-1.276,-1.2674,-1.2674,-1.2674,-1.2674,-1.2674,-1.2674,-1.2674,-1.2668,-1.2656,-1.2597,-1.3371,-1.4051,-1.4278,-1.4431,-1.4545,-1.4757,-1.4882,-1.494,-1.4838,-1.4779,-1.4501,-1.4216,-1.4157,-1.4084,-1.4011,-1.3777,-1.3638,-1.3521,-1.3492,-1.3492,-1.3492,-1.3492,-1.3492,-1.3775,-1.3848,-1.3775,-1.3775,-1.3848,-1.3557,-1.3492,-1.3492,-1.3492,-1.3492,-1.3492,-1.3492,-1.3492,-1.3492,-1.3492,-1.3492,-1.3564,-1.3659,-1.3726,-1.3712,-1.3851,-1.9835,-1.9431,-1.8777,-1.8365,-1.7969,-1.7304,-1.6978,-1.6978,-1.6978,-1.6968,-1.6908,-1.6908,-1.6908,-1.6982,-1.7266,-1.7486,-1.7641,-1.8,-1.7972,-1.7642,-1.7674,-1.7388,-1.6852,-1.653,-1.6253,-1.607,-1.5533,-1.4982,-1.4585,-1.4569,-1.4569,-1.4569,-1.4569,-1.4569,-1.4569,-1.4569,-1.4569,-1.4418,-1.4057,-1.3833,-1.376,-1.3331,-1.3039,-1.29,-1.2966,-1.2966,-1.2893,-1.29,-1.2907,-1.2963,-1.303,-1.355,-1.3722,-1.349,-1.343,-1.3237,-1.3099,-1.2845,-1.2589,-1.2504,-1.2419,-1.2419,-1.2504,-1.2425,-1.2339,-1.2419,-1.2407,-1.2287,-1.2372,-1.2367,-1.2087,-1.2103,-1.2374,-1.318,-1.3754,-1.4052,-1.4337,-1.467,-1.4845,-1.4669,-1.456,-1.4721,-1.4575,-1.4308,-1.4222,-1.4172,-1.3989,-1.3836,-1.3616,-1.3536,-1.3492,-1.3492,-1.3492,-1.3492,-1.3492,-1.3492,-1.3492,-1.3492,-1.3557,-1.3492,-1.3492,-1.3492,-1.3492,-1.3492,-1.3492,-1.3492,-1.3492,-1.3492,-1.3492,-1.3492,-1.3492,-1.3492,-1.3536,-1.3587,-1.3623,-2.0031,-1.977,-1.89,-1.8442,-1.8172,-1.7304,-1.6908,-1.6908,-1.6908,-1.6908,-1.6908,-1.6908,-1.6908,-1.6927,-1.7046,-1.7092,-1.7101,-1.7248,-1.7342,-1.7521,-1.7783,-1.7377,-1.669,-1.6654,-1.6264,-1.563,-1.5319,-1.4998,-1.4632,-1.4569,-1.4569,-1.4569,-1.4569,-1.4418,-1.4057,-1.4353,-1.4281,-1.355,-1.3688,-1.3615,-1.3258,-1.2966,-1.268,-1.2305,-1.2305,-1.2077,-1.17,-1.2077,-1.233,-1.2503,-1.2241,-1.1994,-1.1958,-1.1624,-1.1406,-1.1133,-1.1063,-1.089,-1.089,-1.089,-1.089,-1.089,-1.089,-1.0804,-1.0804,-1.089,-1.0823,-1.0699,-1.0573,-1.0434,-1.017,-1.0502,-1.1088,-1.202,-1.2165,-1.2394,-1.2713,-1.3,-1.2988,-1.2917,-1.3162,-1.3494,-1.3797,-1.3863,-1.3975,-1.4324,-1.4183,-1.3885,-1.3761,-1.3483,-1.3499,-1.3492,-1.3492,-1.3266,-1.3119,-1.2966,-1.3039,-1.3193,-1.3273,-1.3492,-1.3492,-1.3492,-1.3492,-1.3492,-1.3492,-1.3492,-1.3492,-1.3492,-1.3492,-1.3492,-1.3492,-1.3499,-1.3514,-1.3536,-1.3572,-1.9243,-1.9054,-1.8385,-1.8046,-1.7842,-1.7166,-1.6908,-1.6908,-1.6908,-1.6908,-1.6908,-1.6908,-1.6908,-1.6908,-1.6908,-1.6908,-1.6908,-1.6908,-1.6883,-1.6949,-1.7418,-1.7175,-1.653,-1.6743,-1.6442,-1.5702,-1.5435,-1.5189,-1.4847,-1.4632,-1.4497,-1.4346,-1.4274,-1.3985,-1.3542,-1.3768,-1.3557,-1.3039,-1.3039,-1.2959,-1.2592,-1.2372,-1.2055,-1.1834,-1.1695,-1.1521,-1.1218,-1.1392,-1.1639,-1.1754,-1.1455,-1.1213,-1.0995,-1.0818,-1.0463,-1.0294,-1.0125,-1.0038,-1.0038,-1.012,-1.0038,-1.0038,-1.0038,-1.0038,-1.0038,-1.0038,-0.9861,-0.9686,-0.9649,-0.9391,-0.9204,-0.9414,-1.0,-1.044,-1.0924,-1.1205,-1.1678,-1.2018,-1.214,-1.2103,-1.234,-1.2636,-1.2768,-1.3121,-1.3284,-1.3675,-1.3564,-1.3229,-1.3119,-1.2811,-1.2757,-1.2647,-1.2445,-1.2372,-1.2526,-1.2526,-1.2519,-1.2746,-1.3053,-1.3273,-1.3492,-1.3492,-1.3492,-1.3492,-1.3492,-1.3492,-1.3492,-1.3492,-1.3492,-1.3492,-1.3492,-1.3492,-1.3499,-1.3499,-1.3521,-1.7813,-1.7539,-1.7539,-1.7323,-1.7047,-1.6908,-1.6908,-1.6908,-1.6908,-1.6908,-1.6908,-1.6908,-1.6908,-1.6908,-1.6908,-1.6839,-1.6839,-1.6691,-1.6281,-1.6019,-1.6294,-1.6421,-1.6451,-1.6541,-1.6251,-1.5803,-1.5537,-1.5292,-1.4735,-1.4478,-1.4274,-1.376,-1.3688,-1.3477,-1.2966,-1.2893,-1.2893,-1.2599,-1.2298,-1.2077,-1.1929,-1.1477,-1.1214,-1.1437,-1.1205,-1.1136,-1.1044,-1.0875,-1.0807,-1.0858,-1.092,-1.0979,-1.1096,-1.0804,-1.0549,-1.0467,-1.0207,-1.0038,-1.0038,-1.0038,-1.0019,-0.9904,-1.0014,-1.0024,-0.9913,-0.9885,-0.9809,-0.9615,-0.9484,-0.9412,-0.9077,-0.9056,-0.9053,-0.898,-0.996,-1.0918,-1.1617,-1.1662,-1.1497,-1.1595,-1.1956,-1.2155,-1.1726,-1.2107,-1.2225,-1.2357,-1.2375,-1.2148,-1.1901,-1.1845,-1.1417,-1.1383,-1.1564,-1.1632,-1.1861,-1.1855,-1.1855,-1.2003,-1.2305,-1.2599,-1.2966,-1.3119,-1.3419,-1.3419,-1.3339,-1.3419,-1.3492,-1.3492,-1.3492,-1.3492,-1.3492,-1.3492,-1.3492,-1.3492,-1.3419,-1.794,-1.7803,-1.7608,-1.747,-1.7332,-1.7047,-1.6908,-1.6908,-1.6908,-1.6908,-1.6908,-1.6908,-1.6839,-1.6908,-1.6839,-1.6621,-1.6123,-1.5895,-1.5463,-1.4816,-1.4677,-1.5134,-1.5566,-1.5828,-1.5434,-1.4633,-1.4465,-1.3997,-1.3572,-1.3462,-1.3331,-1.3112,-1.3112,-1.282,-1.2378,-1.2599,-1.2378,-1.1781,-1.1929,-1.1774,-1.1409,-1.1192,-1.0992,-1.0755,-1.0894,-1.0784,-1.048,-1.0405,-1.0542,-1.0816,-1.0726,-1.0737,-1.0712,-1.0376,-1.0207,-1.0207,-1.012,-1.0038,-1.0038,-1.0028,-0.988,-0.9757,-0.9842,-0.9885,-0.9738,-0.9729,-0.9625,-0.9436,-0.9285,-0.9096,-0.8859,-0.8798,-0.8755,-0.8737,-0.9381,-0.9766,-0.9925,-1.0029,-1.0221,-1.0231,-1.0355,-1.0689,-1.1122,-1.1355,-1.1572,-1.2005,-1.2034,-1.1745,-1.1356,-1.1135,-1.0813,-1.1039,-1.1186,-1.1186,-1.1192,-1.1192,-1.1186,-1.126,-1.1409,-1.1484,-1.1855,-1.2224,-1.282,-1.3266,-1.3046,-1.2973,-1.3266,-1.3419,-1.3492,-1.3119,-1.3193,-1.3119,-1.3339,-1.3411,-1.3266,-1.794,-1.7735,-1.7608,-1.7401,-1.7254,-1.6978,-1.6908,-1.6908,-1.6908,-1.6908,-1.6839,-1.6542,-1.6473,-1.6403,-1.6044,-1.5683,-1.518,-1.5029,-1.4593,-1.4015,-1.3866,-1.4219,-1.4707,-1.4925,-1.4612,-1.4085,-1.3726,-1.3501,-1.3191,-1.2963,-1.2753,-1.2599,-1.2526,-1.2231,-1.1706,-1.1929,-1.1855,-1.126,-1.1484,-1.1403,-1.1111,-1.1232,-1.1294,-1.1058,-1.1077,-1.0767,-1.0272,-1.0178,-1.0359,-1.0639,-1.0479,-1.0381,-1.0294,-1.0125,-1.0038,-1.0038,-1.0038,-1.0038,-1.0019,-0.988,-0.9771,-0.9667,-0.9705,-0.9677,-0.9653,-0.9644,-0.9554,-0.9351,-0.9214,-0.9011,-0.8774,-0.8703,-0.8751,-0.885,-0.9025,-0.9143,-0.9148,-0.9445,-0.9615,-0.9649,-0.9649,-0.9719,-1.0457,-1.0396,-1.0789,-1.1074,-1.0939,-1.0772,-1.067,-1.0417,-1.0225,-1.0315,-1.0282,-1.0137,-1.0062,-1.0062,-1.0104,-1.0248,-1.025,-1.0347,-1.0885,-1.1341,-1.1829,-1.2345,-1.2439,-1.2532,-1.268,-1.2673,-1.2372,-1.2224,-1.2452,-1.2599,-1.2599,-1.282,-1.2746,-1.7813,-1.7539,-1.7539,-1.7323,-1.6987,-1.6839,-1.6691,-1.676,-1.6551,-1.6542,-1.6403,-1.5903,-1.5692,-1.5613,-1.5108,-1.4537,-1.4235,-1.4163,-1.373,-1.333,-1.3126,-1.3381,-1.3746,-1.3884,-1.3833,-1.3694,-1.3431,-1.3113,-1.2784,-1.2681,-1.2385,-1.2003,-1.1929,-1.1632,-1.1335,-1.1186,-1.1117,-1.1111,-1.1037,-1.1037,-1.1004,-1.1112,-1.1158,-1.1163,-1.0933,-1.0608,-1.0218,-1.0091,-1.0193,-1.0544,-1.0212,-1.0038,-1.0038,-1.0038,-1.0038,-1.0038,-1.0038,-1.0038,-1.0005,-0.9781,-0.9634,-0.9578,-0.9426,-0.9379,-0.9502,-0.9424,-0.945,-0.9337,-0.9308,-0.9105,-0.8907,-0.8779,-0.8855,-0.903,-0.9237,-0.9346,-0.9398,-0.9549,-0.9682,-0.9672,-0.9672,-0.9545,-0.9478,-0.9488,-0.9611,-1.0231,-1.0048,-0.9984,-0.9837,-0.961,-0.9341,-0.917,-0.9079,-0.8856,-0.8856,-0.8856,-0.8969,-0.9005,-0.904,-0.9232,-0.9979,-1.0454,-1.0843,-1.1249,-1.1627,-1.1678,-1.1564,-1.1409,-1.1248,-1.1409,-1.1781,-1.1484,-1.126,-1.1632,-1.1781,-1.794,-1.7872,-1.7608,-1.747,-1.7254,-1.6473,-1.6044,-1.5974,-1.5392,-1.5251,-1.5108,-1.4895,-1.4824,-1.4824,-1.453,-1.4171,-1.3455,-1.3237,-1.2645,-1.1745,-1.1853,-1.1933,-1.2296,-1.2759,-1.281,-1.2552,-1.2154,-1.1872,-1.1684,-1.1702,-1.1484,-1.1335,-1.1409,-1.126,-1.1117,-1.1117,-1.1117,-1.1037,-1.0812,-1.0669,-1.064,-1.0616,-1.0488,-1.0296,-1.0162,-1.009,-1.01,-1.0014,-1.0033,-1.0125,-1.0038,-1.0038,-1.0038,-1.0038,-1.0038,-1.0038,-1.0038,-1.0038,-0.9995,-0.9748,-0.948,-0.9403,-0.9318,-0.9271,-0.9148,-0.9185,-0.9228,-0.9242,-0.9185,-0.9138,-0.9133,-0.903,-0.9077,-0.9242,-0.9431,-0.948,-0.9606,-0.9752,-0.9852,-0.9842,-0.9748,-0.9545,-0.9484,-0.9441,-0.945,-0.9393,-0.9289,-0.9162,-0.9044,-0.893,-0.8817,-0.8703,-0.8703,-0.8703,-0.8689,-0.8652,-0.8557,-0.8496,-0.8392,-0.836,-0.9093,-0.9569,-0.9908,-1.0388,-1.0924,-1.0791,-1.0535,-1.0771,-1.0748,-1.0932,-1.0962,-1.0738,-1.0657,-1.0812,-1.0738,-1.794,-1.7735,-1.7608,-1.7185,-1.6691,-1.6044,-1.5613,-1.5188,-1.4824,-1.4601,-1.4537,-1.4243,-1.4106,-1.4034,-1.3673,-1.3091,-1.2627,-1.2302,-1.198,-1.1544,-1.1564,-1.1588,-1.1679,-1.1938,-1.2041,-1.1721,-1.1606,-1.1377,-1.1202,-1.122,-1.1326,-1.1123,-1.1117,-1.1117,-1.1117,-1.1117,-1.1117,-1.1111,-1.0887,-1.0738,-1.0483,-1.0645,-1.0509,-1.0167,-1.009,-1.0105,-1.0024,-1.0033,-1.0038,-1.0038,-1.0033,-1.0038,-1.0038,-1.0038,-1.0038,-1.0038,-1.0038,-0.9889,-0.98,-0.9611,-0.9316,-0.9204,-0.91,-0.9053,-0.9015,-0.9025,-0.9119,-0.9247,-0.9247,-0.9219,-0.9304,-0.9252,-0.9275,-0.9436,-0.9573,-0.9677,-0.9781,-0.9885,-1.0038,-1.0019,-0.9856,-0.9748,-0.9639,-0.9493,-0.9389,-0.9374,-0.9185,-0.9058,-0.9015,-0.8897,-0.8784,-0.8703,-0.8703,-0.8699,-0.8675,-0.859,-0.8425,-0.833,-0.8212,-0.8089,-0.8299,-0.8629,-0.8891,-0.9379,-0.9745,-0.959,-0.9401,-0.978,-1.0038,-0.9798,-0.975,-0.99,-0.9906,-0.9836,-0.9685,-1.7803,-1.7529,-1.7392,-1.6751,-1.5903,-1.5542,-1.5037,-1.4458,-1.4314,-1.4027,-1.4099,-1.3528,-1.331,-1.3171,-1.2666,-1.209,-1.1853,-1.1692,-1.1679,-1.1805,-1.1691,-1.1739,-1.1817,-1.1739,-1.1739,-1.1594,-1.1624,-1.1455,-1.1268,-1.1353,-1.1341,-1.116,-1.1117,-1.1117,-1.1117,-1.1111,-1.1037,-1.0962,-1.0818,-1.0594,-1.029,-1.0515,-1.0465,-1.0489,-1.0317,-1.0178,-1.0033,-1.0038,-1.0038,-1.0038,-1.0009,-0.9923,-1.0033,-1.0038,-1.0009,-0.9995,-0.9875,-0.9781,-0.9597,-0.9408,-0.9214,-0.9048,-0.8845,-0.8841,-0.8963,-0.8996,-0.9082,-0.9252,-0.9341,-0.9398,-0.9412,-0.9393,-0.9488,-0.9634,-0.9696,-0.9776,-0.9899,-1.0038,-1.0038,-1.0033,-0.9995,-0.9828,-0.9691,-0.9545,-0.9441,-0.9313,-0.9115,-0.8949,-0.8892,-0.8812,-0.8661,-0.8519,-0.8472,-0.8453,-0.8439,-0.8335,-0.8193,-0.8108,-0.7999,-0.7886,-0.7768,-0.7991,-0.826,-0.819,-0.8423,-0.8455,-0.8582,-0.892,-0.8951,-0.8623,-0.8846,-0.9226,-0.9079,-0.878,-0.8841,-1.7862,-1.7579,-1.6802,-1.6315,-1.5754,-1.4537,-1.3897,-1.36,-1.3025,-1.2666,-1.2739,-1.2592,-1.2592,-1.2445,-1.2445,-1.2214,-1.1999,-1.189,-1.1902,-1.1974,-1.1884,-1.1914,-1.1878,-1.1896,-1.183,-1.186,-1.186,-1.1648,-1.1304,-1.1365,-1.1377,-1.1178,-1.1087,-1.1087,-1.1057,-1.1105,-1.0828,-1.0611,-1.0329,-1.0034,-0.9795,-0.9746,-0.9937,-1.0154,-1.0207,-1.012,-1.0033,-1.0038,-1.0038,-1.0019,-0.9786,-0.9804,-0.9866,-0.999,-0.9842,-0.9757,-0.97,-0.9601,-0.9393,-0.92,-0.9171,-0.9143,-0.8916,-0.8812,-0.8911,-0.8892,-0.8982,-0.9266,-0.9497,-0.9653,-0.9823,-0.9682,-0.97,-0.9828,-0.988,-0.9899,-1.0024,-1.0038,-1.0038,-1.0038,-1.0014,-0.9871,-0.9705,-0.9521,-0.9351,-0.9176,-0.8968,-0.8765,-0.8628,-0.8543,-0.8429,-0.8288,-0.816,-0.8151,-0.8151,-0.8014,-0.7886,-0.7839,-0.7749,-0.7726,-0.7636,-0.7593,-0.7588,-0.7754,-0.7858,-0.7998,-0.8141,-0.824,-0.8349,-0.842,-0.8548,-0.868,-0.8604,-0.8533,-0.8623,-1.7079,-1.6515,-1.5956,-1.5401,-1.476,-1.389,-1.3244,-1.2879,-1.2452,-1.2305,-1.2305,-1.2305,-1.2305,-1.2305,-1.2157,-1.2168,-1.2107,-1.2166,-1.2192,-1.227,-1.2198,-1.2035,-1.1986,-1.2047,-1.1811,-1.1781,-1.1956,-1.1932,-1.1419,-1.1612,-1.1407,-1.1003,-1.0906,-1.0846,-1.0659,-1.0473,-1.044,-1.0211,-0.9955,-0.9579,-0.9347,-0.9274,-0.9521,-0.9833,-1.0033,-1.0038,-1.0038,-1.0038,-0.9889,-0.9795,-0.9696,-0.9649,-0.9639,-0.963,-0.9634,-0.9611,-0.954,-0.9393,-0.9214,-0.9063,-0.9034,-0.8963,-0.8803,-0.876,-0.8807,-0.8803,-0.8911,-0.9261,-0.9639,-0.9842,-0.9923,-0.9847,-0.9871,-1.0005,-1.0038,-1.0038,-1.0038,-0.9951,-0.9951,-0.9951,-0.985,-0.9765,-0.9667,-0.9474,-0.9256,-0.9044,-0.8826,-0.8609,-0.8392,-0.8311,-0.8236,-0.8108,-0.799,-0.7957,-0.8012,-0.7834,-0.7702,-0.7631,-0.765,-0.7559,-0.7526,-0.7531,-0.7555,-0.7645,-0.7655,-0.7725,-0.7834,-0.7995,-0.8103,-0.8212,-0.8302,-0.8373,-0.8368,-0.8382,-0.8463,-1.6376,-1.5463,-1.5117,-1.4553,-1.3833,-1.339,-1.2879,-1.2378,-1.2305,-1.2305,-1.2305,-1.2305,-1.2305,-1.2271,-1.2198,-1.2177,-1.2252,-1.2359,-1.2487,-1.256,-1.2403,-1.2192,-1.2186,-1.2077,-1.1962,-1.1763,-1.1902,-1.2119,-1.1558,-1.1648,-1.1365,-1.0924,-1.0701,-1.0556,-1.0341,-1.0073,-0.993,-0.9785,-0.9569,-0.9332,-0.9199,-0.9236,-0.9464,-0.9856,-0.9836,-0.9772,-0.9685,-0.9447,-0.9284,-0.9159,-0.9131,-0.9206,-0.9173,-0.9161,-0.9299,-0.945,-0.9384,-0.9214,-0.9039,-0.9096,-0.9044,-0.8892,-0.8803,-0.8779,-0.8807,-0.8897,-0.8996,-0.9322,-0.9686,-0.9889,-0.9875,-0.9923,-0.9937,-1.0033,-1.0038,-0.9951,-0.9772,-0.9685,-0.9598,-0.9598,-0.9685,-0.9579,-0.9409,-0.9441,-0.9228,-0.8916,-0.8694,-0.8406,-0.8212,-0.817,-0.8089,-0.7962,-0.7858,-0.7869,-0.7831,-0.7783,-0.7674,-0.7602,-0.7583,-0.7536,-0.7526,-0.7526,-0.755,-0.7569,-0.7569,-0.765,-0.7669,-0.7768,-0.791,-0.8009,-0.8047,-0.8108,-0.8188,-0.8212,-0.825,-1.6376,-1.5392,-1.4545,-1.397,-1.3608,-1.2813,-1.2452,-1.2305,-1.2305,-1.2305,-1.2305,-1.2305,-1.2305,-1.2256,-1.2396,-1.2443,-1.2486,-1.2577,-1.2638,-1.2656,-1.2469,-1.2397,-1.2451,-1.2119,-1.2017,-1.1793,-1.1745,-1.1498,-1.1256,-1.1401,-1.125,-1.0737,-1.0453,-1.0263,-1.0093,-0.9656,-0.9653,-0.9314,-0.8912,-0.8772,-0.877,-0.8894,-0.9141,-0.9354,-0.9221,-0.9026,-0.8896,-0.8549,-0.8195,-0.8058,-0.8217,-0.8388,-0.85,-0.8719,-0.8852,-0.9072,-0.9176,-0.9157,-0.8892,-0.9034,-0.9152,-0.8978,-0.8954,-0.8978,-0.8954,-0.9063,-0.9185,-0.9304,-0.9691,-0.9756,-0.9695,-0.9861,-0.9923,-0.9859,-0.9685,-0.9423,-0.9157,-0.9069,-0.9069,-0.8894,-0.8803,-0.913,-0.9155,-0.9183,-0.919,-0.8864,-0.8543,-0.8192,-0.7962,-0.7762,-0.79,-0.7763,-0.7707,-0.7722,-0.7712,-0.7655,-0.7617,-0.7526,-0.7526,-0.7526,-0.7526,-0.7526,-0.7526,-0.7536,-0.7526,-0.7526,-0.7612,-0.7645,-0.7749,-0.781,-0.7853,-0.7962,-0.8085,-0.808,-0.8018,-1.5037,-1.4114,-1.3622,-1.3251,-1.3032,-1.2526,-1.2305,-1.2305,-1.2305,-1.2305,-1.2305,-1.2305,-1.2157,-1.2065,-1.2232,-1.2289,-1.2331,-1.2512,-1.2699,-1.2699,-1.256,-1.2439,-1.2258,-1.2137,-1.2053,-1.1468,-1.1437,-1.1208,-1.0972,-1.0791,-1.0797,-1.0281,-1.0095,-0.9866,-0.9478,-0.8952,-0.8544,-0.8201,-0.7851,-0.7646,-0.7884,-0.8032,-0.8208,-0.8376,-0.8304,-0.8158,-0.8001,-0.785,-0.7488,-0.7495,-0.7549,-0.7565,-0.7565,-0.7659,-0.7762,-0.7819,-0.8077,-0.8311,-0.8667,-0.8936,-0.8993,-0.8988,-0.8932,-0.8959,-0.893,-0.895,-0.9082,-0.9157,-0.953,-0.9521,-0.9181,-0.9229,-0.903,-0.8978,-0.8982,-0.8715,-0.8448,-0.836,-0.8273,-0.8097,-0.799,-0.8229,-0.8357,-0.816,-0.8104,-0.8,-0.7613,-0.7322,-0.715,-0.7043,-0.7239,-0.7541,-0.7513,-0.7569,-0.7579,-0.7564,-0.7579,-0.7526,-0.7526,-0.7526,-0.7526,-0.7526,-0.7526,-0.7526,-0.7526,-0.7526,-0.7531,-0.7579,-0.7607,-0.764,-0.7659,-0.7749,-0.7825,-0.7749,-0.7735,-1.3833,-1.3119,-1.2973,-1.2826,-1.268,-1.2378,-1.2305,-1.2305,-1.2305,-1.2305,-1.2305,-1.2311,-1.2116,-1.1878,-1.2092,-1.2086,-1.1968,-1.2403,-1.2566,-1.2614,-1.2541,-1.232,-1.2029,-1.1916,-1.1528,-1.0522,-1.0557,-1.0376,-1.0102,-0.9823,-0.9599,-0.9522,-0.9136,-0.8887,-0.8354,-0.7826,-0.7389,-0.7181,-0.6832,-0.683,-0.7064,-0.727,-0.7373,-0.7405,-0.7424,-0.7312,-0.7206,-0.6891,-0.6725,-0.6666,-0.6821,-0.6842,-0.6759,-0.7055,-0.7164,-0.7205,-0.7384,-0.7625,-0.8034,-0.8317,-0.8559,-0.8564,-0.8541,-0.8256,-0.832,-0.8465,-0.8541,-0.8405,-0.8764,-0.8686,-0.8501,-0.8447,-0.838,-0.8158,-0.8013,-0.7746,-0.757,-0.757,-0.757,-0.7394,-0.7267,-0.7173,-0.7215,-0.6964,-0.6939,-0.6969,-0.678,-0.6467,-0.6387,-0.6372,-0.6593,-0.6937,-0.7134,-0.7199,-0.7265,-0.733,-0.7396,-0.7526,-0.7526,-0.7526,-0.7526,-0.7526,-0.7526,-0.7526,-0.7526,-0.7526,-0.7526,-0.7526,-0.7531,-0.7583,-0.7621,-0.7579,-0.7574,-0.7526,-0.7555,-1.3339,-1.29,-1.2893,-1.2886,-1.2826,-1.2452,-1.2305,-1.2305,-1.2305,-1.2305,-1.2305,-1.2224,-1.2032,-1.1936,-1.1674,-1.1702,-1.1804,-1.221,-1.2105,-1.2212,-1.2451,-1.1843,-1.1438,-1.1152,-1.0962,-1.0041,-0.9623,-0.9226,-0.8856,-0.823,-0.8307,-0.8523,-0.8113,-0.7494,-0.7082,-0.6849,-0.6427,-0.6218,-0.6054,-0.6198,-0.646,-0.6729,-0.6931,-0.6973,-0.6699,-0.645,-0.643,-0.5903,-0.5592,-0.5556,-0.588,-0.6126,-0.6172,-0.6474,-0.6669,-0.6722,-0.6781,-0.6958,-0.7123,-0.7537,-0.7458,-0.7323,-0.7263,-0.7478,-0.7556,-0.7367,-0.7331,-0.749,-0.7829,-0.7773,-0.7677,-0.7605,-0.7692,-0.7446,-0.7221,-0.7132,-0.6956,-0.6871,-0.6779,-0.6691,-0.663,-0.6445,-0.6279,-0.6119,-0.6044,-0.6149,-0.6023,-0.5738,-0.587,-0.5911,-0.5973,-0.6218,-0.6544,-0.6741,-0.6872,-0.7003,-0.726,-0.7461,-0.7526,-0.7526,-0.7526,-0.7526,-0.7526,-0.7526,-0.7526,-0.7526,-0.7526,-0.7526,-0.7526,-0.7526,-0.7526,-0.7526,-0.7526,-0.7526,-0.7526,-1.3042,-1.2763,-1.2684,-1.2573,-1.2526,-1.2378,-1.2305,-1.2305,-1.2305,-1.2305,-1.2204,-1.1468,-1.0998,-1.0861,-1.0193,-0.9932,-0.9932,-1.029,-1.0482,-1.0525,-1.049,-1.0367,-1.0079,-0.9906,-0.958,-0.8971,-0.8449,-0.8228,-0.8083,-0.7215,-0.6841,-0.6849,-0.7047,-0.7034,-0.6655,-0.6037,-0.5616,-0.5396,-0.5278,-0.5359,-0.56,-0.5752,-0.5896,-0.5789,-0.5833,-0.5609,-0.5474,-0.5269,-0.5089,-0.5154,-0.5271,-0.5489,-0.558,-0.5969,-0.6125,-0.6172,-0.6131,-0.6062,-0.627,-0.6852,-0.7308,-0.7263,-0.7167,-0.7066,-0.6913,-0.6958,-0.7032,-0.7081,-0.7103,-0.7049,-0.6785,-0.6915,-0.689,-0.6649,-0.652,-0.6432,-0.6337,-0.6331,-0.6204,-0.618,-0.5953,-0.5795,-0.5624,-0.5445,-0.5366,-0.5353,-0.5167,-0.5094,-0.5319,-0.5425,-0.5491,-0.5624,-0.5951,-0.6346,-0.6478,-0.6802,-0.7129,-0.7326,-0.7461,-0.7526,-0.7526,-0.7526,-0.7526,-0.7526,-0.7526,-0.7526,-0.7526,-0.7526,-0.7526,-0.7526,-0.7526,-0.7526,-0.7526,-0.7526,-0.7526,-1.2716,-1.2522,-1.2466,-1.2398,-1.2352,-1.2284,-1.2171,-1.2158,-1.1834,-1.1589,-1.1414,-1.0423,-0.9986,-0.9679,-0.9098,-0.865,-0.8768,-0.901,-0.9148,-0.9276,-0.938,-0.9015,-0.8787,-0.8647,-0.8558,-0.7987,-0.7559,-0.7395,-0.7337,-0.6485,-0.6116,-0.6015,-0.6179,-0.6173,-0.5884,-0.5501,-0.4976,-0.4787,-0.4768,-0.4798,-0.5007,-0.5156,-0.5181,-0.5112,-0.5181,-0.5184,-0.514,-0.504,-0.5034,-0.5029,-0.5031,-0.508,-0.5173,-0.5268,-0.5355,-0.5385,-0.5377,-0.532,-0.5644,-0.6049,-0.6682,-0.6421,-0.6508,-0.6386,-0.6369,-0.6325,-0.6193,-0.6271,-0.6359,-0.6394,-0.5988,-0.6117,-0.626,-0.6019,-0.6074,-0.5994,-0.5968,-0.5866,-0.5717,-0.5667,-0.5518,-0.5431,-0.5192,-0.5079,-0.4972,-0.4913,-0.4749,-0.4739,-0.4779,-0.4894,-0.4964,-0.516,-0.5422,-0.5818,-0.6145,-0.6539,-0.6933,-0.7064,-0.726,-0.7461,-0.7526,-0.7526,-0.7526,-0.7526,-0.7526,-0.7526,-0.7526,-0.7526,-0.7526,-0.7526,-0.7526,-0.7526,-0.7526,-0.7526,-0.7526,-1.239,-1.223,-1.2354,-1.2435,-1.2424,-1.2069,-1.1891,-1.1708,-1.0924,-1.0302,-0.9908,-0.9513,-0.9223,-0.8964,-0.8389,-0.7962,-0.7904,-0.8229,-0.8346,-0.8333,-0.8353,-0.8237,-0.7974,-0.7707,-0.7542,-0.702,-0.6652,-0.6534,-0.6595,-0.5959,-0.5504,-0.5272,-0.5312,-0.5183,-0.4627,-0.4665,-0.4726,-0.4681,-0.4787,-0.4885,-0.4991,-0.5037,-0.5029,-0.5031,-0.5037,-0.5034,-0.5026,-0.5018,-0.5018,-0.5018,-0.5018,-0.5075,-0.5178,-0.5197,-0.5235,-0.5246,-0.5227,-0.5203,-0.5278,-0.5275,-0.5408,-0.5436,-0.5704,-0.5504,-0.5196,-0.5171,-0.5249,-0.5562,-0.5352,-0.5391,-0.5355,-0.5466,-0.5595,-0.5651,-0.5706,-0.5695,-0.5665,-0.5643,-0.5583,-0.5466,-0.5385,-0.5279,-0.5012,-0.4784,-0.4629,-0.4552,-0.4374,-0.4386,-0.4436,-0.4498,-0.4634,-0.4697,-0.496,-0.5289,-0.5683,-0.6276,-0.6671,-0.6868,-0.7064,-0.7396,-0.7526,-0.7526,-0.7526,-0.7526,-0.7526,-0.7526,-0.7526,-0.7526,-0.7526,-0.7526,-0.7526,-0.7526,-0.7526,-0.7526,-0.7526,-1.2072,-1.1947,-1.1988,-1.1717,-1.1422,-1.1766,-1.1545,-1.0804,-1.0078,-0.9589,-0.9297,-0.8669,-0.817,-0.7851,-0.7246,-0.673,-0.6608,-0.6655,-0.6736,-0.6832,-0.7064,-0.6828,-0.6697,-0.6638,-0.6504,-0.6213,-0.587,-0.5854,-0.5924,-0.5599,-0.5279,-0.5018,-0.4944,-0.4787,-0.47,-0.477,-0.4803,-0.4868,-0.4882,-0.489,-0.5002,-0.5018,-0.5018,-0.5018,-0.5018,-0.5018,-0.5018,-0.5018,-0.5018,-0.5018,-0.5018,-0.5069,-0.5154,-0.5175,-0.5214,-0.5243,-0.5246,-0.5186,-0.5186,-0.5186,-0.5175,-0.5135,-0.5097,-0.5083,-0.5021,-0.5018,-0.5018,-0.5018,-0.5018,-0.5143,-0.5394,-0.5358,-0.5382,-0.5624,-0.5687,-0.5624,-0.5586,-0.5572,-0.5521,-0.5352,-0.5235,-0.5186,-0.4999,-0.4836,-0.467,-0.4529,-0.4439,-0.4341,-0.437,-0.4367,-0.4434,-0.4367,-0.4567,-0.4827,-0.5156,-0.5749,-0.6276,-0.6474,-0.6933,-0.7461,-0.7526,-0.7461,-0.7526,-0.7526,-0.7526,-0.7526,-0.7526,-0.7526,-0.7526,-0.7526,-0.7526,-0.7526,-0.7526,-0.7526,-0.7526,-1.1281,-1.1036,-1.1073,-1.0685,-1.0276,-1.0949,-1.0623,-0.9468,-0.8965,-0.8697,-0.8348,-0.7655,-0.7279,-0.6993,-0.6332,-0.5768,-0.5603,-0.5677,-0.5728,-0.5749,-0.5881,-0.5971,-0.593,-0.5827,-0.5927,-0.5661,-0.5613,-0.5638,-0.5662,-0.5614,-0.5378,-0.5136,-0.4887,-0.488,-0.4876,-0.4906,-0.4898,-0.4928,-0.4901,-0.4939,-0.5002,-0.5018,-0.5018,-0.5018,-0.5018,-0.5018,-0.5018,-0.5018,-0.5018,-0.5018,-0.5031,-0.5053,-0.511,-0.5143,-0.517,-0.5195,-0.5227,-0.5178,-0.5186,-0.5249,-0.5235,-0.5178,-0.511,-0.5061,-0.5031,-0.5018,-0.5018,-0.5018,-0.5026,-0.5132,-0.5257,-0.5203,-0.5349,-0.5594,-0.561,-0.5545,-0.5477,-0.5464,-0.5396,-0.523,-0.5137,-0.5078,-0.5029,-0.4915,-0.477,-0.4643,-0.4518,-0.4412,-0.4311,-0.4303,-0.4303,-0.4303,-0.4303,-0.4498,-0.4827,-0.5223,-0.5683,-0.6079,-0.6671,-0.7265,-0.733,-0.7265,-0.7396,-0.7526,-0.7526,-0.7526,-0.7526,-0.7526,-0.7526,-0.7526,-0.7526,-0.7526,-0.7526,-0.7526,-0.7526,-1.0098,-0.956,-0.967,-0.9425,-0.9133,-0.9694,-0.9053,-0.7625,-0.7697,-0.7471,-0.6986,-0.6853,-0.6709,-0.6569,-0.6079,-0.5846,-0.5693,-0.5633,-0.5664,-0.5667,-0.5779,-0.5735,-0.5742,-0.5742,-0.5671,-0.5593,-0.5552,-0.5572,-0.5603,-0.5491,-0.5409,-0.5282,-0.4994,-0.4931,-0.4969,-0.498,-0.4953,-0.4939,-0.4958,-0.4988,-0.5018,-0.5018,-0.5018,-0.5018,-0.5018,-0.5018,-0.5018,-0.5018,-0.5018,-0.5018,-0.5021,-0.5021,-0.5023,-0.5021,-0.5021,-0.505,-0.5132,-0.5156,-0.5222,-0.5301,-0.5314,-0.526,-0.5195,-0.5127,-0.5075,-0.5053,-0.5061,-0.5072,-0.5086,-0.5135,-0.5189,-0.5273,-0.5363,-0.5461,-0.551,-0.5447,-0.5366,-0.5306,-0.5238,-0.5143,-0.5078,-0.5029,-0.5015,-0.4925,-0.4836,-0.4703,-0.4569,-0.4442,-0.4352,-0.4303,-0.4303,-0.4303,-0.4303,-0.4303,-0.4631,-0.4957,-0.5219,-0.5617,-0.6342,-0.6937,-0.7003,-0.7134,-0.7396,-0.7526,-0.7526,-0.7526,-0.7526,-0.7526,-0.7526,-0.7526,-0.7526,-0.7526,-0.7526,-0.7461,-0.7461,-0.9646,-0.953,-0.9532,-0.9062,-0.8236,-0.771,-0.7438,-0.7424,-0.7148,-0.6805,-0.6587,-0.6491,-0.6433,-0.6213,-0.605,-0.5878,-0.5769,-0.5755,-0.5827,-0.5823,-0.5749,-0.5793,-0.5789,-0.5745,-0.5674,-0.5616,-0.5583,-0.55,-0.5369,-0.5227,-0.5095,-0.4991,-0.4925,-0.4931,-0.4993,-0.5018,-0.4988,-0.4974,-0.4999,-0.501,-0.5018,-0.5018,-0.5018,-0.5018,-0.5018,-0.5018,-0.5018,-0.5018,-0.5018,-0.5018,-0.5018,-0.5018,-0.5018,-0.5018,-0.5018,-0.5018,-0.5069,-0.5121,-0.5265,-0.5268,-0.5276,-0.5328,-0.5273,-0.5189,-0.5146,-0.5121,-0.5116,-0.5108,-0.5137,-0.5186,-0.5224,-0.5295,-0.5363,-0.5409,-0.5423,-0.5347,-0.5271,-0.5208,-0.5143,-0.5094,-0.5026,-0.5023,-0.5004,-0.4969,-0.4874,-0.4749,-0.4616,-0.4482,-0.4382,-0.4333,-0.4303,-0.4303,-0.4303,-0.4303,-0.4434,-0.4761,-0.4957,-0.5286,-0.5947,-0.6539,-0.6741,-0.6937,-0.733,-0.7526,-0.7526,-0.7526,-0.7526,-0.7526,-0.7526,-0.7526,-0.7526,-0.7526,-0.7526,-0.7526,-0.7326,-0.8941,-0.8748,-0.8619,-0.8161,-0.7447,-0.6741,-0.6679,-0.6964,-0.6739,-0.6546,-0.6487,-0.6468,-0.6369,-0.629,-0.6111,-0.5882,-0.58,-0.5783,-0.5803,-0.5742,-0.5769,-0.5789,-0.5783,-0.5739,-0.5654,-0.561,-0.5513,-0.5428,-0.5195,-0.4963,-0.4759,-0.4953,-0.4886,-0.4901,-0.4982,-0.5018,-0.5018,-0.5012,-0.5018,-0.5018,-0.5018,-0.5018,-0.5018,-0.5018,-0.5018,-0.5018,-0.5018,-0.5018,-0.5018,-0.5018,-0.5018,-0.5018,-0.5018,-0.5018,-0.5018,-0.5018,-0.5029,-0.5118,-0.5227,-0.5224,-0.5287,-0.5325,-0.5279,-0.5214,-0.5156,-0.5124,-0.5105,-0.5097,-0.5167,-0.523,-0.5262,-0.5301,-0.5341,-0.5385,-0.5317,-0.5246,-0.5186,-0.5129,-0.5083,-0.5037,-0.5018,-0.5018,-0.5002,-0.4974,-0.4912,-0.4781,-0.4643,-0.4574,-0.4406,-0.4344,-0.4314,-0.4303,-0.4303,-0.4303,-0.45,-0.4564,-0.4694,-0.4891,-0.5352,-0.5881,-0.628,-0.6806,-0.7134,-0.733,-0.7526,-0.7526,-0.7526,-0.7526,-0.7526,-0.7526,-0.7526,-0.7456,-0.7461,-0.7526,-0.7265,-0.8037,-0.7521,-0.7265,-0.7134,-0.6741,-0.6482,-0.642,-0.642,-0.6436,-0.6509,-0.6567,-0.6498,-0.6459,-0.6395,-0.6126,-0.5894,-0.583,-0.5772,-0.5732,-0.561,-0.5732,-0.5772,-0.5739,-0.5691,-0.5616,-0.5493,-0.5391,-0.5316,-0.5039,-0.4828,-0.4793,-0.5027,-0.4902,-0.4898,-0.4999,-0.5015,-0.5018,-0.5018,-0.5018,-0.5018,-0.5018,-0.5018,-0.5018,-0.5018,-0.5018,-0.5018,-0.5018,-0.5018,-0.5018,-0.5018,-0.5018,-0.5018,-0.5018,-0.5018,-0.5018,-0.5018,-0.5018,-0.5094,-0.5165,-0.517,-0.5195,-0.5214,-0.5186,-0.5175,-0.5146,-0.5132,-0.5116,-0.5127,-0.5189,-0.5214,-0.5241,-0.5279,-0.532,-0.5303,-0.5243,-0.517,-0.5102,-0.5067,-0.505,-0.5018,-0.5018,-0.5018,-0.501,-0.498,-0.4896,-0.4787,-0.4678,-0.4607,-0.442,-0.4349,-0.433,-0.4308,-0.4303,-0.4303,-0.43,-0.4367,-0.4367,-0.4564,-0.496,-0.5289,-0.5749,-0.6346,-0.6872,-0.7134,-0.733,-0.7461,-0.7526,-0.7526,-0.7526,-0.7526,-0.7526,-0.7456,-0.7456,-0.7326,-0.7068,-0.7652,-0.7461,-0.7138,-0.6946,-0.6811,-0.6552,-0.642,-0.642,-0.642,-0.6444,-0.6459,-0.6537,-0.6428,-0.6191,-0.6079,-0.5877,-0.5827,-0.5708,-0.5698,-0.5623,-0.5661,-0.5691,-0.5661,-0.5566,-0.5552,-0.5613,-0.551,-0.519,-0.4944,-0.4691,-0.461,-0.4767,-0.4768,-0.4879,-0.5007,-0.5018,-0.5018,-0.5018,-0.5018,-0.5018,-0.5018,-0.5018,-0.5018,-0.5018,-0.5018,-0.5018,-0.5018,-0.5018,-0.5018,-0.5018,-0.5018,-0.5018,-0.5018,-0.5018,-0.5018,-0.5018,-0.5021,-0.5078,-0.5116,-0.5127,-0.514,-0.5189,-0.5189,-0.5156,-0.514,-0.5143,-0.5148,-0.5165,-0.5181,-0.5189,-0.5214,-0.5254,-0.5276,-0.5227,-0.5173,-0.5099,-0.5026,-0.5023,-0.5018,-0.5018,-0.5018,-0.5015,-0.5007,-0.4953,-0.4868,-0.4781,-0.477,-0.4646,-0.4431,-0.4341,-0.4346,-0.4327,-0.4306,-0.4303,-0.4303,-0.4303,-0.4303,-0.4434,-0.4761,-0.5024,-0.5289,-0.5951,-0.6609,-0.6872,-0.7134,-0.7265,-0.7461,-0.7526,-0.7526,-0.7526,-0.733,-0.726,-0.6999,-0.6868,-0.6544,-0.7526,-0.7456,-0.7073,-0.6876,-0.6745,-0.6548,-0.642,-0.642,-0.642,-0.642,-0.637,-0.6343,-0.6218,-0.6036,-0.5894,-0.5825,-0.5688,-0.5633,-0.5576,-0.5532,-0.5545,-0.5545,-0.5501,-0.545,-0.5467,-0.5521,-0.5386,-0.5106,-0.4776,-0.4625,-0.4596,-0.4698,-0.4741,-0.4836,-0.4977,-0.5015,-0.5012,-0.5018,-0.5018,-0.5018,-0.5018,-0.5018,-0.5018,-0.5018,-0.5018,-0.5018,-0.5018,-0.5018,-0.5018,-0.5018,-0.5018,-0.5018,-0.5018,-0.5018,-0.5018,-0.5018,-0.5026,-0.5045,-0.5075,-0.5086,-0.508,-0.5127,-0.5135,-0.5078,-0.5075,-0.5075,-0.5075,-0.5089,-0.5097,-0.5105,-0.5151,-0.5192,-0.5205,-0.5178,-0.5118,-0.505,-0.5023,-0.5021,-0.5018,-0.5018,-0.5018,-0.5018,-0.4993,-0.4925,-0.4849,-0.4811,-0.4722,-0.4726,-0.4504,-0.4365,-0.4363,-0.4346,-0.4325,-0.4306,-0.4303,-0.4303,-0.4303,-0.4434,-0.4631,-0.4827,-0.5156,-0.5818,-0.6416,-0.6609,-0.6868,-0.7195,-0.7326,-0.7396,-0.7461,-0.7526,-0.7265,-0.7003,-0.6671,-0.6342,-0.5947,-0.7526,-0.7461,-0.7073,-0.6811,-0.6675,-0.6482,-0.642,-0.642,-0.642,-0.642,-0.6354,-0.6032,-0.5993,-0.5905,-0.5674,-0.5583,-0.5542,-0.5535,-0.5474,-0.5518,-0.5498,-0.5471,-0.549,-0.5439,-0.5399,-0.5333,-0.5166,-0.4957,-0.4694,-0.4602,-0.4554,-0.4662,-0.4681,-0.4749,-0.492,-0.4993,-0.4982,-0.501,-0.5018,-0.5018,-0.5018,-0.5018,-0.5018,-0.5018,-0.5018,-0.5018,-0.5018,-0.5018,-0.5018,-0.5018,-0.5018,-0.5018,-0.5018,-0.5018,-0.5018,-0.5018,-0.5018,-0.5023,-0.5029,-0.5034,-0.5029,-0.5029,-0.5018,-0.5021,-0.5023,-0.5026,-0.5026,-0.5029,-0.5034,-0.505,-0.5094,-0.5118,-0.5129,-0.5129,-0.5067,-0.5026,-0.5021,-0.5018,-0.5018,-0.5018,-0.494,-0.494,-0.4977,-0.4906,-0.4866,-0.4825,-0.4773,-0.4705,-0.4618,-0.449,-0.442,-0.4384,-0.4346,-0.4327,-0.4306,-0.4303,-0.4303,-0.43,-0.45,-0.4631,-0.4894,-0.5422,-0.5885,-0.621,-0.6539,-0.6868,-0.7129,-0.7199,-0.733,-0.733,-0.6937,-0.6544,-0.6145,-0.5749,-0.5352,-0.7526,-0.7461,-0.7073,-0.6876,-0.6815,-0.6552,-0.642,-0.642,-0.642,-0.642,-0.635,-0.6102,-0.5981,-0.6065,-0.5906,-0.5765,-0.5518,-0.5481,-0.542,-0.5452,-0.5483,-0.5393,-0.5372,-0.5428,-0.5428,-0.5292,-0.5093,-0.4827,-0.4694,-0.4506,-0.4433,-0.4507,-0.4515,-0.4626,-0.4825,-0.4885,-0.4923,-0.4966,-0.5012,-0.5018,-0.5018,-0.5018,-0.5018,-0.5018,-0.5018,-0.5018,-0.5018,-0.5018,-0.5018,-0.5018,-0.5018,-0.5018,-0.5018,-0.5018,-0.5018,-0.5018,-0.5018,-0.5018,-0.5018,-0.5018,-0.5018,-0.5018,-0.5018,-0.5018,-0.5021,-0.5021,-0.5021,-0.5021,-0.5023,-0.5023,-0.5053,-0.5053,-0.5059,-0.5059,-0.5023,-0.4943,-0.494,-0.4937,-0.4859,-0.4859,-0.4859,-0.4859,-0.4932,-0.4881,-0.4849,-0.4811,-0.4849,-0.4781,-0.4711,-0.4599,-0.4477,-0.4431,-0.4382,-0.433,-0.4303,-0.4303,-0.4303,-0.4303,-0.4303,-0.45,-0.4631,-0.4891,-0.5352,-0.5745,-0.621,-0.6609,-0.6806,-0.6872,-0.6868,-0.6741,-0.635,-0.5954,-0.562,-0.5289,-0.4957]},{"header":{"parameterUnit":"m.s-1","parameterCategory":1,"la1":31.0,"la2":29.5877,"lo1":-88.7671,"lo2":-86.6584,"dy":0.0162,"dx":0.0185,"nx":115,"ny":88,"refTime":"2025-07-06T12:00:00:Z","depth":0,"parameterNumber":3,"parameterNumberName":"V-component_of_WINDS"},"data":[0.0,0.0,0.0,0.0,0.0,0.0,0.0,0.0,0.0,0.0,0.0,0.0,0.0,0.0,0.0,0.0,0.0,0.0,0.0,0.0,0.0,0.0,0.0,0.0,0.0,0.0,0.0,0.0,0.0,0.0,0.0,0.0,0.0,0.0,0.0,0.0,0.0,0.0,0.0,0.0,0.0,0.0,0.0,0.0,0.0,0.0,0.0,0.0,0.0,0.0,0.0,0.0,0.0,0.0,0.0,0.0,0.0,0.0,0.0,0.0,0.0,0.0,0.0,0.0,0.0,0.0,0.0,0.0,0.0,0.0,0.0,0.0,0.0,0.0,0.0,0.0,0.0,0.0,0.0,0.0,0.0,0.0,0.0,0.0,0.0,0.0,0.0,0.0,0.0,0.0,0.0,0.0,0.0,0.0,0.0,0.0,0.0,0.0,0.0,0.0,0.0,0.0,0.0,0.0,0.0,0.0,0.0,0.0,0.0,0.0,0.0,0.0,0.0,0.0,0.0,0.0,0.0,0.0,0.0,0.0,0.0,0.0,0.0,0.0,0.0,0.0,0.0,0.0,0.0,0.0,0.0,0.0,0.0,0.0,0.0,0.0,0.0,0.0,0.0,0.0,0.0,0.0,0.0,0.0,0.0,0.0,0.0,0.0,0.0,0.0,0.0,0.0,0.0,0.0,0.0,0.0,0.0,0.0,0.0,0.0,0.0,0.0,0.0,0.0,0.0,0.0,0.0,0.0,0.0,0.0,0.0,0.0,0.0,0.0,0.0,0.0,0.0,0.0,0.0,0.0,0.0,0.0,0.0,0.0,0.0,0.0,0.0,0.0,0.0,0.0,0.0,0.0,0.0,0.0,0.0,0.0,0.0,0.0,0.0,0.0,0.0,0.0,0.0,0.0,0.0,0.0,0.0,0.0,0.0,0.0,0.0,0.0,0.0,0.0,0.0,0.0,0.0,0.0,0.0,0.0,0.0,0.0,0.0,0.0,0.0,0.0,0.0,0.0,0.0,0.0,0.0,0.0,0.0,0.0,0.0,0.0,0.0,0.0,0.0,0.0,0.0,0.0,0.0,0.0,0.0,0.0,0.0,0.0,0.0,0.0,0.0,0.0,0.0,0.0,0.0,0.0,0.0,0.0,0.0,0.0,0.0,0.0,0.0,0.0,0.0,0.0,0.0,0.0,0.0,0.0,0.0,0.0,0.0,0.0,0.0,0.0,0.0,0.0,0.0,0.0,0.0,0.0,0.0,0.0,0.0,0.0,0.0,0.0,0.0,0.0,0.0,0.0,0.0,0.0,0.0,0.0,0.0,0.0,0.0,0.0,0.0,0.0,0.0,0.0,0.0,0.0,0.0,0.0,0.0,0.0,0.0,0.0,0.0,0.0,0.0,0.0,0.0,0.0,0.0,0.0,0.0,0.0,0.0,0.0,0.0,0.0,0.0,0.0,0.0,0.0,0.0,0.0,0.0,0.0,0.0,0.0,0.0,0.0,0.0,0.0,0.0,0.0,0.0,0.0,0.0,0.0,0.0,0.0,0.0,0.0,0.0,0.0,0.0,0.0,0.0,0.0,0.0,0.0,0.0,0.0,0.0,0.0,0.0,0.0,0.0,0.0,0.0,0.0,0.0,0.0,0.0,0.0,0.0,0.0,0.0,0.0,0.0,0.0,0.0,0.0,0.0,0.0,0.0,0.0,0.0,0.0,0.0,0.0,0.0,0.0,0.0,0.0,0.0,0.0,0.0,0.0,0.0,0.0,0.0,0.0,0.0,0.0,0.0,0.0,0.0,0.0,0.0,0.0,0.0,0.0,0.0,0.0,0.0,0.0,0.0,0.0,0.0,0.0,0.0,0.0,0.0,0.0,0.0,0.0,0.0,0.0,0.0,0.0,0.0,0.0,0.0,0.0,0.0,0.0,0.0,0.0,0.0,0.0,0.0,0.0,0.0,0.0,0.0,0.0,0.0,0.0,0.0,0.0,0.0,0.0,0.0,0.0,0.0,0.0,0.0,0.0,0.0,0.0,0.0,0.0,0.0,0.0,0.0,0.0,0.0,0.0,0.0,0.0,0.0,0.0,0.0,0.0,0.0,0.0,0.0,0.0,0.0,0.0,0.0,0.0,0.0,0.0,0.0,0.0,0.0,0.0,0.0,0.0,0.0,0.0,0.0,0.0,0.0,0.0,0.0,0.0,0.0,0.0,0.0,0.0,0.0,0.0,0.0,0.0,0.0,0.0,0.0,0.0,0.0,0.0,0.0,0.0,0.0,0.0,0.0,0.0,0.0,0.0,0.0,0.0,0.0,0.0,0.0,0.0,0.0,0.0,0.0,0.0,0.0,0.0,0.0,0.0,0.0,0.0,0.0,0.0,0.0,0.0,0.0,0.0,0.0,0.0,0.0,0.0,0.0,0.0,0.0,0.0,0.0,0.0,0.0,0.0,0.0,0.0,0.0,0.0,0.0,0.0,0.0,0.0,0.0,0.0,0.0,0.0,0.0,0.0,0.0,0.0,0.0,0.0,0.0,0.0,0.0,0.0,0.0,0.0,0.0,0.0,0.0,0.0,0.0,0.0,0.0,0.0,0.0,0.0,0.0,0.0,0.0,0.0,0.0,0.0,0.0,0.0,0.0,0.0,0.0,0.0,0.0,0.0,0.0,0.0,0.0,0.0,0.0,0.0,0.0,0.0,0.0,0.0,0.0,0.0,0.0,0.0,0.0,0.0,0.0,0.0,0.0,0.0,0.0,0.0,0.0,0.0,0.0,0.0,0.0,0.0,0.0,0.0,0.0,0.0,0.0,0.0,0.0,0.0,0.0,0.0,0.0,0.0,0.0,0.0,0.0,0.0,0.0,0.0,0.0,0.0,0.0,0.0,0.0,0.0,0.0,0.0,0.0,0.0,0.0,0.0,0.0,0.0,0.0,0.0,0.0,0.0,0.0,0.0,0.0,0.0,0.0,0.0,0.0,0.0,0.0,0.0,0.0,0.0,0.0,0.0,0.0,0.0,0.0,0.0,0.0,0.0,0.0,0.0,0.0,0.0,0.0,0.0,0.0,0.0,0.0,0.0,0.0,0.0,0.0,0.0,0.0,0.0,0.0,0.0,0.0,0.0,0.0,0.0,0.0,0.0,0.0,0.0,0.0,0.0,0.0,0.0,0.0,0.0,0.0,0.0,0.0,0.0,0.0,0.0,0.0,0.0,0.0,0.0,0.0,0.0,0.0,0.0,0.0,0.0,0.0,0.0,0.0,0.0,0.0,0.0,0.0,0.0,0.0,0.0,0.0,0.0,0.0,0.0,0.0,0.0,0.0,0.0,0.0,0.0,0.0,0.0,0.0,0.0,0.0,0.0,0.0,0.0,0.0,0.0,0.0,0.0,0.0,0.0,0.0,0.0,0.0,0.0,0.0,0.0,0.0,0.0,0.0,0.0,0.0,0.0,0.0,0.0,0.0,0.0,0.0,0.0,0.0,0.0,0.0,0.0,0.0,0.0,0.0,0.0,0.0,0.0,0.0,0.0,0.0,0.0,0.0,0.0,0.0,0.0,0.0,0.0,0.0,0.0,0.0,0.0,0.0,0.0,0.0,0.0,0.0,0.0,0.0,0.0,0.0,0.0,0.0,0.0,0.0,0.0,0.0,0.0,0.0,0.0,0.0,0.0,0.0,0.0,0.0,0.0,0.0,0.0,0.0,0.0,0.0,0.0,0.0,0.0,0.0,0.0,0.0,0.0,0.0,0.0,0.0,0.0,0.0,0.0,0.0,0.0,0.0,0.0,0.0,0.0,0.0,0.0,0.0,0.0,0.0,0.0,0.0,0.0,0.0,0.0,0.0,0.0,0.0,0.0,0.0,0.0,0.0,0.0,0.0,0.0,0.0,0.0,0.0,0.0,0.0,0.0,0.0,0.0,0.0,0.0,0.0,0.0,0.0,0.0,0.0,0.0,0.0,0.0,0.0,0.0,0.0,0.0,0.0,0.0,0.0,0.0,0.0,0.0,0.0,0.0,0.0,0.0,0.0,0.0,0.0,0.0,0.0,0.0,0.0,0.0,0.0,0.0,0.0,0.0,0.0,0.0,0.0,0.0,0.0,0.0,0.0,0.0,0.0,0.0,0.0,0.0,0.0,0.0,0.0,0.0,0.0,0.0,0.0,0.0,0.0,0.0,0.0,0.0,0.0,0.0,0.0,0.0,0.0,0.0,0.0,0.0,0.0,0.0,0.0,0.0,0.0,0.0,0.0,0.0,0.0,0.0,0.0,0.0,0.0,0.0,-2.4074,0.0,0.0,0.0,0.0,0.0,0.0,0.0,0.0,0.0,0.0,0.0,0.0,0.0,0.0,0.0,0.0,0.0,0.0,0.0,0.0,0.0,0.0,0.0,0.0,0.0,0.0,0.0,0.0,0.0,0.0,0.0,0.0,0.0,0.0,0.0,0.0,0.0,0.0,0.0,0.0,0.0,0.0,0.0,0.0,0.0,0.0,0.0,0.0,0.0,0.0,0.0,0.0,0.0,0.0,0.0,0.0,0.0,0.0,0.0,0.0,0.0,0.0,0.0,0.0,0.0,0.0,0.0,0.0,0.0,0.0,0.0,0.0,0.0,0.0,0.0,0.0,0.0,0.0,0.0,0.0,0.0,0.0,0.0,0.0,0.0,0.0,0.0,0.0,0.0,0.0,0.0,0.0,0.0,0.0,0.0,0.0,0.0,0.0,0.0,0.0,0.0,0.0,0.0,0.0,0.0,0.0,0.0,0.0,0.0,0.0,-2.7531,-2.7984,-2.6683,-2.535,-2.3977,0.0,0.0,0.0,0.0,0.0,0.0,0.0,0.0,0.0,0.0,0.0,0.0,0.0,0.0,0.0,0.0,0.0,0.0,0.0,0.0,0.0,0.0,0.0,0.0,0.0,0.0,0.0,0.0,0.0,0.0,0.0,0.0,0.0,0.0,0.0,0.0,0.0,0.0,0.0,0.0,0.0,0.0,0.0,0.0,0.0,0.0,0.0,0.0,0.0,0.0,0.0,0.0,0.0,0.0,0.0,0.0,0.0,0.0,0.0,0.0,0.0,0.0,0.0,0.0,0.0,0.0,0.0,0.0,0.0,0.0,0.0,0.0,0.0,0.0,0.0,0.0,0.0,0.0,0.0,0.0,0.0,0.0,0.0,0.0,0.0,0.0,0.0,0.0,0.0,0.0,0.0,0.0,0.0,0.0,0.0,0.0,0.0,0.0,0.0,0.0,0.0,0.0,0.0,0.0,0.0,0.0,0.0,0.0,0.0,0.0,0.0,0.0,-2.6965,-2.5559,-2.4023,0.0,0.0,0.0,0.0,0.0,0.0,0.0,0.0,0.0,0.0,0.0,0.0,0.0,0.0,0.0,0.0,0.0,0.0,0.0,0.0,0.0,0.0,0.0,0.0,0.0,0.0,0.0,0.0,0.0,0.0,0.0,0.0,0.0,0.0,0.0,0.0,0.0,0.0,0.0,0.0,0.0,0.0,0.0,0.0,0.0,0.0,0.0,0.0,0.0,0.0,0.0,0.0,0.0,0.0,0.0,0.0,0.0,0.0,0.0,0.0,0.0,0.0,0.0,0.0,0.0,0.0,0.0,0.0,0.0,0.0,0.0,0.0,0.0,0.0,0.0,0.0,0.0,0.0,0.0,0.0,0.0,0.0,0.0,0.0,0.0,0.0,0.0,0.0,0.0,0.0,0.0,0.0,0.0,0.0,0.0,0.0,0.0,0.0,0.0,0.0,0.0,0.0,0.0,0.0,0.0,0.0,0.0,0.0,0.0,0.0,-2.7205,-2.806,-2.8107,0.0,-2.4969,0.0,0.0,0.0,0.0,0.0,0.0,0.0,0.0,0.0,0.0,0.0,0.0,0.0,0.0,0.0,0.0,0.0,0.0,0.0,0.0,0.0,0.0,0.0,0.0,0.0,0.0,0.0,0.0,0.0,0.0,0.0,0.0,0.0,0.0,0.0,0.0,0.0,0.0,0.0,0.0,0.0,0.0,0.0,0.0,0.0,0.0,0.0,0.0,0.0,0.0,0.0,0.0,0.0,0.0,0.0,0.0,0.0,0.0,0.0,0.0,0.0,0.0,0.0,0.0,0.0,0.0,0.0,0.0,0.0,0.0,0.0,0.0,0.0,0.0,0.0,0.0,0.0,0.0,0.0,0.0,0.0,0.0,0.0,0.0,0.0,0.0,0.0,0.0,0.0,0.0,0.0,0.0,0.0,0.0,0.0,0.0,0.0,0.0,0.0,0.0,0.0,0.0,0.0,0.0,0.0,0.0,0.0,0.0,0.0,0.0,-2.6922,-2.7665,-2.6162,-2.5159,0.0,0.0,0.0,0.0,0.0,0.0,0.0,0.0,0.0,0.0,0.0,0.0,0.0,0.0,0.0,0.0,0.0,0.0,0.0,0.0,0.0,0.0,0.0,0.0,0.0,0.0,0.0,0.0,0.0,0.0,0.0,0.0,0.0,0.0,0.0,0.0,0.0,0.0,0.0,0.0,0.0,0.0,0.0,0.0,0.0,0.0,0.0,0.0,0.0,0.0,0.0,0.0,0.0,0.0,0.0,0.0,0.0,0.0,0.0,0.0,0.0,0.0,0.0,0.0,0.0,0.0,0.0,0.0,0.0,0.0,0.0,0.0,0.0,0.0,0.0,0.0,0.0,0.0,0.0,0.0,0.0,0.0,0.0,0.0,0.0,0.0,0.0,0.0,0.0,0.0,0.0,0.0,0.0,0.0,0.0,0.0,0.0,0.0,0.0,0.0,0.0,0.0,0.0,0.0,0.0,0.0,0.0,0.0,0.0,0.0,-2.6578,-2.6963,-2.7383,-2.5611,-2.456,-2.4369,0.0,0.0,0.0,0.0,0.0,0.0,0.0,0.0,0.0,0.0,0.0,0.0,0.0,0.0,0.0,0.0,0.0,0.0,0.0,0.0,0.0,0.0,0.0,0.0,0.0,0.0,0.0,0.0,0.0,0.0,0.0,0.0,0.0,0.0,0.0,0.0,0.0,0.0,0.0,0.0,0.0,0.0,0.0,0.0,0.0,0.0,0.0,0.0,0.0,0.0,0.0,0.0,0.0,0.0,0.0,0.0,0.0,0.0,0.0,0.0,0.0,0.0,0.0,0.0,0.0,0.0,0.0,0.0,0.0,0.0,0.0,0.0,0.0,0.0,0.0,0.0,0.0,0.0,0.0,0.0,0.0,0.0,0.0,0.0,0.0,0.0,0.0,0.0,0.0,0.0,0.0,0.0,0.0,0.0,0.0,0.0,0.0,0.0,0.0,0.0,0.0,0.0,0.0,0.0,0.0,0.0,0.0,0.0,-2.7248,-2.7348,-2.7511,-2.7764,-2.7753,-2.6718,0.0,0.0,0.0,0.0,0.0,0.0,0.0,0.0,0.0,0.0,0.0,0.0,0.0,0.0,0.0,0.0,0.0,0.0,0.0,0.0,0.0,0.0,0.0,0.0,0.0,0.0,0.0,0.0,0.0,0.0,0.0,0.0,0.0,0.0,0.0,0.0,0.0,0.0,0.0,0.0,0.0,0.0,0.0,0.0,0.0,0.0,0.0,0.0,0.0,0.0,0.0,0.0,0.0,0.0,0.0,0.0,0.0,0.0,0.0,0.0,0.0,0.0,0.0,0.0,0.0,0.0,0.0,0.0,0.0,0.0,0.0,0.0,0.0,0.0,0.0,0.0,0.0,0.0,0.0,0.0,0.0,0.0,0.0,0.0,0.0,0.0,0.0,0.0,0.0,0.0,0.0,0.0,0.0,0.0,0.0,0.0,0.0,0.0,0.0,0.0,0.0,0.0,0.0,0.0,0.0,0.0,0.0,0.0,0.0,-2.6394,-2.6456,-2.7039,-2.824,-2.5758,-2.4504,0.0,0.0,0.0,0.0,0.0,0.0,0.0,0.0,0.0,0.0,0.0,0.0,0.0,0.0,0.0,0.0,0.0,0.0,0.0,0.0,0.0,0.0,0.0,0.0,0.0,0.0,0.0,0.0,0.0,0.0,0.0,0.0,0.0,0.0,0.0,0.0,0.0,0.0,0.0,0.0,0.0,0.0,0.0,0.0,0.0,0.0,0.0,0.0,0.0,0.0,0.0,0.0,0.0,0.0,0.0,0.0,0.0,0.0,0.0,0.0,0.0,0.0,0.0,0.0,0.0,0.0,0.0,0.0,0.0,0.0,0.0,0.0,0.0,0.0,0.0,0.0,0.0,0.0,0.0,0.0,0.0,0.0,0.0,0.0,0.0,0.0,0.0,0.0,0.0,0.0,0.0,0.0,0.0,0.0,0.0,0.0,0.0,0.0,0.0,0.0,0.0,0.0,0.0,0.0,0.0,0.0,0.0,0.0,0.0,-2.6119,0.0,-2.6876,-2.7638,-2.4954,-2.3832,0.0,0.0,0.0,0.0,0.0,0.0,0.0,0.0,0.0,0.0,0.0,0.0,0.0,0.0,0.0,0.0,0.0,0.0,0.0,0.0,0.0,0.0,0.0,0.0,0.0,0.0,0.0,0.0,0.0,0.0,0.0,0.0,0.0,0.0,0.0,0.0,0.0,0.0,0.0,0.0,0.0,0.0,0.0,0.0,0.0,0.0,0.0,0.0,0.0,0.0,0.0,0.0,0.0,0.0,0.0,0.0,0.0,0.0,0.0,0.0,0.0,0.0,0.0,0.0,0.0,0.0,0.0,0.0,0.0,0.0,0.0,0.0,0.0,0.0,0.0,0.0,0.0,0.0,0.0,0.0,0.0,0.0,0.0,0.0,0.0,0.0,0.0,0.0,0.0,0.0,0.0,0.0,0.0,0.0,0.0,0.0,0.0,0.0,0.0,0.0,0.0,0.0,0.0,0.0,0.0,0.0,0.0,0.0,-2.5564,-2.6613,-2.7174,-2.6939,-2.5861,-2.5754,-2.5106,0.0,0.0,0.0,0.0,0.0,0.0,0.0,0.0,0.0,0.0,0.0,0.0,0.0,0.0,0.0,0.0,0.0,0.0,0.0,0.0,0.0,0.0,0.0,0.0,0.0,0.0,0.0,0.0,0.0,0.0,0.0,0.0,0.0,0.0,0.0,0.0,0.0,0.0,0.0,0.0,0.0,0.0,0.0,0.0,0.0,0.0,0.0,0.0,0.0,0.0,0.0,0.0,0.0,0.0,0.0,0.0,0.0,0.0,0.0,0.0,0.0,0.0,0.0,0.0,0.0,0.0,0.0,0.0,0.0,0.0,0.0,0.0,0.0,0.0,0.0,0.0,0.0,0.0,0.0,0.0,0.0,0.0,0.0,0.0,0.0,0.0,0.0,0.0,0.0,0.0,0.0,0.0,0.0,0.0,0.0,0.0,0.0,0.0,0.0,0.0,0.0,0.0,0.0,0.0,0.0,0.0,0.0,0.0,0.0,-2.5401,-2.5545,-2.582,-2.6192,-2.4322,-2.3489,0.0,0.0,0.0,0.0,0.0,0.0,0.0,0.0,0.0,0.0,0.0,0.0,0.0,0.0,0.0,0.0,0.0,0.0,0.0,0.0,0.0,0.0,0.0,0.0,0.0,0.0,0.0,0.0,0.0,0.0,0.0,0.0,0.0,0.0,0.0,0.0,0.0,0.0,0.0,0.0,0.0,0.0,0.0,0.0,0.0,0.0,0.0,0.0,0.0,0.0,0.0,0.0,0.0,0.0,0.0,0.0,0.0,0.0,0.0,0.0,0.0,0.0,0.0,0.0,0.0,0.0,0.0,0.0,0.0,0.0,0.0,0.0,0.0,0.0,0.0,0.0,0.0,0.0,0.0,0.0,0.0,0.0,0.0,0.0,0.0,0.0,0.0,0.0,0.0,0.0,0.0,0.0,0.0,0.0,0.0,0.0,0.0,0.0,0.0,0.0,0.0,0.0,0.0,0.0,0.0,0.0,0.0,0.0,0.0,-2.4165,-2.4947,-2.5413,-2.5456,-2.3666,-2.2979,-2.3564,0.0,0.0,0.0,0.0,0.0,0.0,0.0,0.0,0.0,0.0,0.0,0.0,0.0,0.0,0.0,0.0,0.0,0.0,0.0,0.0,0.0,0.0,0.0,0.0,0.0,0.0,0.0,0.0,0.0,0.0,0.0,0.0,0.0,0.0,0.0,0.0,0.0,0.0,0.0,0.0,0.0,0.0,0.0,0.0,0.0,0.0,0.0,0.0,0.0,0.0,0.0,0.0,0.0,0.0,0.0,0.0,0.0,0.0,0.0,0.0,0.0,0.0,0.0,0.0,0.0,0.0,0.0,0.0,0.0,0.0,0.0,0.0,0.0,0.0,0.0,0.0,0.0,0.0,0.0,0.0,0.0,0.0,0.0,0.0,0.0,0.0,0.0,0.0,0.0,0.0,0.0,0.0,0.0,0.0,0.0,0.0,0.0,0.0,0.0,0.0,0.0,0.0,0.0,0.0,0.0,0.0,0.0,0.0,-2.2991,-2.5123,-2.55,-2.3923,-2.3796,-2.3477,0.0,0.0,0.0,0.0,0.0,0.0,0.0,0.0,0.0,0.0,0.0,0.0,0.0,0.0,0.0,0.0,0.0,0.0,0.0,0.0,0.0,0.0,0.0,0.0,0.0,0.0,0.0,0.0,0.0,0.0,0.0,0.0,0.0,0.0,0.0,0.0,0.0,0.0,0.0,0.0,0.0,0.0,0.0,0.0,0.0,0.0,0.0,0.0,0.0,0.0,0.0,0.0,0.0,0.0,0.0,0.0,0.0,0.0,0.0,0.0,0.0,0.0,0.0,0.0,0.0,0.0,0.0,0.0,0.0,0.0,0.0,0.0,0.0,0.0,0.0,0.0,0.0,0.0,0.0,0.0,0.0,0.0,0.0,0.0,0.0,0.0,0.0,0.0,0.0,0.0,0.0,0.0,0.0,0.0,0.0,0.0,0.0,0.0,0.0,0.0,0.0,0.0,0.0,0.0,0.0,0.0,0.0,0.0,0.0,-2.2255,-2.367,-2.442,-2.4302,-2.3954,-2.3799,0.0,0.0,0.0,0.0,0.0,0.0,0.0,0.0,0.0,0.0,0.0,0.0,0.0,0.0,0.0,0.0,0.0,0.0,0.0,0.0,0.0,0.0,0.0,0.0,0.0,0.0,0.0,0.0,0.0,0.0,0.0,0.0,0.0,0.0,0.0,0.0,0.0,0.0,0.0,0.0,0.0,0.0,0.0,0.0,0.0,0.0,0.0,0.0,0.0,0.0,0.0,0.0,0.0,0.0,0.0,0.0,0.0,0.0,0.0,0.0,0.0,0.0,0.0,0.0,0.0,0.0,0.0,0.0,0.0,0.0,0.0,0.0,0.0,0.0,0.0,0.0,0.0,0.0,0.0,0.0,0.0,0.0,0.0,0.0,0.0,0.0,0.0,0.0,0.0,0.0,0.0,0.0,0.0,0.0,0.0,0.0,0.0,0.0,0.0,0.0,0.0,0.0,0.0,0.0,0.0,0.0,0.0,0.0,-2.2526,-2.1583,-2.2737,-2.3384,-2.3376,-2.3448,-2.3494,0.0,0.0,0.0,0.0,0.0,0.0,0.0,0.0,0.0,0.0,0.0,0.0,0.0,0.0,0.0,0.0,0.0,0.0,0.0,0.0,0.0,0.0,0.0,0.0,0.0,0.0,0.0,0.0,0.0,0.0,0.0,0.0,0.0,0.0,0.0,0.0,0.0,0.0,0.0,0.0,0.0,0.0,0.0,0.0,0.0,0.0,0.0,0.0,0.0,0.0,0.0,0.0,0.0,0.0,0.0,0.0,0.0,0.0,0.0,0.0,0.0,0.0,0.0,0.0,0.0,0.0,0.0,0.0,0.0,0.0,0.0,0.0,0.0,0.0,0.0,0.0,0.0,0.0,0.0,0.0,0.0,0.0,0.0,0.0,0.0,0.0,0.0,0.0,0.0,0.0,0.0,0.0,0.0,0.0,0.0,0.0,0.0,0.0,0.0,0.0,0.0,0.0,0.0,0.0,0.0,0.0,0.0,0.0,-2.2197,-2.1019,-2.2007,-2.226,-2.1747,-2.2468,-2.2889,0.0,0.0,0.0,0.0,0.0,0.0,0.0,0.0,0.0,0.0,0.0,0.0,0.0,0.0,0.0,0.0,0.0,0.0,0.0,0.0,0.0,0.0,0.0,0.0,0.0,0.0,0.0,0.0,0.0,0.0,0.0,0.0,0.0,0.0,0.0,0.0,0.0,0.0,0.0,0.0,0.0,0.0,0.0,0.0,0.0,0.0,0.0,0.0,0.0,0.0,0.0,0.0,0.0,0.0,0.0,0.0,0.0,0.0,0.0,0.0,0.0,0.0,0.0,0.0,0.0,0.0,0.0,0.0,0.0,0.0,0.0,0.0,0.0,0.0,0.0,0.0,0.0,0.0,0.0,0.0,0.0,0.0,0.0,0.0,0.0,0.0,0.0,0.0,0.0,0.0,0.0,0.0,0.0,0.0,0.0,0.0,0.0,0.0,0.0,0.0,0.0,0.0,0.0,0.0,0.0,0.0,0.0,0.0,-2.1111,-2.0366,-2.1073,-2.1194,-2.0694,-2.174,-2.2638,0.0,0.0,0.0,0.0,0.0,0.0,0.0,0.0,0.0,0.0,0.0,0.0,0.0,0.0,0.0,0.0,0.0,0.0,0.0,0.0,0.0,0.0,0.0,0.0,0.0,0.0,0.0,0.0,0.0,0.0,0.0,0.0,0.0,0.0,0.0,0.0,0.0,0.0,0.0,0.0,0.0,0.0,0.0,0.0,0.0,0.0,0.0,0.0,-2.5513,0.0,0.0,0.0,0.0,0.0,0.0,0.0,0.0,0.0,0.0,0.0,0.0,0.0,0.0,0.0,0.0,0.0,0.0,0.0,0.0,0.0,0.0,0.0,0.0,0.0,0.0,0.0,0.0,0.0,0.0,0.0,0.0,0.0,0.0,0.0,0.0,0.0,0.0,0.0,0.0,0.0,0.0,0.0,0.0,0.0,0.0,0.0,0.0,0.0,0.0,0.0,0.0,0.0,0.0,0.0,0.0,0.0,0.0,0.0,-2.1146,-2.0161,-2.0741,-2.0858,-2.0344,-2.1365,-2.2305,0.0,0.0,0.0,0.0,0.0,0.0,0.0,0.0,0.0,0.0,0.0,0.0,0.0,0.0,0.0,0.0,0.0,0.0,0.0,0.0,0.0,0.0,0.0,0.0,0.0,0.0,0.0,0.0,0.0,0.0,0.0,0.0,0.0,0.0,0.0,0.0,0.0,0.0,0.0,0.0,0.0,0.0,0.0,0.0,0.0,0.0,0.0,0.0,0.0,0.0,0.0,0.0,0.0,0.0,0.0,0.0,0.0,0.0,0.0,0.0,0.0,0.0,0.0,0.0,0.0,0.0,0.0,0.0,0.0,0.0,0.0,0.0,0.0,0.0,0.0,0.0,0.0,0.0,0.0,0.0,0.0,0.0,0.0,0.0,0.0,0.0,0.0,0.0,0.0,0.0,0.0,0.0,0.0,0.0,0.0,0.0,0.0,0.0,0.0,0.0,0.0,0.0,0.0,0.0,0.0,0.0,0.0,-2.1519,-2.1129,-2.0226,-2.0741,-2.0794,-2.0386,-2.1302,-2.2137,-2.2896,0.0,0.0,0.0,0.0,0.0,0.0,0.0,0.0,0.0,0.0,0.0,0.0,0.0,0.0,0.0,0.0,0.0,0.0,0.0,0.0,0.0,0.0,0.0,0.0,0.0,0.0,0.0,0.0,0.0,0.0,0.0,0.0,0.0,0.0,0.0,0.0,0.0,0.0,-2.2085,-2.3303,0.0,0.0,0.0,0.0,0.0,0.0,0.0,0.0,-2.4901,0.0,0.0,0.0,0.0,0.0,0.0,0.0,0.0,0.0,0.0,0.0,0.0,0.0,0.0,0.0,0.0,0.0,0.0,0.0,0.0,0.0,0.0,0.0,0.0,0.0,0.0,0.0,0.0,0.0,0.0,0.0,0.0,0.0,0.0,0.0,0.0,0.0,0.0,0.0,0.0,0.0,0.0,0.0,0.0,0.0,0.0,0.0,0.0,0.0,0.0,0.0,0.0,0.0,0.0,0.0,0.0,-2.0815,-1.9651,-1.95,-2.0515,-2.0462,-2.0515,-2.0771,-2.2002,-2.2836,-2.3078,0.0,0.0,0.0,0.0,0.0,0.0,0.0,0.0,0.0,0.0,0.0,0.0,0.0,0.0,0.0,0.0,0.0,0.0,0.0,0.0,0.0,0.0,0.0,0.0,0.0,0.0,0.0,0.0,0.0,0.0,0.0,0.0,0.0,0.0,0.0,0.0,0.0,0.0,0.0,-2.2791,-2.2823,0.0,0.0,0.0,0.0,0.0,0.0,0.0,0.0,-2.5406,0.0,0.0,0.0,0.0,0.0,0.0,0.0,0.0,0.0,0.0,0.0,0.0,0.0,0.0,0.0,0.0,0.0,0.0,0.0,0.0,0.0,0.0,0.0,0.0,0.0,0.0,0.0,0.0,0.0,0.0,0.0,0.0,0.0,0.0,0.0,0.0,0.0,0.0,0.0,0.0,0.0,0.0,0.0,0.0,0.0,0.0,0.0,0.0,0.0,0.0,0.0,0.0,0.0,0.0,0.0,-2.0224,-2.0504,-2.0568,-2.0526,-2.1175,-2.1302,-2.0812,-2.2187,-2.2957,0.0,0.0,0.0,0.0,0.0,0.0,0.0,0.0,0.0,0.0,0.0,0.0,0.0,0.0,0.0,0.0,0.0,0.0,0.0,0.0,0.0,0.0,0.0,0.0,0.0,0.0,0.0,0.0,0.0,0.0,0.0,0.0,0.0,0.0,0.0,0.0,0.0,0.0,0.0,0.0,-2.299,-2.3269,-2.2735,0.0,0.0,0.0,0.0,0.0,0.0,-2.4494,-2.4682,0.0,0.0,0.0,0.0,0.0,0.0,0.0,0.0,0.0,0.0,0.0,0.0,0.0,0.0,0.0,0.0,0.0,0.0,0.0,0.0,0.0,0.0,0.0,0.0,0.0,0.0,0.0,0.0,0.0,0.0,0.0,0.0,0.0,0.0,0.0,0.0,0.0,0.0,0.0,0.0,0.0,0.0,0.0,0.0,0.0,0.0,0.0,0.0,0.0,0.0,0.0,0.0,0.0,0.0,0.0,-1.9947,-2.1331,-2.167,-2.0869,-2.1901,-2.2075,-2.1141,-2.231,-2.2957,0.0,0.0,0.0,0.0,0.0,0.0,0.0,0.0,0.0,0.0,0.0,0.0,0.0,0.0,0.0,0.0,0.0,0.0,0.0,0.0,0.0,0.0,0.0,0.0,0.0,0.0,0.0,0.0,0.0,0.0,0.0,0.0,0.0,0.0,0.0,0.0,0.0,0.0,0.0,0.0,0.0,-2.3991,-2.354,-2.3527,0.0,0.0,0.0,0.0,-2.4524,-2.4188,0.0,0.0,0.0,0.0,0.0,0.0,0.0,0.0,0.0,0.0,0.0,0.0,0.0,0.0,0.0,0.0,0.0,0.0,0.0,0.0,0.0,0.0,0.0,0.0,0.0,0.0,0.0,0.0,0.0,0.0,0.0,0.0,0.0,0.0,0.0,0.0,0.0,0.0,0.0,0.0,0.0,0.0,0.0,0.0,0.0,0.0,0.0,0.0,0.0,0.0,0.0,0.0,0.0,0.0,0.0,0.0,-2.0205,-2.022,-2.0765,-2.183,-2.2002,-2.2002,-2.1978,-2.2689,-2.3078,0.0,0.0,0.0,0.0,0.0,0.0,0.0,0.0,0.0,0.0,0.0,0.0,0.0,0.0,0.0,0.0,0.0,0.0,0.0,0.0,0.0,0.0,0.0,0.0,0.0,0.0,0.0,0.0,0.0,0.0,0.0,0.0,0.0,0.0,0.0,0.0,0.0,0.0,0.0,0.0,0.0,-2.4211,-2.2991,-2.2803,-2.2726,0.0,0.0,-2.373,-2.4496,-2.4641,0.0,0.0,0.0,0.0,0.0,0.0,0.0,0.0,0.0,0.0,0.0,0.0,0.0,0.0,0.0,0.0,0.0,0.0,0.0,0.0,0.0,0.0,0.0,0.0,0.0,0.0,0.0,0.0,0.0,0.0,0.0,0.0,0.0,0.0,0.0,0.0,0.0,0.0,0.0,0.0,0.0,0.0,0.0,0.0,0.0,0.0,0.0,0.0,0.0,0.0,0.0,0.0,0.0,0.0,0.0,-2.1511,-2.0251,-2.1176,-2.1762,-2.199,-2.2384,-2.2445,-2.2101,-2.31,-2.3662,0.0,0.0,0.0,0.0,0.0,0.0,0.0,0.0,0.0,0.0,0.0,0.0,0.0,0.0,0.0,0.0,0.0,0.0,0.0,0.0,0.0,0.0,0.0,0.0,0.0,0.0,0.0,0.0,0.0,0.0,0.0,0.0,0.0,0.0,0.0,0.0,0.0,0.0,0.0,0.0,0.0,0.0,-2.3477,-2.3311,0.0,0.0,0.0,-2.3486,-2.4165,0.0,0.0,0.0,0.0,0.0,0.0,0.0,0.0,0.0,0.0,0.0,0.0,0.0,0.0,0.0,0.0,0.0,0.0,0.0,0.0,0.0,0.0,0.0,0.0,0.0,0.0,0.0,0.0,0.0,0.0,0.0,0.0,0.0,0.0,0.0,0.0,0.0,0.0,0.0,0.0,0.0,0.0,0.0,0.0,0.0,0.0,0.0,0.0,0.0,0.0,0.0,0.0,0.0,0.0,0.0,0.0,0.0,-2.0471,-2.2194,-2.2823,-2.2249,-2.2823,-2.2871,-2.2372,-2.3458,0.0,0.0,0.0,0.0,0.0,0.0,0.0,0.0,0.0,0.0,0.0,0.0,0.0,0.0,0.0,0.0,0.0,0.0,0.0,0.0,0.0,0.0,0.0,0.0,0.0,0.0,0.0,-2.4146,0.0,0.0,0.0,0.0,0.0,0.0,0.0,0.0,0.0,0.0,0.0,0.0,0.0,0.0,-2.4564,-2.3949,-2.3717,-2.3859,0.0,0.0,-2.3262,-2.3942,-2.3991,-2.4142,0.0,0.0,0.0,0.0,0.0,0.0,0.0,0.0,0.0,0.0,0.0,0.0,0.0,0.0,0.0,0.0,0.0,0.0,0.0,0.0,0.0,0.0,0.0,0.0,0.0,0.0,0.0,0.0,0.0,0.0,0.0,0.0,0.0,0.0,0.0,0.0,0.0,0.0,0.0,0.0,0.0,0.0,0.0,0.0,0.0,0.0,0.0,0.0,0.0,0.0,0.0,0.0,0.0,0.0,-2.248,-2.1299,-2.2468,-2.3078,-2.3005,-2.3078,-2.3078,-2.3078,-2.3708,-2.4131,0.0,0.0,0.0,0.0,0.0,0.0,0.0,0.0,0.0,0.0,0.0,0.0,0.0,0.0,0.0,0.0,0.0,0.0,0.0,0.0,0.0,0.0,0.0,0.0,0.0,0.0,0.0,0.0,0.0,0.0,0.0,0.0,0.0,0.0,0.0,0.0,0.0,0.0,0.0,0.0,0.0,-2.4632,-2.4054,-2.345,-2.3323,0.0,-2.3477,-2.3262,-2.3867,-2.3991,-2.4017,-2.4054,0.0,0.0,0.0,0.0,0.0,0.0,0.0,0.0,0.0,0.0,0.0,0.0,0.0,0.0,0.0,0.0,0.0,0.0,0.0,0.0,0.0,0.0,0.0,0.0,0.0,0.0,0.0,0.0,0.0,0.0,0.0,0.0,0.0,0.0,0.0,0.0,0.0,0.0,0.0,0.0,0.0,0.0,0.0,0.0,0.0,0.0,0.0,0.0,0.0,0.0,0.0,0.0,0.0,-2.2539,-2.1462,-2.2514,-2.3125,-2.3125,-2.3125,-2.3305,-2.3721,-2.4337,-2.4794,0.0,0.0,0.0,0.0,0.0,0.0,0.0,0.0,0.0,0.0,0.0,0.0,0.0,0.0,0.0,0.0,0.0,0.0,0.0,0.0,0.0,0.0,0.0,0.0,0.0,0.0,0.0,0.0,-2.6165,-2.6321,-2.684,0.0,0.0,0.0,0.0,0.0,0.0,0.0,0.0,0.0,0.0,-2.4478,-2.355,-2.3135,0.0,0.0,-2.3464,-2.3077,-2.3392,-2.3753,-2.3879,-2.3527,-2.3778,0.0,0.0,0.0,0.0,0.0,0.0,0.0,0.0,0.0,0.0,0.0,0.0,0.0,0.0,0.0,0.0,0.0,0.0,0.0,0.0,0.0,0.0,0.0,0.0,0.0,0.0,0.0,0.0,0.0,0.0,0.0,0.0,0.0,0.0,0.0,0.0,0.0,0.0,0.0,0.0,0.0,0.0,0.0,0.0,0.0,0.0,0.0,0.0,0.0,0.0,0.0,0.0,-2.2673,-2.1744,-2.2602,-2.3198,-2.3424,-2.3424,-2.3721,-2.4337,-2.4964,-2.5481,0.0,0.0,0.0,0.0,0.0,0.0,0.0,0.0,0.0,0.0,0.0,0.0,0.0,0.0,0.0,0.0,0.0,0.0,0.0,0.0,0.0,0.0,0.0,0.0,0.0,0.0,0.0,0.0,-2.6901,-2.7016,-2.7225,0.0,0.0,0.0,0.0,0.0,0.0,0.0,0.0,0.0,0.0,-2.4292,-2.3292,-2.3081,-2.3218,-2.3666,-2.3492,-2.3329,-2.3391,-2.4039,-2.4453,-2.4045,0.0,0.0,0.0,0.0,0.0,0.0,0.0,0.0,0.0,0.0,0.0,0.0,0.0,0.0,0.0,0.0,0.0,0.0,0.0,0.0,0.0,0.0,0.0,0.0,0.0,0.0,0.0,0.0,0.0,0.0,-2.5865,0.0,0.0,0.0,0.0,0.0,0.0,0.0,0.0,0.0,0.0,0.0,0.0,0.0,0.0,0.0,0.0,0.0,0.0,0.0,0.0,0.0,0.0,-2.2836,-2.2309,-2.2836,-2.3424,-2.4073,-2.406,-2.435,-2.4951,-2.555,-2.5893,-2.5948,0.0,0.0,0.0,0.0,0.0,0.0,0.0,0.0,0.0,0.0,0.0,0.0,0.0,0.0,0.0,0.0,0.0,0.0,0.0,0.0,0.0,0.0,0.0,0.0,0.0,0.0,-2.758,-2.7545,-2.7509,0.0,0.0,0.0,0.0,0.0,0.0,0.0,0.0,0.0,0.0,-2.4325,-2.4012,-2.3457,-2.3236,-2.3128,-2.3201,-2.3653,-2.4004,-2.4041,-2.5146,-2.6043,0.0,0.0,0.0,0.0,0.0,0.0,0.0,0.0,0.0,0.0,0.0,0.0,0.0,0.0,0.0,0.0,0.0,0.0,0.0,0.0,0.0,0.0,0.0,0.0,0.0,0.0,0.0,-2.7795,-2.7432,0.0,0.0,0.0,0.0,0.0,0.0,0.0,0.0,0.0,0.0,0.0,-2.7265,-2.7806,0.0,0.0,0.0,0.0,0.0,0.0,0.0,0.0,0.0,0.0,0.0,0.0,-2.3096,-2.2941,-2.3848,-2.4452,-2.4681,-2.4681,-2.4964,-2.5605,-2.5784,-2.6283,-2.7093,0.0,0.0,0.0,0.0,0.0,0.0,0.0,0.0,0.0,0.0,0.0,0.0,0.0,0.0,0.0,0.0,0.0,0.0,0.0,0.0,0.0,0.0,0.0,0.0,0.0,-2.756,0.0,0.0,0.0,0.0,0.0,0.0,0.0,0.0,0.0,0.0,0.0,-2.6169,-2.5269,-2.5003,-2.4745,-2.4195,-2.3752,-2.3872,0.0,0.0,0.0,0.0,0.0,0.0,0.0,0.0,0.0,0.0,0.0,0.0,0.0,0.0,-3.3697,-3.261,-3.1665,-3.1126,-3.1112,0.0,0.0,0.0,0.0,0.0,0.0,0.0,0.0,0.0,0.0,0.0,0.0,0.0,0.0,-2.8448,0.0,-2.8057,0.0,0.0,0.0,0.0,0.0,0.0,0.0,0.0,-2.9668,-2.955,-2.8795,-2.9135,-2.8941,0.0,-2.8186,-2.7552,0.0,0.0,0.0,0.0,0.0,0.0,0.0,0.0,-2.3798,-2.388,-2.4579,-2.5133,-2.53,-2.53,-2.5591,-2.6165,-2.6351,-2.6849,-2.7685,-2.7655,-2.7636,0.0,0.0,0.0,0.0,0.0,0.0,0.0,0.0,0.0,0.0,0.0,0.0,0.0,0.0,0.0,0.0,0.0,0.0,0.0,0.0,0.0,0.0,0.0,-2.7845,0.0,0.0,0.0,0.0,0.0,0.0,0.0,0.0,0.0,-2.7169,-2.7669,-2.7863,-2.6739,-2.6492,-2.6021,-2.5027,0.0,0.0,0.0,0.0,0.0,0.0,0.0,-2.8147,-2.8338,-2.8451,-2.8669,-2.9277,-3.1406,-3.3201,-3.3832,0.0,0.0,-3.4085,-3.351,-3.3223,-3.3237,-3.3244,-3.3121,-3.2691,-3.2801,-3.2905,0.0,0.0,0.0,0.0,0.0,0.0,0.0,0.0,-2.8697,-2.8753,0.0,-2.871,0.0,0.0,0.0,0.0,0.0,-2.9348,0.0,0.0,-3.0277,-3.0642,-3.0553,-3.0553,-3.0568,-3.0642,-3.0539,-2.9906,-2.8707,-2.7594,0.0,0.0,0.0,0.0,0.0,0.0,-2.498,-2.4993,-2.5063,-2.537,-2.5893,-2.5948,-2.6233,-2.6832,-2.7291,-2.76,-2.7754,-2.7673,-2.7937,-2.867,-2.7617,0.0,0.0,0.0,0.0,0.0,0.0,0.0,0.0,0.0,0.0,0.0,0.0,0.0,0.0,0.0,0.0,0.0,0.0,0.0,0.0,-2.8904,0.0,0.0,0.0,0.0,0.0,0.0,0.0,0.0,0.0,0.0,-2.8764,-2.9491,-2.9827,-2.8774,0.0,0.0,0.0,0.0,-2.596,-2.4855,-2.6085,-2.7239,-2.7353,-2.8944,-3.0225,-3.03,0.0,0.0,-3.1497,-3.3125,-3.4173,-3.3619,-3.4562,-3.5459,-3.5415,-3.532,-3.5365,-3.5365,-3.5365,-3.5474,-3.5409,-3.4721,-3.4269,-2.8496,0.0,0.0,0.0,0.0,-2.9508,-2.9674,-2.9779,-2.9957,-2.9769,-2.9363,-2.9363,0.0,0.0,0.0,0.0,0.0,0.0,-3.0306,-3.0306,-3.0495,-3.0642,-3.0642,-3.0642,-3.0642,-3.0642,-3.0642,-3.0406,-3.0053,-2.9686,-2.8102,-2.5349,0.0,0.0,0.0,0.0,-2.5201,-2.5632,-2.6042,-2.6394,-2.6553,-2.6568,-2.6841,-2.7414,-2.7963,-2.848,-2.8995,-2.9019,-2.9154,-2.9451,-2.9448,0.0,0.0,0.0,0.0,0.0,0.0,0.0,0.0,0.0,0.0,0.0,0.0,0.0,0.0,0.0,0.0,0.0,0.0,0.0,-2.9484,-2.9092,-2.9139,0.0,0.0,0.0,0.0,0.0,0.0,0.0,0.0,0.0,-3.0778,-3.0493,-2.9997,0.0,0.0,-2.7523,-2.6552,-2.6169,-2.6301,-2.7286,-2.7484,0.0,0.0,-2.9581,-2.9928,-3.0955,-3.1336,-3.1674,-3.2153,-3.2706,-3.317,-3.3425,-3.4188,-3.4771,-3.4801,-3.5175,-3.5459,-3.5489,-3.5489,-3.5489,-3.5489,-3.5294,-3.5133,-2.8976,-2.865,-2.9303,-2.9665,-2.9713,-2.9974,-3.0158,-3.028,-3.0732,-3.069,-3.0381,-3.0611,-3.0354,-2.9744,-2.9522,0.0,0.0,0.0,-3.0747,-3.0911,-3.0687,-3.0642,-3.0642,-3.0642,-3.0642,-3.0642,-3.0642,-3.0642,-3.0642,-3.0642,-2.9346,-2.6946,0.0,0.0,-2.5602,-2.5884,-2.6144,-2.6272,-2.6621,-2.687,-2.7063,-2.7357,-2.763,-2.7997,-2.8591,-2.9088,-2.9585,-2.9777,-2.9968,-3.007,-3.0062,-2.9873,0.0,0.0,0.0,0.0,0.0,0.0,0.0,0.0,0.0,0.0,0.0,-3.1421,-3.099,0.0,0.0,0.0,-3.1112,-3.0859,-3.0656,-3.0417,0.0,0.0,0.0,0.0,0.0,0.0,0.0,-3.3006,-3.2991,-3.2557,-3.1601,-3.1161,-3.0646,-2.9898,-2.9218,-2.8483,-2.7617,0.0,-2.7126,-2.7741,-2.7944,-2.8459,-2.957,-2.9566,-2.978,-3.0902,-3.1302,-3.1601,-3.2033,-3.2332,-3.2662,-3.3066,-3.3649,-3.4098,-3.4083,-3.4637,-3.522,-3.5444,-3.5489,-3.5489,-3.5489,-3.5489,-3.5429,-2.8619,-2.8675,-2.9341,-2.956,-2.9602,-2.9988,-3.0172,-3.0219,-3.1146,-3.1537,-3.1595,-3.216,-3.2028,-3.1466,-3.0925,0.0,-3.2342,-3.1248,-3.1043,-3.1537,-3.097,-3.0687,-3.0687,-3.0687,-3.0687,-3.0687,-3.0687,-3.0687,-3.0747,-3.0747,-3.0426,-2.9755,-2.974,-2.9042,-2.7795,-2.7665,-2.7414,-2.6899,-2.6922,-2.7152,-2.7565,-2.8222,-2.8559,-2.8606,-2.918,-2.954,-2.9673,-3.0156,-3.0459,-3.0452,-2.9864,-2.9781,-3.0361,0.0,0.0,0.0,0.0,0.0,0.0,0.0,0.0,0.0,0.0,0.0,0.0,0.0,0.0,0.0,-3.2663,0.0,-3.2883,-3.2436,0.0,0.0,0.0,-3.251,-3.2695,-3.3743,-3.4005,-3.275,0.0,0.0,-3.1747,-3.1582,-3.1509,-3.1465,-3.0866,-2.9971,-2.8749,-2.8503,-2.807,-2.7039,-2.775,-2.8517,-2.8727,-2.9167,-2.9794,-3.0462,-3.1031,-3.1435,-3.1627,-3.2105,-3.2451,-3.2658,-3.3126,-3.3577,-3.3577,-3.418,-3.4766,-3.5353,-3.5419,-3.5385,-3.5265,-3.5235,-3.5055,-2.8001,-2.8102,-2.9066,-2.9472,-2.9665,-3.0219,-3.0613,-3.0807,-3.1537,-3.1936,-3.216,-3.2342,-3.2305,-3.2151,-3.2026,-3.2118,-3.2382,-3.2104,-3.2048,-3.216,-3.2048,-3.1709,-3.1306,-3.1263,-3.1306,-3.1306,-3.1263,-3.1537,-3.1936,-3.1992,-3.1602,-3.091,-3.0879,-2.9849,-2.7752,-2.7571,-2.749,-2.7327,-2.773,-2.8061,-2.8255,-2.8811,-2.9182,-2.93,-2.9881,-3.0215,-3.0284,-3.0384,-3.0485,-3.0468,-3.0344,-3.0079,-2.9682,-2.9516,0.0,0.0,0.0,0.0,0.0,0.0,0.0,0.0,0.0,-3.2812,-3.1719,0.0,-3.3292,0.0,-3.2663,-3.3222,-3.4398,-3.3486,0.0,0.0,-3.4398,-3.425,-3.5096,-3.5134,-3.4751,-3.3911,-3.3917,-3.3547,-3.2338,-3.2176,-3.181,-3.0878,-3.0208,-2.9317,-2.8108,-2.7838,-2.7769,-2.7467,-2.7622,-2.8008,-2.8517,-2.9146,-2.9813,-3.0402,-3.0642,-3.108,-3.2028,-3.2298,-3.2557,-3.2959,-3.3599,-3.3964,-3.4026,-3.4587,-3.5038,-3.5229,-3.5003,-3.4562,-3.4098,-3.3993,-3.3933,-2.7613,-2.7726,-2.8742,-2.9334,-2.9579,-3.0646,-3.1175,-3.1392,-3.2114,-3.2571,-3.2788,-3.3033,-3.314,-3.314,-3.2857,-3.2911,-3.314,-3.2602,-3.2532,-3.2749,-3.2492,-3.2216,-3.1864,-3.1879,-3.1883,-3.1917,-3.1868,-3.1875,-3.1913,-3.1913,-3.1528,-3.0799,-3.0545,-2.9727,-2.8457,-2.8312,-2.8017,-2.7515,-2.8304,-2.8795,-2.8858,-2.9454,-2.987,-2.9968,-3.0258,-3.0443,-3.0468,-3.0468,-3.0468,-3.0468,-3.0468,-3.0559,-3.0704,-3.0687,-3.0958,0.0,0.0,0.0,0.0,0.0,0.0,0.0,0.0,0.0,0.0,0.0,-3.4121,-3.3707,-3.3972,-3.4556,-3.5447,-3.5119,-3.5201,-3.6053,-3.5812,-3.5623,-3.5635,-3.5642,-3.5291,-3.4297,-3.4218,-3.3841,-3.2897,-3.2469,-3.1911,-3.0913,-3.0201,-2.9355,-2.8261,-2.7824,-2.756,-2.756,-2.756,-2.7679,-2.8098,-2.8891,-2.9591,-2.9955,-3.0685,-3.1459,-3.2166,-3.2547,-3.2841,-3.3161,-3.3514,-3.3745,-3.3761,-3.4313,-3.4636,-3.4376,-3.4374,-3.4252,-3.3955,-3.3864,-3.3819,-2.7331,-2.7443,-2.8521,-2.9114,-2.9475,-3.0966,-3.1652,-3.1784,-3.2833,-3.3303,-3.3355,-3.3866,-3.4101,-3.405,-3.3527,-3.3578,-3.405,-3.3087,-3.2841,-3.3251,-3.2803,-3.2547,-3.2492,-3.2492,-3.2444,-3.2384,-3.2351,-3.2035,-3.1428,-3.1368,-3.1031,-3.0284,-2.9778,-2.9453,-2.9311,-2.9376,-2.8904,-2.7864,-2.8889,-2.9425,-2.9441,-3.006,-3.0401,-3.0417,-3.0485,-3.0468,-3.0485,-3.0634,-3.0726,-3.0742,-3.0891,-3.1431,-3.2462,-3.2451,-3.2901,0.0,-3.3982,0.0,0.0,0.0,0.0,0.0,0.0,0.0,0.0,-3.4833,-3.4949,-3.5032,-3.5545,-3.5926,-3.6125,-3.6638,-3.6754,-3.6241,-3.6704,-3.6585,-3.5337,-3.5707,-3.561,-3.4425,-3.4308,-3.4038,-3.324,-3.2621,-3.1937,-3.1031,-3.035,-2.965,-2.8794,-2.8173,-2.7845,-2.781,-2.781,-2.7925,-2.8016,-2.866,-2.9308,-2.9543,-3.0619,-3.1871,-3.2048,-3.259,-3.3085,-3.3216,-3.3351,-3.3364,-3.3375,-3.3948,-3.4123,-3.3734,-3.4012,-3.4281,-3.4146,-3.4025,-3.3964,-2.6842,-2.7269,-2.8353,-2.8951,-2.9291,-3.067,-3.1513,-3.1924,-3.3097,-3.3729,-3.3933,-3.4034,-3.4101,-3.4101,-3.3984,-3.3984,-3.4101,-3.3882,-3.3815,-3.3933,-3.3832,-3.3491,-3.3039,-3.3039,-3.2788,-3.2264,-3.2201,-3.2114,-3.1855,-3.1871,-3.1486,-3.0781,-3.0776,-3.0284,-2.9373,0.0,0.0,0.0,-2.9886,-3.006,-3.0189,-3.0316,-3.0401,-3.0485,-3.0468,0.0,-3.0543,-3.1431,-3.1955,-3.1996,-3.2878,0.0,0.0,0.0,0.0,0.0,0.0,0.0,0.0,0.0,0.0,0.0,-3.5062,-3.4516,-3.4064,-3.4551,-3.5131,-3.5711,-3.5396,-3.5611,-3.6771,-3.6473,-3.639,-3.6854,-3.7019,-3.6754,-3.5943,-3.591,-3.5712,-3.489,-3.4791,-3.4301,-3.3257,-3.2918,-3.2127,-3.0592,-3.0101,-2.9738,-2.9124,-2.8905,-2.8795,-2.8795,-2.8748,-2.8795,-2.8795,-2.8983,-2.9375,-2.98,-3.0067,-3.0831,-3.1726,-3.2031,-3.2595,-3.3401,-3.3691,-3.3857,-3.443,-3.4709,-3.4677,-3.4594,-3.4644,-3.4512,-3.3615,-3.3417,-3.3385,-2.7255,0.0,-2.8303,-2.8774,0.0,-3.0256,-3.0973,-3.1484,-3.2834,-3.3693,-3.4101,-3.4101,-3.4101,-3.4101,-3.4101,-3.4101,-3.4101,-3.4101,-3.4101,-3.4101,-3.4101,-3.374,-3.315,-3.315,-3.278,-3.209,-3.2093,-3.1887,-3.1469,-3.1505,-3.1196,-3.0453,-3.057,-3.0331,-2.9798,-3.0284,-3.0426,-3.0119,-3.0231,-3.0333,-3.0417,-3.0634,-3.0797,-3.0781,0.0,0.0,0.0,0.0,0.0,0.0,0.0,0.0,0.0,0.0,0.0,-3.5764,-3.5465,-3.5588,-3.6306,-3.6025,-3.592,-3.6205,-3.5904,-3.5429,-3.4762,-3.5141,-3.5446,-3.5462,-3.5446,-3.5744,-3.6473,-3.6539,-3.6555,-3.6572,-3.6572,-3.6274,-3.5595,-3.5462,-3.5313,-3.4949,-3.4648,-3.4157,-3.3496,-3.2774,-3.206,-3.0959,-3.0461,-3.0154,-2.9847,-2.9393,-2.9136,-2.9136,-2.9136,-2.9136,-2.912,-2.9303,-2.9518,-2.9886,-3.0406,-3.1005,-3.1638,-3.2043,-3.2541,-3.3148,-3.3524,-3.3938,-3.427,-3.4634,-3.4899,-3.4899,-3.4899,-3.4739,-3.4152,-3.3834,-3.3646,-2.7855,-2.794,-2.8284,-2.8716,-2.9169,-2.9785,-3.0384,-3.0995,0.0,0.0,0.0,-3.4036,-3.4101,-3.4101,-3.4101,-3.4101,-3.4101,-3.4101,-3.4101,-3.4084,-3.3971,-3.3615,-3.3097,-3.2951,-3.253,-3.1822,-3.1835,-3.1424,-3.0784,-3.0859,-3.0619,-3.0109,-3.0162,-3.0274,-3.0384,-3.0845,-3.0902,-3.051,-3.0551,-3.0634,-3.0634,-3.1004,-3.1201,-3.1201,-3.1528,-3.2076,-3.2873,-3.2965,-3.3419,-3.4341,-3.4471,-3.4993,-3.605,-3.6103,-3.6553,-3.7523,-3.7577,-3.7577,-3.7577,-3.7577,-3.7449,-3.7073,-3.6522,-3.6079,-3.5749,-3.5887,-3.5769,-3.5074,-3.559,-3.5891,-3.5875,-3.639,-3.6539,-3.5909,-3.5859,-3.5658,-3.5094,-3.5011,-3.4977,-3.4748,-3.4343,-3.3889,-3.3449,-3.2513,-3.1741,-3.143,-3.0865,-3.0526,-3.0426,-2.9837,-2.9438,-2.9438,-2.9499,-2.9393,-2.9393,-2.9661,-2.9897,-2.9989,-3.0724,-3.1361,-3.1461,-3.1918,-3.2299,-3.2464,-3.3011,-3.3359,-3.3591,-3.4154,-3.4667,-3.47,-3.4816,-3.4849,-3.4686,-3.4464,-3.4234,-2.7989,-2.8348,-2.8573,-2.8842,-2.9121,-2.9446,-3.0073,-3.104,-3.2465,-3.3145,-3.3275,-3.3841,-3.4101,-3.4101,-3.4101,-3.4101,-3.4101,-3.4101,-3.4101,0.0,-3.3485,-3.3178,-3.3064,-3.2449,-3.1738,-3.1108,-3.1027,-3.0745,-3.0196,-3.0163,-3.0158,-3.0205,-3.0316,-3.0593,-3.0965,-3.1376,-3.1565,-3.149,-3.149,-3.1528,-3.1528,-3.1565,-3.1603,-3.1603,-3.1694,-3.2076,-3.2855,-3.3242,-3.409,-3.5495,-3.5916,-3.6488,-3.7254,-3.7307,-3.7433,-3.7577,-3.7577,-3.7577,-3.7577,-3.7577,-3.7577,-3.7449,-3.6684,-3.619,-3.6147,-3.6148,-3.5966,-3.5526,-3.5616,-3.553,-3.5302,-3.5388,-3.5549,-3.5445,-3.5412,-3.5345,-3.5291,-3.5291,-3.5057,-3.4488,-3.4258,-3.3667,-3.2612,-3.2085,-3.1633,-3.1025,-3.075,-3.0609,-3.0526,-3.0384,-3.03,-3.03,-3.03,-3.03,-3.0215,-3.0342,-3.0342,-3.0384,-3.0525,-3.0716,-3.0716,-3.0891,-3.1189,-3.1669,-3.1924,-3.2249,-3.2729,-3.3442,-3.3856,-3.3972,-3.4352,-3.4584,-3.4087,-3.4292,-3.469,-2.825,-2.8396,-2.8605,-2.8842,-2.9121,-2.9547,-2.9948,-3.0441,-3.1461,-3.2141,-3.2562,-3.3226,-3.3566,-3.3599,-3.3939,-3.4101,-3.4101,-3.4101,-3.4101,-3.4052,-3.3404,-3.2886,-3.2465,-3.1769,-3.1056,-3.0376,-3.0389,-3.0386,-3.0342,-3.0477,-3.0683,-3.0891,-3.1027,-3.124,-3.1452,-3.1823,-3.202,-3.2003,-3.1787,-3.1694,-3.1714,-3.1913,-3.202,-3.202,-3.2231,-3.2721,-3.353,-3.3705,-3.434,-3.5421,-3.6079,-3.656,-3.6916,-3.7362,-3.7577,-3.7577,-3.7577,-3.7577,-3.7577,-3.7577,-3.7577,-3.7577,-3.7206,-3.6978,-3.6999,-3.6504,-3.6147,-3.5933,-3.595,-3.5907,-3.582,-3.582,-3.5864,-3.595,-3.5933,-3.5933,-3.5933,-3.5933,-3.5643,-3.4899,-3.4329,-3.3575,-3.2408,-3.1813,-3.1331,-3.0864,-3.0831,-3.079,-3.0733,-3.0733,-3.0692,-3.0526,-3.0468,-3.0468,-3.051,-3.0468,-3.0468,-3.0468,-3.0468,-3.0468,-3.0468,-3.0468,-3.0675,-3.0974,-3.1279,-3.1659,-3.21,-3.2696,-3.3094,-3.3226,-3.347,-3.3553,-3.3404,-3.3835,-3.4479,-2.8411,-2.8396,-2.8605,-2.8873,-2.9213,-2.9681,-2.9918,-2.9967,-3.0474,-3.1008,-3.1607,-3.2433,-3.2935,-3.3129,-3.3631,-3.3939,-3.4084,-3.4201,-3.4153,-3.3941,-3.3371,-3.2653,-3.1952,-3.1234,-3.0626,-3.0238,-3.0215,-3.0435,-3.0811,-3.101,-3.1244,-3.1514,-3.1733,-3.1823,-3.1841,-3.2249,-3.242,-3.242,-3.2127,-3.1967,-3.1967,-3.2283,-3.242,-3.2454,-3.2737,-3.3259,-3.4044,-3.3937,-3.4258,-3.515,-3.5792,-3.6221,-3.6417,-3.7166,-3.7577,-3.7577,-3.7577,-3.7577,-3.7577,-3.7577,-3.7577,-3.7577,-3.7577,-3.7613,-3.7631,-3.6999,-3.6504,-3.6422,-3.6405,-3.6446,-3.6422,-3.6464,-3.6487,-3.6568,-3.6591,-3.6568,-3.6609,-3.6591,-3.6207,-3.5275,-3.4493,-3.368,-3.2651,-3.1807,-3.1329,-3.1274,-3.1157,-3.1157,-3.1173,-3.1157,-3.1061,-3.0902,-3.0716,-3.0609,-3.0568,-3.0593,-3.0568,-3.0568,-3.0551,-3.0551,-3.0551,-3.051,-3.0468,-3.0626,-3.0974,-3.1229,-3.1421,-3.1994,-3.2453,-3.264,-3.2857,-3.304,-3.3328,-3.36,-3.4146,-2.8411,-2.8444,-2.8605,-2.9013,-2.9486,-2.977,-2.9918,-2.9918,-2.9999,-3.0032,-3.0308,-3.151,-3.2449,-3.3048,-3.3145,-3.3518,-3.4102,-3.4497,-3.4249,-3.3576,-3.3167,-3.2627,-3.19,-3.1149,-3.0871,-3.0908,-3.0965,-3.1089,-3.1384,-3.1459,-3.1568,-3.1714,-3.2056,-3.2231,-3.2283,-3.2621,-3.2834,-3.2834,-3.282,-3.2802,-3.2802,-3.282,-3.2834,-3.2834,-3.2884,-3.3259,-3.4008,-3.3384,-3.3669,-3.5061,-3.5257,-3.565,-3.6345,-3.7148,-3.7577,-3.7577,-3.7577,-3.7577,-3.7577,-3.7577,-3.7631,-3.7577,-3.7631,-3.7649,-3.7703,-3.7631,-3.7413,-3.719,-3.7097,-3.6999,-3.6729,-3.6706,-3.6786,-3.6921,-3.6921,-3.686,-3.69,-3.686,-3.6299,-3.4809,-3.4633,-3.3983,-3.2669,-3.2179,-3.2074,-3.1897,-3.1842,-3.1787,-3.1823,-3.1823,-3.1823,-3.1714,-3.1317,-3.0895,-3.0814,-3.0773,-3.0895,-3.0773,-3.0733,-3.0757,-3.0781,-3.0699,-3.051,-3.0797,-3.07,-3.0875,-3.0967,-3.1274,-3.1984,-3.2285,-3.2648,-3.3148,-3.3998,-3.3947,-3.4007,-2.8411,-2.8396,-2.8621,-2.9013,-2.9486,-2.977,-2.9989,-3.0113,-3.0113,-3.0241,-3.0476,-3.1054,-3.1466,-3.185,-3.2692,-3.3372,-3.381,-3.4445,-3.4391,-3.3831,-3.3261,-3.2596,-3.1893,-3.1261,-3.1044,-3.1123,-3.1227,-3.1497,-3.1844,-3.2179,-3.2351,-3.2403,-3.2588,-3.2639,-3.2672,-3.2802,-3.2916,-3.2916,-3.2916,-3.2916,-3.2916,-3.2916,-3.2916,-3.2916,-3.2916,-3.3041,-3.333,-3.3062,-3.3187,-3.3812,-3.4294,-3.49,-3.5667,-3.6453,-3.7095,-3.7523,-3.7649,-3.7685,-3.7793,-3.7793,-3.7793,-3.7793,-3.7775,-3.7792,-3.788,-3.788,-3.7845,-3.7792,-3.7685,-3.7577,-3.7469,-3.7469,-3.7523,-3.7667,-3.7667,-3.7667,-3.7667,-3.7667,-3.7059,-3.5576,-3.5117,-3.4357,-3.2993,-3.2419,-3.2317,-3.2231,-3.2196,-3.2214,-3.2179,-3.2179,-3.2179,-3.2144,-3.1896,-3.1694,-3.149,-3.1507,-3.1507,-3.1507,-3.147,-3.1452,-3.1414,-3.1452,-3.1397,-3.1359,-3.1338,-3.1338,-3.1487,-3.1568,-3.1953,-3.2149,-3.2183,-3.2694,-3.3593,-3.3567,-3.3899,-2.8411,-2.8444,-2.8779,-2.9227,-2.9633,-3.0,-3.0241,-3.0418,-3.0418,-3.0584,-3.0788,-3.0788,-3.08,-3.1078,-3.239,-3.3313,-3.3809,-3.4629,-3.4585,-3.3957,-3.3465,-3.2823,-3.1928,-3.155,-3.1393,-3.1452,-3.1716,-3.2004,-3.2334,-3.2687,-3.2916,-3.2916,-3.2916,-3.2916,-3.2916,-3.2916,-3.2916,-3.2916,-3.2916,-3.2916,-3.2916,-3.2916,-3.2916,-3.2916,-3.2916,-3.2916,-3.2916,-3.2916,-3.2916,-3.2934,-3.3651,-3.4347,-3.49,-3.5846,-3.6756,-3.7506,-3.7667,-3.7757,-3.7899,-3.7917,-3.7917,-3.7917,-3.7917,-3.7934,-3.7984,-3.8018,-3.807,-3.814,-3.809,-3.8003,-3.8054,-3.8036,-3.8088,-3.8192,-3.8192,-3.8192,-3.8192,-3.8192,-3.7633,-3.6349,-3.5918,-3.5086,-3.3655,-3.2959,-3.2651,-3.2619,-3.2619,-3.2603,-3.2603,-3.2636,-3.2636,-3.2603,-3.2603,-3.2437,-3.2127,-3.2021,-3.2056,-3.2021,-3.1986,-3.195,-3.2021,-3.2021,-3.2003,-3.1714,-3.1932,-3.1967,-3.1823,-3.1913,-3.2056,-3.2074,-3.2249,-3.2599,-3.3441,-3.3529,-3.4233,-2.8411,-2.8477,-2.9241,-2.9689,-3.0027,-3.0518,-3.0764,-3.0747,-3.0747,-3.0804,-3.0828,-3.0828,-3.0821,-3.0965,-3.2369,-3.3406,-3.4153,-3.5205,-3.4948,-3.3794,-3.3928,-3.3261,-3.1903,-3.1982,-3.2091,-3.2162,-3.2369,-3.2621,-3.2834,-3.2866,-3.2916,-3.2916,-3.2916,-3.2916,-3.2916,-3.2916,-3.2916,-3.2916,-3.2916,-3.2916,-3.2916,-3.2916,-3.2898,-3.2916,-3.2916,-3.2916,-3.2916,-3.2916,-3.2916,-3.2916,-3.3648,-3.413,-3.4311,-3.5648,-3.6898,-3.7613,-3.7739,-3.7774,-3.7916,-3.7969,-3.7969,-3.7934,-3.7985,-3.7951,-3.8068,-3.8101,-3.8153,-3.8207,-3.8274,-3.8223,-3.815,-3.8044,-3.8083,-3.8101,-3.8101,-3.8065,-3.8156,-3.8065,-3.7812,-3.7069,-3.6711,-3.5937,-3.4617,-3.3834,-3.3418,-3.3346,-3.334,-3.3304,-3.3226,-3.3286,-3.3256,-3.3238,-3.3208,-3.3037,-3.2316,-3.2334,-3.2299,-3.2299,-3.2368,-3.2179,-3.2092,-3.2039,-3.2056,-3.2074,-3.2214,-3.2214,-3.2074,-3.2092,-3.2179,-3.2401,-3.2816,-3.3251,-3.3499,-3.4422,-3.492,-2.8411,-2.8493,-2.9241,-2.9673,-2.9821,-3.0502,-3.0925,-3.1123,-3.1123,-3.1257,-3.1411,-3.1428,-3.1428,-3.1479,-3.2468,-3.3233,-3.3905,-3.5179,-3.5369,-3.4631,-3.4743,-3.4051,-3.2852,-3.2876,-3.2809,-3.2541,-3.2705,-3.2852,-3.2884,-3.2916,-3.2916,-3.2916,-3.2916,-3.2916,-3.2916,-3.2916,-3.2916,-3.2916,-3.2916,-3.2916,-3.2916,-3.2916,-3.2961,-3.3068,-3.2961,-3.2916,-3.2916,-3.3024,-3.3099,-3.3099,-3.3545,-3.425,-3.5331,-3.6894,-3.8,-3.8413,-3.8499,-3.8511,-3.8591,-3.8591,-3.8591,-3.8591,-3.8591,-3.8591,-3.8633,-3.8633,-3.8651,-3.87,-3.87,-3.8516,-3.7985,-3.7635,-3.7413,-3.7359,-3.6979,-3.6924,-3.7286,-3.7413,-3.7286,-3.6993,-3.658,-3.5765,-3.4969,-3.4353,-3.419,-3.4117,-3.3719,-3.3465,-3.3393,-3.3393,-3.3393,-3.3393,-3.3393,-3.3304,-3.3037,-3.2975,-3.2993,-3.2975,-3.2975,-3.2925,-3.2876,-3.2813,-3.283,-3.2766,-3.2766,-3.2734,-3.2716,-3.2716,-3.2781,-3.2844,-3.3274,-3.3334,-3.3525,-3.4163,-3.4546,-2.892,-2.909,-2.9717,-3.0064,-3.0218,-3.0828,-3.124,-3.1466,-3.1466,-3.1579,-3.1763,-3.18,-3.18,-3.1921,-3.2576,-3.3029,-3.3488,-3.4643,-3.4957,-3.4525,-3.4794,-3.4341,-3.345,-3.3739,-3.3759,-3.3385,-3.3301,-3.3184,-3.2934,-3.2916,-3.2916,-3.2916,-3.2916,-3.2916,-3.2916,-3.2916,-3.2916,-3.2898,-3.2961,-3.2993,-3.2993,-3.3086,-3.3178,-3.3298,-3.3208,-3.3117,-3.3117,-3.3268,-3.3327,-3.3375,-3.3738,-3.4717,-3.6316,-3.7546,-3.8394,-3.8773,-3.8868,-3.8924,-3.898,-3.9008,-3.898,-3.9008,-3.9008,-3.9008,-3.9008,-3.9008,-3.9008,-3.9008,-3.899,-3.8665,-3.7923,-3.7243,-3.6845,-3.6716,-3.6173,-3.6001,-3.6526,-3.6834,-3.6979,-3.6957,-3.658,-3.5892,-3.5186,-3.5041,-3.486,-3.4679,-3.4099,-3.3755,-3.3465,-3.3393,-3.3393,-3.3393,-3.3393,-3.3393,-3.3256,-3.3226,-3.3256,-3.3256,-3.3226,-3.3345,-3.3393,-3.3393,-3.3393,-3.3393,-3.3393,-3.3393,-3.3393,-3.3393,-3.3393,-3.3393,-3.3364,-3.3388,-3.3551,-3.3725,-3.4069,-2.9968,-3.0208,-3.0642,-3.0868,-3.1123,-3.1542,-3.1763,-3.1763,-3.1763,-3.1746,-3.18,-3.18,-3.18,-3.1938,-3.2472,-3.2886,-3.3003,-3.3675,-3.38,-3.3356,-3.4133,-3.4126,-3.3434,-3.4463,-3.4854,-3.4659,-3.4282,-3.3651,-3.2952,-3.2916,-3.2916,-3.2916,-3.2916,-3.2916,-3.2916,-3.2916,-3.2916,-3.2961,-3.3117,-3.319,-3.322,-3.3415,-3.353,-3.3605,-3.3559,-3.3559,-3.3587,-3.3605,-3.3623,-3.3769,-3.4392,-3.5531,-3.6948,-3.7573,-3.7927,-3.8718,-3.8868,-3.8952,-3.9036,-3.9063,-3.909,-3.909,-3.9063,-3.9109,-3.9136,-3.909,-3.9053,-3.8968,-3.8941,-3.8635,-3.7761,-3.6976,-3.6453,-3.6211,-3.583,-3.5672,-3.5937,-3.654,-3.6975,-3.7003,-3.6962,-3.6667,-3.6073,-3.5864,-3.5647,-3.5077,-3.4624,-3.4244,-3.3701,-3.3502,-3.3393,-3.3393,-3.3393,-3.3393,-3.3393,-3.3393,-3.3393,-3.3393,-3.3345,-3.3393,-3.3393,-3.3393,-3.3393,-3.3393,-3.3393,-3.3393,-3.3393,-3.3393,-3.3393,-3.3393,-3.3393,-3.3393,-3.3502,-3.3628,-3.3719,-2.9837,-3.0011,-3.0543,-3.0845,-3.1004,-3.1542,-3.18,-3.18,-3.18,-3.18,-3.18,-3.18,-3.18,-3.1834,-3.2059,-3.2145,-3.2162,-3.2438,-3.2962,-3.3838,-3.4714,-3.4853,-3.4603,-3.5313,-3.5279,-3.4495,-3.4207,-3.3687,-3.3059,-3.2916,-3.2916,-3.2916,-3.2916,-3.2961,-3.3117,-3.3011,-3.3042,-3.3327,-3.325,-3.328,-3.3444,-3.3559,-3.3689,-3.3807,-3.3807,-3.3868,-3.3979,-3.3868,-3.4109,-3.4587,-3.5053,-3.6107,-3.7638,-3.8621,-3.9133,-3.9476,-3.9556,-3.9604,-3.9604,-3.9604,-3.9604,-3.9604,-3.9604,-3.9628,-3.9628,-3.9604,-3.9359,-3.8907,-3.878,-3.8271,-3.6986,-3.6325,-3.5987,-3.5666,-3.508,-3.4999,-3.5653,-3.6711,-3.7192,-3.6989,-3.769,-3.7842,-3.7149,-3.6833,-3.6644,-3.6131,-3.5326,-3.4582,-3.4274,-3.3796,-3.3411,-3.3393,-3.3393,-3.3462,-3.352,-3.3559,-3.353,-3.3491,-3.3481,-3.3393,-3.3393,-3.3393,-3.3393,-3.3393,-3.3393,-3.3393,-3.3393,-3.3393,-3.3393,-3.3393,-3.3393,-3.3411,-3.3447,-3.3502,-3.3592,-3.0351,-3.0493,-3.0902,-3.11,-3.1218,-3.1617,-3.18,-3.18,-3.18,-3.18,-3.18,-3.18,-3.18,-3.18,-3.18,-3.18,-3.18,-3.18,-3.2431,-3.3626,-3.4746,-3.5019,-3.5048,-3.6112,-3.6078,-3.5062,-3.4668,-3.4115,-3.3348,-3.3059,-3.2948,-3.2993,-3.3024,-3.3147,-3.3309,-3.3238,-3.3345,-3.353,-3.353,-3.3541,-3.368,-3.3762,-3.4042,-3.4367,-3.4208,-3.4432,-3.5045,-3.4804,-3.4784,-3.5384,-3.6056,-3.7255,-3.8662,-3.934,-3.9739,-3.9804,-3.9867,-3.9889,-3.9889,-3.9848,-3.9889,-3.9889,-3.9889,-3.9889,-3.9889,-3.9889,-3.9551,-3.885,-3.8698,-3.8017,-3.6574,-3.6077,-3.5757,-3.5244,-3.4647,-3.4742,-3.5676,-3.6716,-3.7087,-3.6976,-3.77,-3.7766,-3.7082,-3.7311,-3.7253,-3.682,-3.6278,-3.5381,-3.5089,-3.4495,-3.4119,-3.3826,-3.3734,-3.3762,-3.3726,-3.3726,-3.3707,-3.3643,-3.3567,-3.3481,-3.3393,-3.3393,-3.3393,-3.3393,-3.3393,-3.3393,-3.3393,-3.3393,-3.3393,-3.3393,-3.3393,-3.3393,-3.3411,-3.3411,-3.3465,-3.1325,-3.1479,-3.1479,-3.1576,-3.1726,-3.18,-3.18,-3.18,-3.18,-3.18,-3.18,-3.18,-3.18,-3.18,-3.18,-3.1837,-3.1837,-3.1893,-3.2126,-3.2845,-3.397,-3.4818,-3.5279,-3.672,-3.6934,-3.6128,-3.552,-3.4753,-3.3888,-3.3297,-3.3024,-3.322,-3.325,-3.3357,-3.3559,-3.3587,-3.3587,-3.3698,-3.3788,-3.3868,-3.3921,-3.4055,-3.4513,-3.52,-3.4742,-3.5051,-3.6123,-3.6133,-3.5909,-3.6077,-3.7464,-3.8606,-3.9344,-3.9628,-3.9717,-3.9758,-3.9826,-3.9889,-3.9889,-3.9889,-3.9813,-3.9721,-3.9794,-3.9832,-3.9759,-3.9646,-3.9342,-3.8565,-3.8397,-3.775,-3.6405,-3.5987,-3.5646,-3.5039,-3.4733,-3.516,-3.6291,-3.6708,-3.7026,-3.7056,-3.7352,-3.7411,-3.6359,-3.7262,-3.7347,-3.7201,-3.7256,-3.657,-3.5829,-3.5147,-3.4878,-3.4519,-3.4067,-3.4023,-3.3965,-3.3947,-3.3947,-3.3895,-3.3807,-3.3698,-3.3559,-3.352,-3.3422,-3.3422,-3.3433,-3.3422,-3.3393,-3.3393,-3.3393,-3.3393,-3.3393,-3.3393,-3.3393,-3.3393,-3.3422,-3.123,-3.1308,-3.144,-3.1517,-3.1593,-3.1726,-3.18,-3.18,-3.18,-3.18,-3.18,-3.18,-3.1837,-3.18,-3.1837,-3.1929,-3.2161,-3.2231,-3.2419,-3.2891,-3.3956,-3.5226,-3.6231,-3.7288,-3.7262,-3.6218,-3.5802,-3.5084,-3.3803,-3.3531,-3.3415,-3.3502,-3.3502,-3.3615,-3.378,-3.3698,-3.378,-3.3972,-3.3921,-3.3954,-3.4099,-3.4191,-3.4338,-3.4638,-3.5086,-3.5549,-3.625,-3.7205,-3.7694,-3.7718,-3.8677,-3.9383,-3.9632,-3.9762,-3.9826,-3.9826,-3.9848,-3.9889,-3.9889,-3.9851,-3.9627,-3.9134,-3.9475,-3.9646,-3.9058,-3.902,-3.8603,-3.7845,-3.7239,-3.6481,-3.5533,-3.5287,-3.5116,-3.504,-3.5318,-3.5821,-3.6406,-3.743,-3.8146,-3.8184,-3.8313,-3.8221,-3.8158,-3.8028,-3.8147,-3.8074,-3.7594,-3.6968,-3.6292,-3.5317,-3.4825,-3.4487,-3.4173,-3.4173,-3.4191,-3.4191,-3.4173,-3.4148,-3.4099,-3.4074,-3.3947,-3.3815,-3.3615,-3.3462,-3.3549,-3.3577,-3.3462,-3.3422,-3.3393,-3.352,-3.3491,-3.352,-3.3433,-3.3404,-3.3462,-3.123,-3.1346,-3.144,-3.1555,-3.1614,-3.1763,-3.18,-3.18,-3.18,-3.18,-3.1837,-3.1948,-3.1984,-3.202,-3.2179,-3.2335,-3.2553,-3.2601,-3.2777,-3.3219,-3.4105,-3.5416,-3.663,-3.7174,-3.6858,-3.6455,-3.5757,-3.4943,-3.4142,-3.3769,-3.3661,-3.3698,-3.3726,-3.3834,-3.3998,-3.3921,-3.3947,-3.4148,-3.4074,-3.408,-3.4197,-3.4569,-3.5021,-3.5341,-3.5949,-3.6349,-3.7039,-3.832,-3.8999,-3.9025,-3.9452,-3.9781,-3.9804,-3.9867,-3.9889,-3.9889,-3.9889,-3.9889,-3.9813,-3.9627,-3.9191,-3.8774,-3.8925,-3.8812,-3.8717,-3.8679,-3.8319,-3.7504,-3.6955,-3.614,-3.5192,-3.4908,-3.5097,-3.5495,-3.6196,-3.667,-3.6689,-3.7883,-3.8565,-3.8698,-3.8698,-3.862,-3.869,-3.8463,-3.8578,-3.8619,-3.815,-3.7568,-3.6906,-3.5739,-3.4798,-3.4547,-3.4435,-3.4498,-3.452,-3.452,-3.4386,-3.4323,-3.4057,-3.411,-3.4003,-3.3895,-3.3873,-3.3688,-3.3716,-3.3744,-3.3689,-3.3671,-3.3762,-3.3815,-3.3753,-3.3698,-3.3698,-3.3615,-3.3643,-3.1325,-3.1479,-3.1479,-3.1576,-3.178,-3.1837,-3.1893,-3.1856,-3.1965,-3.1948,-3.202,-3.2249,-3.2352,-3.2369,-3.2586,-3.2844,-3.2934,-3.2965,-3.3148,-3.3626,-3.4418,-3.5553,-3.6522,-3.6407,-3.651,-3.6625,-3.5451,-3.484,-3.4421,-3.3918,-3.3798,-3.3895,-3.3921,-3.4023,-3.4124,-3.4173,-3.4216,-3.4197,-3.4221,-3.4221,-3.4375,-3.4976,-3.5658,-3.6229,-3.6911,-3.7615,-3.8471,-3.9372,-3.9769,-3.9698,-3.9845,-3.9889,-3.9889,-3.9889,-3.9889,-3.9889,-3.9889,-3.9889,-3.9757,-3.9229,-3.8641,-3.8414,-3.7807,-3.7618,-3.8111,-3.815,-3.7902,-3.7447,-3.7334,-3.6519,-3.5723,-3.5211,-3.5514,-3.6215,-3.7049,-3.7485,-3.7694,-3.83,-3.8831,-3.8793,-3.8793,-3.8281,-3.8016,-3.8054,-3.8546,-3.8184,-3.7829,-3.726,-3.6713,-3.5864,-3.5167,-3.4829,-3.4792,-3.487,-3.487,-3.487,-3.4679,-3.4508,-3.4035,-3.3862,-3.369,-3.3668,-3.3873,-3.3864,-3.3529,-3.3677,-3.4067,-3.4099,-3.4111,-3.4099,-3.3972,-3.4074,-3.4148,-3.4023,-3.3972,-3.123,-3.1269,-3.144,-3.1517,-3.1614,-3.1984,-3.2179,-3.2214,-3.2453,-3.2519,-3.2586,-3.2684,-3.2716,-3.2716,-3.2827,-3.2983,-3.3302,-3.339,-3.3597,-3.4109,-3.4918,-3.5406,-3.5964,-3.603,-3.6426,-3.6454,-3.5806,-3.4973,-3.4419,-3.4227,-3.4074,-3.4124,-3.4099,-3.4148,-3.4216,-3.4216,-3.4216,-3.4221,-3.4293,-3.4358,-3.4531,-3.5273,-3.5983,-3.6506,-3.7596,-3.8666,-3.941,-3.9794,-3.987,-3.9867,-3.9889,-3.9889,-3.9889,-3.9889,-3.9889,-3.9889,-3.9889,-3.9889,-3.9719,-3.9096,-3.8378,-3.7713,-3.7371,-3.7182,-3.6689,-3.6841,-3.7011,-3.7068,-3.6841,-3.6651,-3.6632,-3.6215,-3.6405,-3.7068,-3.7826,-3.8378,-3.8527,-3.9115,-3.9513,-3.9475,-3.9096,-3.8643,-3.8397,-3.7864,-3.7902,-3.7675,-3.7258,-3.6746,-3.6272,-3.5817,-3.5363,-3.4908,-3.4908,-3.4908,-3.4851,-3.4699,-3.432,-3.4074,-3.3657,-3.3222,-3.3069,-3.3098,-3.3181,-3.3198,-3.3128,-3.3459,-3.3929,-3.4162,-3.4088,-3.4152,-3.4245,-3.4316,-3.4321,-3.4293,-3.4316,-3.123,-3.1346,-3.144,-3.1651,-3.1893,-3.2179,-3.2369,-3.257,-3.2716,-3.2795,-3.2844,-3.2952,-3.3032,-3.3063,-3.3214,-3.3447,-3.3771,-3.4265,-3.4792,-3.5268,-3.559,-3.5665,-3.5943,-3.594,-3.5988,-3.6073,-3.572,-3.5014,-3.4476,-3.4531,-3.46,-3.4234,-3.4216,-3.4216,-3.4216,-3.4216,-3.4216,-3.4197,-3.4269,-3.4316,-3.4558,-3.5652,-3.6953,-3.7615,-3.8666,-3.9429,-3.9832,-3.987,-3.9889,-3.9889,-3.987,-3.9889,-3.9889,-3.9889,-3.9889,-3.9889,-3.9889,-3.9665,-3.9304,-3.8546,-3.7714,-3.6917,-3.65,-3.631,-3.6159,-3.6196,-3.6576,-3.7087,-3.7087,-3.6973,-3.7315,-3.7106,-3.7201,-3.7845,-3.8395,-3.8812,-3.9229,-3.9646,-3.9889,-3.9813,-3.9532,-3.9096,-3.866,-3.8073,-3.7656,-3.7599,-3.6841,-3.6329,-3.6159,-3.5685,-3.523,-3.4908,-3.4908,-3.4889,-3.4794,-3.4453,-3.379,-3.3411,-3.2937,-3.2444,-3.2089,-3.2204,-3.2335,-3.2441,-3.2639,-3.3173,-3.3612,-3.3829,-3.4161,-3.4454,-3.4569,-3.4526,-3.4545,-3.4586,-3.4628,-3.1308,-3.1462,-3.1538,-3.1839,-3.2249,-3.2403,-3.2619,-3.2858,-3.2921,-3.3045,-3.3014,-3.3273,-3.3361,-3.3437,-3.3652,-3.3905,-3.4423,-3.5199,-3.5943,-3.6333,-3.598,-3.6129,-3.637,-3.6129,-3.5862,-3.5683,-3.5776,-3.5256,-3.468,-3.494,-3.4903,-3.4346,-3.4216,-3.4216,-3.4216,-3.4197,-3.4221,-3.4245,-3.4311,-3.4381,-3.4738,-3.6077,-3.7736,-3.9146,-3.9535,-3.9712,-3.987,-3.9889,-3.9889,-3.9889,-3.9775,-3.9797,-3.987,-3.9889,-3.9775,-3.9719,-3.9608,-3.9229,-3.849,-3.7732,-3.6955,-3.6291,-3.5476,-3.5457,-3.595,-3.6083,-3.6424,-3.7106,-3.7466,-3.7694,-3.775,-3.7675,-3.8054,-3.8641,-3.8888,-3.921,-3.9702,-3.9889,-3.9889,-3.987,-3.9719,-3.9418,-3.8869,-3.8281,-3.7864,-3.7353,-3.6557,-3.5893,-3.5666,-3.5344,-3.4737,-3.4169,-3.3979,-3.3903,-3.3847,-3.343,-3.2861,-3.252,-3.2084,-3.1629,-3.1156,-3.118,-3.1372,-3.1955,-3.2278,-3.2694,-3.3185,-3.3582,-3.3998,-3.4586,-3.4832,-3.4733,-3.4792,-3.4889,-3.4813,-3.1252,-3.1389,-3.1768,-3.202,-3.23,-3.2844,-3.3142,-3.3243,-3.3494,-3.3652,-3.3625,-3.368,-3.368,-3.3734,-3.3734,-3.4255,-3.5095,-3.6059,-3.663,-3.6853,-3.6575,-3.6668,-3.6556,-3.6612,-3.6408,-3.65,-3.65,-3.585,-3.4791,-3.4977,-3.5014,-3.4401,-3.4123,-3.4123,-3.403,-3.4179,-3.4083,-3.4172,-3.4319,-3.4427,-3.5023,-3.6373,-3.808,-3.9618,-3.9826,-3.9848,-3.987,-3.9889,-3.9889,-3.9813,-3.9248,-3.9323,-3.957,-3.97,-3.9475,-3.9134,-3.8906,-3.8509,-3.7675,-3.6898,-3.6784,-3.667,-3.5761,-3.5344,-3.5742,-3.5666,-3.6026,-3.7163,-3.8092,-3.8717,-3.9399,-3.8831,-3.8906,-3.9418,-3.9627,-3.9702,-3.9832,-3.9889,-3.9889,-3.9889,-3.9794,-3.9589,-3.8925,-3.8186,-3.7504,-3.6803,-3.5969,-3.5154,-3.4605,-3.4263,-3.3809,-3.324,-3.2728,-3.2691,-3.2691,-3.2141,-3.1629,-3.144,-3.108,-3.0703,-3.0343,-3.0173,-3.0435,-3.1099,-3.1516,-3.1782,-3.2351,-3.3051,-3.3486,-3.3771,-3.4282,-3.4813,-3.451,-3.4226,-3.4586,-3.162,-3.1896,-3.2179,-3.247,-3.2766,-3.3124,-3.3408,-3.355,-3.3753,-3.3807,-3.3807,-3.3807,-3.3807,-3.3807,-3.386,-3.4602,-3.5925,-3.6893,-3.7522,-3.7764,-3.7541,-3.7039,-3.6891,-3.7076,-3.6352,-3.6259,-3.6798,-3.6723,-3.5144,-3.5739,-3.5107,-3.3863,-3.3566,-3.338,-3.305,-3.2966,-3.3366,-3.3661,-3.388,-3.4252,-3.4883,-3.6516,-3.8186,-3.9437,-3.987,-3.9889,-3.9889,-3.9889,-3.9665,-3.9286,-3.8888,-3.8698,-3.866,-3.8622,-3.8641,-3.8546,-3.8262,-3.7675,-3.6955,-3.6348,-3.6234,-3.595,-3.5306,-3.5135,-3.5325,-3.5306,-3.5742,-3.7144,-3.866,-3.9475,-3.9797,-3.9494,-3.9589,-3.9757,-3.9889,-3.9889,-3.9889,-3.9911,-3.9911,-3.9911,-3.9876,-3.9534,-3.8774,-3.7997,-3.7125,-3.6272,-3.5401,-3.4529,-3.3657,-3.3335,-3.3032,-3.252,-3.2046,-3.1914,-3.1839,-3.1421,-3.089,-3.0606,-3.04,-3.004,-2.9907,-2.9926,-3.0021,-3.0381,-3.0701,-3.0985,-3.1421,-3.2065,-3.2501,-3.2937,-3.3297,-3.3581,-3.3562,-3.3619,-3.3941,-3.1967,-3.2419,-3.2603,-3.288,-3.319,-3.335,-3.355,-3.378,-3.3807,-3.3807,-3.3807,-3.3807,-3.3807,-3.3944,-3.4447,-3.5365,-3.6885,-3.7755,-3.8432,-3.8655,-3.8172,-3.7522,-3.7503,-3.7169,-3.6816,-3.6203,-3.663,-3.7299,-3.5572,-3.585,-3.4977,-3.3621,-3.2934,-3.2488,-3.2065,-3.2191,-3.2481,-3.277,-3.3098,-3.3652,-3.4942,-3.6365,-3.7959,-3.9532,-3.9819,-3.9935,-3.9956,-3.9732,-3.9429,-3.8897,-3.8402,-3.7982,-3.7488,-3.7088,-3.7296,-3.7902,-3.7637,-3.6955,-3.6253,-3.6481,-3.6272,-3.5666,-3.5306,-3.5211,-3.5325,-3.5685,-3.6083,-3.739,-3.885,-3.9665,-3.9608,-3.9797,-3.9854,-3.987,-3.9889,-3.9911,-3.9935,-3.9956,-3.9977,-3.9977,-3.9956,-3.952,-3.8817,-3.7864,-3.7011,-3.5761,-3.487,-3.3714,-3.2937,-3.2766,-3.2444,-3.1933,-3.1516,-3.1271,-3.112,-3.093,-3.0495,-3.021,-3.0135,-2.9945,-2.9907,-2.9907,-3.0002,-3.0078,-3.0078,-3.04,-3.0758,-3.1156,-3.1724,-3.2122,-3.2274,-3.252,-3.2842,-3.2937,-3.3089,-3.1967,-3.2453,-3.2862,-3.3111,-3.3262,-3.3597,-3.3753,-3.3807,-3.3807,-3.3807,-3.3807,-3.3807,-3.3807,-3.4136,-3.5495,-3.6656,-3.759,-3.8423,-3.8897,-3.8952,-3.8377,-3.8154,-3.8321,-3.7299,-3.6983,-3.6296,-3.6147,-3.5386,-3.4643,-3.5089,-3.4624,-3.3045,-3.2172,-3.1823,-3.1529,-3.1584,-3.2075,-3.2216,-3.241,-3.3318,-3.4851,-3.6008,-3.7355,-3.859,-3.9545,-3.989,-3.9719,-3.9375,-3.8972,-3.8741,-3.7449,-3.7071,-3.7185,-3.597,-3.5837,-3.6386,-3.6803,-3.6727,-3.5666,-3.6234,-3.6708,-3.6007,-3.5912,-3.6007,-3.5912,-3.6348,-3.6841,-3.7315,-3.8869,-3.9496,-3.925,-3.9551,-3.9797,-3.9914,-3.9956,-4.0019,-4.006,-4.008,-4.008,-4.012,-4.012,-3.9546,-3.8878,-3.7887,-3.686,-3.5552,-3.4263,-3.3163,-3.2234,-3.2022,-3.1686,-3.1137,-3.0909,-3.0684,-3.0646,-3.0419,-3.0267,-2.9907,-2.9907,-2.9907,-2.9907,-2.9907,-2.9907,-2.9945,-2.9907,-2.9907,-3.0248,-3.0663,-3.108,-3.1326,-3.1497,-3.1933,-3.2425,-3.2406,-3.216,-3.2619,-3.305,-3.3298,-3.3426,-3.3512,-3.3726,-3.3807,-3.3807,-3.3807,-3.3807,-3.3807,-3.3807,-3.386,-3.4308,-3.5779,-3.6729,-3.7394,-3.8507,-3.9082,-3.9082,-3.8655,-3.8284,-3.7726,-3.7355,-3.7095,-3.556,-3.52,-3.4494,-3.377,-3.3459,-3.3231,-3.1879,-3.1303,-3.0823,-3.076,-3.0714,-3.1073,-3.1711,-3.2703,-3.4135,-3.5562,-3.661,-3.7411,-3.8174,-3.9069,-3.9219,-3.8892,-3.8584,-3.8079,-3.768,-3.6692,-3.637,-3.637,-3.6031,-3.6129,-3.6396,-3.72,-3.6728,-3.542,-3.6178,-3.6406,-3.6387,-3.6159,-3.5931,-3.5817,-3.6235,-3.6766,-3.6727,-3.8224,-3.8911,-3.8992,-3.9583,-3.9909,-4.0081,-4.01,-4.0139,-4.0176,-4.0194,-4.0212,-4.0248,-4.017,-3.9563,-3.8898,-3.7981,-3.6934,-3.5717,-3.4342,-3.3026,-3.1924,-3.1127,-3.0741,-3.0246,-3.0132,-3.0078,-3.0116,-3.0059,-3.0116,-2.9907,-2.9907,-2.9907,-2.9907,-2.9907,-2.9907,-2.9907,-2.9907,-2.9907,-2.9926,-3.0116,-3.0511,-3.0644,-3.072,-3.108,-3.1383,-3.108,-3.1023,-3.319,-3.352,-3.3577,-3.3633,-3.3689,-3.378,-3.3807,-3.3807,-3.3807,-3.3807,-3.3807,-3.3825,-3.3979,-3.4497,-3.5621,-3.6385,-3.6835,-3.8172,-3.8674,-3.8822,-3.8887,-3.8486,-3.7862,-3.7508,-3.6012,-3.3627,-3.3738,-3.3161,-3.2284,-3.188,-3.1643,-3.0665,-3.0599,-3.0245,-2.9869,-2.9992,-3.0484,-3.1416,-3.2492,-3.3949,-3.5515,-3.6549,-3.7067,-3.7658,-3.8191,-3.8511,-3.7955,-3.7636,-3.719,-3.6863,-3.6358,-3.6036,-3.6032,-3.6293,-3.6431,-3.6642,-3.7124,-3.6657,-3.5869,-3.6025,-3.635,-3.6369,-3.6274,-3.6119,-3.5683,-3.595,-3.6274,-3.6406,-3.7585,-3.8385,-3.8746,-3.9318,-3.9851,-4.0096,-4.0285,-4.0317,-4.0351,-4.0351,-4.0351,-4.0383,-4.0188,-3.9669,-3.8927,-3.804,-3.6991,-3.5852,-3.4476,-3.2886,-3.1747,-3.0633,-3.0367,-3.0049,-3.0003,-2.9988,-2.9972,-2.9956,-2.994,-2.9907,-2.9907,-2.9907,-2.9907,-2.9907,-2.9907,-2.9907,-2.9907,-2.9907,-2.9907,-2.9907,-2.9926,-3.0135,-3.0286,-3.0116,-3.0097,-2.9907,-3.0021,-3.3433,-3.3605,-3.3587,-3.3569,-3.3633,-3.3753,-3.3807,-3.3807,-3.3807,-3.3807,-3.3807,-3.3815,-3.4215,-3.4911,-3.5143,-3.5751,-3.6601,-3.7578,-3.7817,-3.8152,-3.8608,-3.8738,-3.8004,-3.6764,-3.5576,-3.473,-3.3285,-3.1652,-3.0884,-3.0713,-3.0733,-3.0734,-3.0279,-3.0056,-3.0076,-3.027,-3.0901,-3.1621,-3.2269,-3.3037,-3.4438,-3.5441,-3.6078,-3.6727,-3.7512,-3.8031,-3.7916,-3.727,-3.6863,-3.6632,-3.6106,-3.6125,-3.6394,-3.6719,-3.6882,-3.7171,-3.704,-3.665,-3.622,-3.6635,-3.707,-3.6818,-3.6511,-3.6348,-3.5933,-3.6211,-3.6438,-3.6405,-3.7233,-3.7783,-3.8161,-3.8673,-3.9572,-4.0175,-4.0434,-4.045,-4.0481,-4.0515,-4.0511,-4.0526,-4.0159,-3.9576,-3.8554,-3.7571,-3.6119,-3.4872,-3.3307,-3.1731,-3.129,-3.0407,-3.0375,-3.0226,-3.0138,-3.0094,-3.0064,-3.0034,-2.9953,-2.9924,-2.9907,-2.9907,-2.9907,-2.9907,-2.9907,-2.9907,-2.9907,-2.9907,-2.9907,-2.9907,-2.9907,-2.9907,-2.9907,-2.9907,-2.9907,-2.9907,-2.9907,-3.269,-3.282,-3.283,-3.3186,-3.3726,-3.378,-3.3807,-3.3807,-3.3807,-3.3807,-3.376,-3.3543,-3.3597,-3.3929,-3.4136,-3.4355,-3.4924,-3.6182,-3.6554,-3.7009,-3.7506,-3.7702,-3.6971,-3.6026,-3.484,-3.4073,-3.209,-3.0977,-3.0974,-3.0345,-3.0232,-3.027,-3.0224,-3.0468,-3.0653,-3.1059,-3.1852,-3.2682,-3.286,-3.3361,-3.4866,-3.581,-3.6203,-3.6042,-3.6826,-3.6979,-3.6624,-3.6339,-3.6207,-3.6099,-3.5805,-3.6188,-3.6786,-3.716,-3.761,-3.7899,-3.7648,-3.7224,-3.6972,-3.7425,-3.7597,-3.7367,-3.6868,-3.6351,-3.5983,-3.5795,-3.576,-3.601,-3.6543,-3.713,-3.7993,-3.8723,-3.958,-4.0275,-4.0593,-4.0607,-4.0582,-4.0544,-4.0307,-4.0152,-3.9831,-3.9361,-3.8201,-3.6984,-3.5377,-3.3797,-3.2166,-3.0852,-3.0556,-3.0379,-3.0367,-3.0343,-3.026,-3.018,-3.0152,-3.006,-2.9984,-2.9937,-2.9924,-2.9907,-2.9907,-2.9907,-2.9907,-2.9907,-2.9907,-2.9907,-2.9907,-2.9907,-2.9907,-2.9907,-2.9907,-2.9907,-2.9907,-2.9907,-2.9907,-3.1873,-3.1992,-3.2265,-3.2939,-3.3707,-3.3523,-3.344,-3.3403,-3.3188,-3.3419,-3.3623,-3.331,-3.3178,-3.3208,-3.3088,-3.3148,-3.3601,-3.4527,-3.5056,-3.5548,-3.5945,-3.6159,-3.5571,-3.468,-3.3696,-3.2952,-3.1789,-3.0804,-3.1159,-3.051,-3.0745,-3.0944,-3.0713,-3.1033,-3.1367,-3.2011,-3.2808,-3.3527,-3.3924,-3.4137,-3.5626,-3.6118,-3.6292,-3.5809,-3.6292,-3.6311,-3.6002,-3.5858,-3.582,-3.5781,-3.58,-3.6149,-3.6806,-3.7483,-3.8102,-3.8315,-3.8257,-3.7851,-3.7764,-3.7662,-3.7416,-3.6887,-3.6911,-3.6219,-3.5666,-3.5416,-3.5578,-3.5565,-3.6065,-3.6733,-3.781,-3.862,-3.9527,-4.0275,-4.0642,-4.0713,-4.0539,-4.0456,-4.0043,-3.9695,-3.9262,-3.8644,-3.6942,-3.5577,-3.429,-3.2877,-3.1776,-3.079,-3.0606,-3.0469,-3.0477,-3.0425,-3.0359,-3.0286,-3.0202,-3.0118,-3.003,-3.0,-2.9953,-2.9924,-2.9907,-2.9907,-2.9907,-2.9907,-2.9907,-2.9907,-2.9907,-2.9907,-2.9907,-2.9907,-2.9907,-2.9907,-2.9907,-2.9907,-2.9907,-3.1057,-3.1247,-3.1974,-3.2821,-3.3451,-3.2936,-3.2669,-3.261,-3.2181,-3.2426,-3.3181,-3.3175,-3.3256,-3.3165,-3.2731,-3.2536,-3.261,-3.3315,-3.3789,-3.4054,-3.4793,-3.4981,-3.4541,-3.372,-3.2997,-3.2333,-3.1293,-3.0739,-3.1365,-3.0657,-3.1218,-3.1931,-3.1746,-3.1827,-3.1912,-3.2676,-3.3102,-3.3305,-3.406,-3.4756,-3.551,-3.5839,-3.5781,-3.58,-3.5839,-3.582,-3.5762,-3.5704,-3.5704,-3.5704,-3.5704,-3.611,-3.6845,-3.698,-3.7251,-3.7328,-3.7193,-3.7019,-3.6969,-3.6949,-3.6733,-3.6373,-3.653,-3.6284,-3.5836,-3.5662,-3.5651,-3.5623,-3.5813,-3.6617,-3.751,-3.8284,-3.9192,-4.021,-4.0597,-4.052,-4.0307,-4.0152,-3.9727,-3.8895,-3.8315,-3.756,-3.5665,-3.404,-3.2938,-3.1884,-3.112,-3.0724,-3.0598,-3.055,-3.0549,-3.0519,-3.0458,-3.0383,-3.0292,-3.0174,-3.009,-3.0045,-3.0,-2.994,-2.9907,-2.9907,-2.9907,-2.9907,-2.9907,-2.9907,-2.9907,-2.9907,-2.9907,-2.9907,-2.9907,-2.9907,-2.9907,-2.9907,-2.9907,-3.0259,-3.0329,-3.0628,-3.1338,-3.2256,-3.2548,-3.2378,-3.2056,-3.1964,-3.2115,-3.2424,-3.2638,-3.2766,-3.2703,-3.2683,-3.2354,-3.212,-3.2709,-3.3111,-3.3211,-3.3961,-3.4327,-3.4055,-3.337,-3.2699,-3.2338,-3.129,-3.0836,-3.1578,-3.0963,-3.0722,-3.124,-3.2596,-3.3014,-3.3441,-3.3944,-3.4176,-3.464,-3.4737,-3.4795,-3.5588,-3.5704,-3.5704,-3.5704,-3.5704,-3.5704,-3.5704,-3.5704,-3.5704,-3.5704,-3.5704,-3.6071,-3.6671,-3.6826,-3.7096,-3.7309,-3.7328,-3.6903,-3.6903,-3.6903,-3.6826,-3.6535,-3.6265,-3.6168,-3.5723,-3.5704,-3.5704,-3.5704,-3.5704,-3.6593,-3.7781,-3.753,-3.8295,-4.0017,-4.0462,-4.0017,-3.9746,-3.9649,-3.9282,-3.8083,-3.7251,-3.6903,-3.5568,-3.4408,-3.3228,-3.2222,-3.1584,-3.0888,-3.0608,-3.0588,-3.0579,-3.0588,-3.0559,-3.0479,-3.0406,-3.0279,-3.0174,-3.0133,-3.003,-2.9924,-2.9907,-2.9924,-2.9907,-2.9907,-2.9907,-2.9907,-2.9907,-2.9907,-2.9907,-2.9907,-2.9907,-2.9907,-2.9907,-2.9907,-2.9907,-2.9582,-2.9716,-3.0015,-3.0383,-3.0936,-3.1573,-3.152,-3.1213,-3.1523,-3.1902,-3.2278,-3.2509,-3.2836,-3.2898,-3.2574,-3.2301,-3.1775,-3.2199,-3.2487,-3.2602,-3.3353,-3.3436,-3.3205,-3.3045,-3.2372,-3.2102,-3.1833,-3.1571,-3.1705,-3.1436,-3.1715,-3.2428,-3.3197,-3.4185,-3.4698,-3.4911,-3.4853,-3.5065,-3.4872,-3.5143,-3.5588,-3.5704,-3.5704,-3.5704,-3.5704,-3.5704,-3.5704,-3.5704,-3.5704,-3.5704,-3.58,-3.5955,-3.6361,-3.6593,-3.6787,-3.6961,-3.7193,-3.6845,-3.6903,-3.7348,-3.7251,-3.6845,-3.6361,-3.6013,-3.58,-3.5704,-3.5704,-3.5704,-3.5762,-3.6516,-3.7406,-3.7019,-3.8063,-3.9804,-3.992,-3.9456,-3.8972,-3.8876,-3.8392,-3.7212,-3.6555,-3.6129,-3.5781,-3.4969,-3.3944,-3.3035,-3.2145,-3.1391,-3.0675,-3.0617,-3.0617,-3.0617,-3.0617,-3.055,-3.0479,-3.0394,-3.0292,-3.0215,-3.009,-2.9972,-2.9956,-2.9972,-2.994,-2.9907,-2.9907,-2.9907,-2.9907,-2.9907,-2.9907,-2.9907,-2.9907,-2.9907,-2.9907,-2.9907,-2.9907,-2.9119,-2.9423,-3.0209,-3.0122,-2.964,-3.0283,-3.0318,-3.0023,-3.0871,-3.173,-3.252,-3.2588,-3.2977,-3.3403,-3.2403,-3.193,-3.1878,-3.1948,-3.2122,-3.2141,-3.2776,-3.2526,-3.2564,-3.2564,-3.216,-3.1718,-3.1487,-3.1602,-3.1775,-3.1954,-3.276,-3.3828,-3.4444,-3.5085,-3.5356,-3.5433,-3.524,-3.5143,-3.5278,-3.5491,-3.5704,-3.5704,-3.5704,-3.5704,-3.5704,-3.5704,-3.5704,-3.5704,-3.5704,-3.5704,-3.5723,-3.5723,-3.5742,-3.5723,-3.5723,-3.5936,-3.6516,-3.669,-3.7154,-3.7715,-3.7812,-3.7425,-3.6961,-3.6477,-3.611,-3.5955,-3.6013,-3.6091,-3.6187,-3.6535,-3.6922,-3.7522,-3.816,-3.8856,-3.9204,-3.876,-3.8179,-3.7754,-3.727,-3.6593,-3.6129,-3.5781,-3.5684,-3.5046,-3.4408,-3.346,-3.2512,-3.1603,-3.0965,-3.0617,-3.0617,-3.0617,-3.0617,-3.0617,-3.053,-3.0439,-3.0375,-3.0304,-3.0161,-3.0049,-3.0034,-3.0003,-2.994,-2.9907,-2.9907,-2.9907,-2.9907,-2.9907,-2.9907,-2.9907,-2.9907,-2.9907,-2.9907,-2.9924,-2.9924,-2.9251,-2.933,-2.9556,-2.9642,-2.9699,-3.0082,-3.0111,-3.0054,-3.0963,-3.134,-3.0987,-3.2264,-3.2713,-3.2338,-3.3044,-3.2917,-3.2718,-3.2641,-3.3045,-3.3026,-3.2602,-3.2852,-3.2833,-3.2583,-3.2179,-3.1852,-3.166,-3.1595,-3.1657,-3.2097,-3.2632,-3.3399,-3.4494,-3.5085,-3.553,-3.5704,-3.5491,-3.5394,-3.5568,-3.5646,-3.5704,-3.5704,-3.5704,-3.5704,-3.5704,-3.5704,-3.5704,-3.5704,-3.5704,-3.5704,-3.5704,-3.5704,-3.5704,-3.5704,-3.5704,-3.5704,-3.6071,-3.6439,-3.7464,-3.7483,-3.7541,-3.7909,-3.7522,-3.6922,-3.6613,-3.6439,-3.64,-3.6342,-3.6555,-3.6903,-3.7174,-3.7677,-3.816,-3.8489,-3.8586,-3.8044,-3.7502,-3.7058,-3.6593,-3.6245,-3.5762,-3.5742,-3.5607,-3.5356,-3.4679,-3.3789,-3.2841,-3.1894,-3.1178,-3.083,-3.0617,-3.0617,-3.0617,-3.0617,-3.0579,-3.049,-3.0439,-3.0364,-3.0241,-3.0118,-3.0094,-3.0049,-2.9956,-2.9907,-2.9907,-2.9907,-2.9907,-2.9907,-2.9907,-2.9907,-2.9907,-2.9907,-2.9907,-2.9907,-2.9937,-2.9474,-2.9532,-2.957,-2.968,-2.9867,-3.0094,-3.0128,-3.0164,-3.0715,-3.0796,-3.0849,-3.179,-3.2387,-3.2741,-3.2974,-3.2936,-3.2891,-3.2795,-3.291,-3.2564,-3.2718,-3.2833,-3.2795,-3.2545,-3.2064,-3.1814,-3.1672,-3.1588,-3.1468,-3.1783,-3.2327,-3.3641,-3.4223,-3.4872,-3.5452,-3.5704,-3.5704,-3.5665,-3.5704,-3.5704,-3.5704,-3.5704,-3.5704,-3.5704,-3.5704,-3.5704,-3.5704,-3.5704,-3.5704,-3.5704,-3.5704,-3.5704,-3.5704,-3.5704,-3.5704,-3.5704,-3.5781,-3.6419,-3.7193,-3.7174,-3.7618,-3.7889,-3.756,-3.7096,-3.669,-3.6458,-3.6323,-3.6265,-3.6767,-3.7212,-3.7444,-3.7715,-3.8005,-3.8315,-3.7831,-3.7328,-3.6903,-3.6497,-3.6168,-3.5839,-3.5704,-3.5704,-3.5588,-3.5394,-3.4949,-3.4021,-3.3035,-3.2038,-3.1352,-3.0907,-3.0694,-3.0617,-3.0617,-3.0617,-3.0569,-3.054,-3.05,-3.0449,-3.0352,-3.0254,-3.0194,-3.0079,-3.0003,-2.9956,-2.9907,-2.9907,-2.9907,-2.9907,-2.9907,-2.9907,-2.9907,-2.9905,-2.9924,-2.9907,-2.9972,-2.9734,-2.9888,-2.9972,-3.0003,-3.0094,-3.0171,-3.0204,-3.0204,-3.028,-3.0624,-3.1231,-3.1585,-3.2469,-3.29,-3.2653,-3.2596,-3.2648,-3.2737,-3.2506,-3.1814,-3.2506,-3.2737,-3.2545,-3.2275,-3.1852,-3.1557,-3.1376,-3.1349,-3.094,-3.1369,-3.2559,-3.4144,-3.4339,-3.4853,-3.5568,-3.5684,-3.5704,-3.5704,-3.5704,-3.5704,-3.5704,-3.5704,-3.5704,-3.5704,-3.5704,-3.5704,-3.5704,-3.5704,-3.5704,-3.5704,-3.5704,-3.5704,-3.5704,-3.5704,-3.5704,-3.5704,-3.5704,-3.6245,-3.6748,-3.6787,-3.6961,-3.7096,-3.6903,-3.6826,-3.6613,-3.6516,-3.64,-3.6477,-3.6922,-3.7096,-3.729,-3.756,-3.7851,-3.7735,-3.7309,-3.6787,-3.6303,-3.6052,-3.5936,-3.5704,-3.5704,-3.5704,-3.5646,-3.5433,-3.4833,-3.406,-3.3286,-3.227,-3.1449,-3.0946,-3.081,-3.0656,-3.0617,-3.0617,-3.0598,-3.0588,-3.0588,-3.054,-3.0458,-3.0383,-3.0279,-3.018,-3.0064,-3.0003,-2.9956,-2.9924,-2.9907,-2.9907,-2.9907,-2.9907,-2.9907,-2.9905,-2.9905,-2.9937,-3.0019,-2.9855,-2.9924,-3.0022,-3.0087,-3.0098,-3.0176,-3.0204,-3.0204,-3.0204,-3.0319,-3.0715,-3.1776,-3.2316,-3.2223,-3.2403,-3.25,-3.2628,-3.2372,-3.2314,-3.1891,-3.2102,-3.2275,-3.2102,-3.1564,-3.1487,-3.1833,-3.1653,-3.1014,-3.0777,-3.139,-3.229,-3.3392,-3.3924,-3.4717,-3.5626,-3.5704,-3.5704,-3.5704,-3.5704,-3.5704,-3.5704,-3.5704,-3.5704,-3.5704,-3.5704,-3.5704,-3.5704,-3.5704,-3.5704,-3.5704,-3.5704,-3.5704,-3.5704,-3.5704,-3.5704,-3.5704,-3.5723,-3.6129,-3.64,-3.6477,-3.6574,-3.6922,-3.6922,-3.669,-3.6574,-3.6593,-3.6632,-3.6748,-3.6864,-3.6922,-3.7096,-3.7386,-3.7541,-3.7193,-3.6806,-3.6284,-3.5762,-3.5742,-3.5704,-3.5704,-3.5704,-3.5684,-3.5626,-3.524,-3.464,-3.4021,-3.3411,-3.2541,-3.1526,-3.0888,-3.0926,-3.0791,-3.0636,-3.0617,-3.0617,-3.0617,-3.0617,-3.0579,-3.049,-3.0428,-3.0383,-3.026,-3.0123,-3.0064,-3.0003,-2.9972,-2.9924,-2.9907,-2.9907,-2.9907,-2.9956,-2.9953,-3.0015,-3.0045,-3.0138,-2.9907,-2.9905,-3.0038,-3.0083,-3.0113,-3.0157,-3.0204,-3.0204,-3.0204,-3.0204,-3.0294,-3.1178,-3.1621,-3.1418,-3.1802,-3.2212,-3.2256,-3.1948,-3.1621,-3.1371,-3.1448,-3.1448,-3.1198,-3.091,-3.1006,-3.1314,-3.0941,-3.0513,-3.0586,-3.0945,-3.17,-3.2908,-3.3731,-3.4408,-3.5414,-3.5684,-3.5665,-3.5704,-3.5704,-3.5704,-3.5704,-3.5704,-3.5704,-3.5704,-3.5704,-3.5704,-3.5704,-3.5704,-3.5704,-3.5704,-3.5704,-3.5704,-3.5704,-3.5704,-3.5704,-3.5704,-3.5762,-3.5897,-3.611,-3.6187,-3.6149,-3.6477,-3.6535,-3.6129,-3.611,-3.611,-3.611,-3.6207,-3.6265,-3.6323,-3.6651,-3.6942,-3.7038,-3.6845,-3.6419,-3.5936,-3.5742,-3.5723,-3.5704,-3.5704,-3.5704,-3.5704,-3.553,-3.5046,-3.4505,-3.4234,-3.3596,-3.3102,-3.2048,-3.1062,-3.1043,-3.0926,-3.0772,-3.0636,-3.0617,-3.0617,-3.0617,-3.0579,-3.053,-3.0479,-3.0406,-3.0286,-3.0185,-3.0123,-3.0045,-2.9969,-2.9937,-2.994,-2.9924,-2.9907,-2.9972,-3.0034,-3.009,-3.0161,-3.0241,-2.9907,-2.9924,-3.0038,-3.0098,-3.0109,-3.0171,-3.0204,-3.0204,-3.0204,-3.0204,-3.0218,-3.0324,-3.0829,-3.1104,-3.0989,-3.1263,-3.1429,-3.1391,-3.1044,-3.0898,-3.1179,-3.1025,-3.0744,-3.0456,-3.0621,-3.0633,-3.0463,-3.0439,-3.05,-3.0791,-3.141,-3.2657,-3.3305,-3.3789,-3.5007,-3.553,-3.5452,-3.5646,-3.5704,-3.5704,-3.5704,-3.5704,-3.5704,-3.5704,-3.5704,-3.5704,-3.5704,-3.5704,-3.5704,-3.5704,-3.5704,-3.5704,-3.5704,-3.5704,-3.5704,-3.5704,-3.5704,-3.5742,-3.5781,-3.582,-3.5781,-3.5781,-3.5704,-3.5723,-3.5742,-3.5762,-3.5762,-3.5781,-3.582,-3.5936,-3.6245,-3.6419,-3.6497,-3.6497,-3.6052,-3.5762,-3.5723,-3.5704,-3.5704,-3.5704,-3.5715,-3.5715,-3.5414,-3.4911,-3.4621,-3.4331,-3.3963,-3.3479,-3.2861,-3.1952,-3.1449,-3.1197,-3.0926,-3.0791,-3.0636,-3.0617,-3.0617,-3.0598,-3.0569,-3.053,-3.0469,-3.0359,-3.0273,-3.0188,-3.0118,-3.0045,-2.9984,-2.9988,-2.9956,-2.9956,-3.0049,-3.0138,-3.0202,-3.0279,-3.0352,-2.9907,-2.9924,-3.0038,-3.0083,-3.0117,-3.0176,-3.0204,-3.0204,-3.0204,-3.0204,-3.0199,-3.033,-3.0772,-3.1571,-3.1482,-3.1488,-3.1295,-3.1083,-3.0737,-3.0533,-3.0706,-3.0583,-3.0467,-3.0398,-3.0398,-3.0402,-3.0436,-3.0479,-3.05,-3.0608,-3.1052,-3.2068,-3.2126,-3.2919,-3.4331,-3.4756,-3.5027,-3.5336,-3.5665,-3.5704,-3.5704,-3.5704,-3.5704,-3.5704,-3.5704,-3.5704,-3.5704,-3.5704,-3.5704,-3.5704,-3.5704,-3.5704,-3.5704,-3.5704,-3.5704,-3.5704,-3.5704,-3.5704,-3.5704,-3.5704,-3.5704,-3.5704,-3.5704,-3.5704,-3.5723,-3.5723,-3.5723,-3.5723,-3.5742,-3.5742,-3.5955,-3.5955,-3.5994,-3.5994,-3.5742,-3.5734,-3.5715,-3.5695,-3.5706,-3.5706,-3.5706,-3.5706,-3.5657,-3.5289,-3.5057,-3.4786,-3.4505,-3.4021,-3.3518,-3.2725,-3.1855,-3.1526,-3.1178,-3.081,-3.0617,-3.0617,-3.0617,-3.0617,-3.0617,-3.0569,-3.053,-3.0449,-3.0352,-3.026,-3.0188,-3.0123,-3.0079,-3.0064,-3.0045,-3.0094,-3.0199,-3.0279,-3.0323,-3.0383,-3.0439]}]]